<?xml version="1.0" encoding="UTF-8" standalone="no" ?>
<gpx xmlns="http://www.topografix.com/GPX/1/1" xmlns:xsi="http://www.w3.org/2001/XMLSchema-instance" xsi:schemaLocation="http://www.topografix.com/GPX/1/1 http://www.topografix.com/GPX/1/1/gpx.xsd" version="1.1" creator="VisuGPX - https://www.visugpx.com">
  <metadata>
    <name>Rando - 2ème journée sur le Glandasse</name>
    <desc><![CDATA[La suite du 1er jour !]]></desc>
  </metadata>
  <trk>
    <name><![CDATA[09-MAI-15 15:06:33]]></name>
    <trkseg>
      <trkpt lat="44.72769" lon="5.49028">
        <ele>1699.27</ele>
        <time>2015-05-09T06:17:18Z</time>
      </trkpt>
      <trkpt lat="44.72767" lon="5.49021">
        <ele>1699.27</ele>
        <time>2015-05-09T06:17:29Z</time>
      </trkpt>
      <trkpt lat="44.72763" lon="5.49019">
        <ele>1698.31</ele>
        <time>2015-05-09T06:17:54Z</time>
      </trkpt>
      <trkpt lat="44.72763" lon="5.49019">
        <ele>1702.15</ele>
        <time>2015-05-09T06:17:56Z</time>
      </trkpt>
      <trkpt lat="44.72763" lon="5.49018">
        <ele>1706</ele>
        <time>2015-05-09T06:17:58Z</time>
      </trkpt>
      <trkpt lat="44.72762" lon="5.49018">
        <ele>1710.32</ele>
        <time>2015-05-09T06:18:00Z</time>
      </trkpt>
      <trkpt lat="44.7276" lon="5.4902">
        <ele>1714.65</ele>
        <time>2015-05-09T06:18:03Z</time>
      </trkpt>
      <trkpt lat="44.72759" lon="5.49022">
        <ele>1718.49</ele>
        <time>2015-05-09T06:18:06Z</time>
      </trkpt>
      <trkpt lat="44.72759" lon="5.49023">
        <ele>1722.34</ele>
        <time>2015-05-09T06:18:09Z</time>
      </trkpt>
      <trkpt lat="44.72759" lon="5.49023">
        <ele>1725.7</ele>
        <time>2015-05-09T06:18:12Z</time>
      </trkpt>
      <trkpt lat="44.72759" lon="5.49023">
        <ele>1728.59</ele>
        <time>2015-05-09T06:18:15Z</time>
      </trkpt>
      <trkpt lat="44.72754" lon="5.49027">
        <ele>1732.43</ele>
        <time>2015-05-09T06:18:20Z</time>
      </trkpt>
      <trkpt lat="44.72745" lon="5.49031">
        <ele>1735.8</ele>
        <time>2015-05-09T06:18:27Z</time>
      </trkpt>
      <trkpt lat="44.72739" lon="5.49033">
        <ele>1739.16</ele>
        <time>2015-05-09T06:18:32Z</time>
      </trkpt>
      <trkpt lat="44.72734" lon="5.49035">
        <ele>1741.08</ele>
        <time>2015-05-09T06:18:37Z</time>
      </trkpt>
      <trkpt lat="44.72729" lon="5.49034">
        <ele>1742.53</ele>
        <time>2015-05-09T06:18:41Z</time>
      </trkpt>
      <trkpt lat="44.72717" lon="5.49033">
        <ele>1745.89</ele>
        <time>2015-05-09T06:18:52Z</time>
      </trkpt>
      <trkpt lat="44.72715" lon="5.49033">
        <ele>1746.37</ele>
        <time>2015-05-09T06:18:53Z</time>
      </trkpt>
      <trkpt lat="44.72701" lon="5.4903">
        <ele>1746.85</ele>
        <time>2015-05-09T06:19:04Z</time>
      </trkpt>
      <trkpt lat="44.72688" lon="5.49018">
        <ele>1746.37</ele>
        <time>2015-05-09T06:19:16Z</time>
      </trkpt>
      <trkpt lat="44.72686" lon="5.49016">
        <ele>1746.37</ele>
        <time>2015-05-09T06:19:25Z</time>
      </trkpt>
      <trkpt lat="44.72684" lon="5.49012">
        <ele>1745.89</ele>
        <time>2015-05-09T06:19:27Z</time>
      </trkpt>
      <trkpt lat="44.72669" lon="5.49001">
        <ele>1743.49</ele>
        <time>2015-05-09T06:19:39Z</time>
      </trkpt>
      <trkpt lat="44.72663" lon="5.48997">
        <ele>1743.49</ele>
        <time>2015-05-09T06:19:49Z</time>
      </trkpt>
      <trkpt lat="44.72661" lon="5.48996">
        <ele>1743.97</ele>
        <time>2015-05-09T06:19:57Z</time>
      </trkpt>
      <trkpt lat="44.72649" lon="5.48997">
        <ele>1743.97</ele>
        <time>2015-05-09T06:20:07Z</time>
      </trkpt>
      <trkpt lat="44.72649" lon="5.48997">
        <ele>1743.97</ele>
        <time>2015-05-09T06:20:09Z</time>
      </trkpt>
      <trkpt lat="44.72639" lon="5.48997">
        <ele>1744.93</ele>
        <time>2015-05-09T06:20:15Z</time>
      </trkpt>
      <trkpt lat="44.72617" lon="5.48997">
        <ele>1744.93</ele>
        <time>2015-05-09T06:20:28Z</time>
      </trkpt>
      <trkpt lat="44.72613" lon="5.48997">
        <ele>1744.93</ele>
        <time>2015-05-09T06:20:32Z</time>
      </trkpt>
      <trkpt lat="44.7261" lon="5.48996">
        <ele>1744.93</ele>
        <time>2015-05-09T06:20:35Z</time>
      </trkpt>
      <trkpt lat="44.72605" lon="5.48997">
        <ele>1744.93</ele>
        <time>2015-05-09T06:20:39Z</time>
      </trkpt>
      <trkpt lat="44.72592" lon="5.48996">
        <ele>1745.41</ele>
        <time>2015-05-09T06:20:53Z</time>
      </trkpt>
      <trkpt lat="44.72579" lon="5.48998">
        <ele>1745.41</ele>
        <time>2015-05-09T06:21:04Z</time>
      </trkpt>
      <trkpt lat="44.72565" lon="5.48998">
        <ele>1746.37</ele>
        <time>2015-05-09T06:21:17Z</time>
      </trkpt>
      <trkpt lat="44.72556" lon="5.48998">
        <ele>1746.37</ele>
        <time>2015-05-09T06:21:24Z</time>
      </trkpt>
      <trkpt lat="44.72541" lon="5.49002">
        <ele>1747.33</ele>
        <time>2015-05-09T06:21:36Z</time>
      </trkpt>
      <trkpt lat="44.72527" lon="5.49003">
        <ele>1748.29</ele>
        <time>2015-05-09T06:21:47Z</time>
      </trkpt>
      <trkpt lat="44.72519" lon="5.49004">
        <ele>1748.29</ele>
        <time>2015-05-09T06:21:53Z</time>
      </trkpt>
      <trkpt lat="44.72502" lon="5.49006">
        <ele>1748.78</ele>
        <time>2015-05-09T06:22:06Z</time>
      </trkpt>
      <trkpt lat="44.72487" lon="5.49009">
        <ele>1749.74</ele>
        <time>2015-05-09T06:22:18Z</time>
      </trkpt>
      <trkpt lat="44.72485" lon="5.49009">
        <ele>1749.74</ele>
        <time>2015-05-09T06:22:19Z</time>
      </trkpt>
      <trkpt lat="44.72479" lon="5.4901">
        <ele>1750.7</ele>
        <time>2015-05-09T06:22:24Z</time>
      </trkpt>
      <trkpt lat="44.72463" lon="5.4901">
        <ele>1752.14</ele>
        <time>2015-05-09T06:22:36Z</time>
      </trkpt>
      <trkpt lat="44.72454" lon="5.49011">
        <ele>1753.1</ele>
        <time>2015-05-09T06:22:48Z</time>
      </trkpt>
      <trkpt lat="44.72454" lon="5.49011">
        <ele>1753.1</ele>
        <time>2015-05-09T06:23:20Z</time>
      </trkpt>
      <trkpt lat="44.72452" lon="5.48999">
        <ele>1753.1</ele>
        <time>2015-05-09T06:23:28Z</time>
      </trkpt>
      <trkpt lat="44.72448" lon="5.48995">
        <ele>1753.58</ele>
        <time>2015-05-09T06:23:35Z</time>
      </trkpt>
      <trkpt lat="44.72447" lon="5.48995">
        <ele>1754.06</ele>
        <time>2015-05-09T06:23:38Z</time>
      </trkpt>
      <trkpt lat="44.7244" lon="5.4899">
        <ele>1755.02</ele>
        <time>2015-05-09T06:23:44Z</time>
      </trkpt>
      <trkpt lat="44.72429" lon="5.48979">
        <ele>1757.43</ele>
        <time>2015-05-09T06:23:56Z</time>
      </trkpt>
      <trkpt lat="44.72422" lon="5.48974">
        <ele>1757.91</ele>
        <time>2015-05-09T06:24:02Z</time>
      </trkpt>
      <trkpt lat="44.72416" lon="5.48967">
        <ele>1758.87</ele>
        <time>2015-05-09T06:24:11Z</time>
      </trkpt>
      <trkpt lat="44.72406" lon="5.48954">
        <ele>1759.83</ele>
        <time>2015-05-09T06:24:22Z</time>
      </trkpt>
      <trkpt lat="44.72393" lon="5.48942">
        <ele>1761.27</ele>
        <time>2015-05-09T06:24:34Z</time>
      </trkpt>
      <trkpt lat="44.72391" lon="5.48939">
        <ele>1761.75</ele>
        <time>2015-05-09T06:24:37Z</time>
      </trkpt>
      <trkpt lat="44.72383" lon="5.48932">
        <ele>1762.23</ele>
        <time>2015-05-09T06:24:44Z</time>
      </trkpt>
      <trkpt lat="44.72375" lon="5.48925">
        <ele>1763.2</ele>
        <time>2015-05-09T06:24:52Z</time>
      </trkpt>
      <trkpt lat="44.72369" lon="5.48918">
        <ele>1764.64</ele>
        <time>2015-05-09T06:24:58Z</time>
      </trkpt>
      <trkpt lat="44.72367" lon="5.48915">
        <ele>1765.12</ele>
        <time>2015-05-09T06:25:01Z</time>
      </trkpt>
      <trkpt lat="44.7236" lon="5.48909">
        <ele>1766.08</ele>
        <time>2015-05-09T06:25:07Z</time>
      </trkpt>
      <trkpt lat="44.72355" lon="5.48906">
        <ele>1767.04</ele>
        <time>2015-05-09T06:25:11Z</time>
      </trkpt>
      <trkpt lat="44.72349" lon="5.48898">
        <ele>1767.52</ele>
        <time>2015-05-09T06:25:18Z</time>
      </trkpt>
      <trkpt lat="44.72341" lon="5.48898">
        <ele>1768.48</ele>
        <time>2015-05-09T06:25:28Z</time>
      </trkpt>
      <trkpt lat="44.72341" lon="5.48898">
        <ele>1768</ele>
        <time>2015-05-09T06:25:31Z</time>
      </trkpt>
      <trkpt lat="44.72337" lon="5.48894">
        <ele>1767.52</ele>
        <time>2015-05-09T06:25:35Z</time>
      </trkpt>
      <trkpt lat="44.72335" lon="5.48894">
        <ele>1766.08</ele>
        <time>2015-05-09T06:25:49Z</time>
      </trkpt>
      <trkpt lat="44.72335" lon="5.48894">
        <ele>1767.04</ele>
        <time>2015-05-09T06:26:27Z</time>
      </trkpt>
      <trkpt lat="44.72335" lon="5.48894">
        <ele>1767.04</ele>
        <time>2015-05-09T06:26:29Z</time>
      </trkpt>
      <trkpt lat="44.7232" lon="5.48898">
        <ele>1765.12</ele>
        <time>2015-05-09T06:26:41Z</time>
      </trkpt>
      <trkpt lat="44.72308" lon="5.48904">
        <ele>1763.68</ele>
        <time>2015-05-09T06:26:52Z</time>
      </trkpt>
      <trkpt lat="44.72306" lon="5.48905">
        <ele>1762.71</ele>
        <time>2015-05-09T06:26:55Z</time>
      </trkpt>
      <trkpt lat="44.72293" lon="5.48908">
        <ele>1761.27</ele>
        <time>2015-05-09T06:27:06Z</time>
      </trkpt>
      <trkpt lat="44.72289" lon="5.4891">
        <ele>1760.79</ele>
        <time>2015-05-09T06:27:11Z</time>
      </trkpt>
      <trkpt lat="44.72285" lon="5.4891">
        <ele>1759.83</ele>
        <time>2015-05-09T06:27:14Z</time>
      </trkpt>
      <trkpt lat="44.72278" lon="5.48907">
        <ele>1757.91</ele>
        <time>2015-05-09T06:27:21Z</time>
      </trkpt>
      <trkpt lat="44.72271" lon="5.48907">
        <ele>1756.47</ele>
        <time>2015-05-09T06:27:30Z</time>
      </trkpt>
      <trkpt lat="44.72264" lon="5.48911">
        <ele>1755.5</ele>
        <time>2015-05-09T06:27:37Z</time>
      </trkpt>
      <trkpt lat="44.72259" lon="5.48911">
        <ele>1754.54</ele>
        <time>2015-05-09T06:27:41Z</time>
      </trkpt>
      <trkpt lat="44.72248" lon="5.48914">
        <ele>1752.62</ele>
        <time>2015-05-09T06:27:51Z</time>
      </trkpt>
      <trkpt lat="44.72246" lon="5.48916">
        <ele>1752.14</ele>
        <time>2015-05-09T06:27:54Z</time>
      </trkpt>
      <trkpt lat="44.72243" lon="5.48917">
        <ele>1751.66</ele>
        <time>2015-05-09T06:27:56Z</time>
      </trkpt>
      <trkpt lat="44.72235" lon="5.48917">
        <ele>1750.22</ele>
        <time>2015-05-09T06:28:03Z</time>
      </trkpt>
      <trkpt lat="44.72233" lon="5.48916">
        <ele>1749.26</ele>
        <time>2015-05-09T06:28:05Z</time>
      </trkpt>
      <trkpt lat="44.72225" lon="5.48915">
        <ele>1747.81</ele>
        <time>2015-05-09T06:28:11Z</time>
      </trkpt>
      <trkpt lat="44.72223" lon="5.48915">
        <ele>1747.33</ele>
        <time>2015-05-09T06:28:13Z</time>
      </trkpt>
      <trkpt lat="44.72216" lon="5.48914">
        <ele>1746.37</ele>
        <time>2015-05-09T06:28:18Z</time>
      </trkpt>
      <trkpt lat="44.72214" lon="5.48914">
        <ele>1745.89</ele>
        <time>2015-05-09T06:28:25Z</time>
      </trkpt>
      <trkpt lat="44.72203" lon="5.48917">
        <ele>1743.97</ele>
        <time>2015-05-09T06:28:36Z</time>
      </trkpt>
      <trkpt lat="44.72201" lon="5.48918">
        <ele>1743.49</ele>
        <time>2015-05-09T06:28:40Z</time>
      </trkpt>
      <trkpt lat="44.72199" lon="5.48918">
        <ele>1743.97</ele>
        <time>2015-05-09T06:28:42Z</time>
      </trkpt>
      <trkpt lat="44.72193" lon="5.4892">
        <ele>1743.97</ele>
        <time>2015-05-09T06:28:47Z</time>
      </trkpt>
      <trkpt lat="44.7218" lon="5.4892">
        <ele>1741.57</ele>
        <time>2015-05-09T06:28:58Z</time>
      </trkpt>
      <trkpt lat="44.72174" lon="5.48923">
        <ele>1740.6</ele>
        <time>2015-05-09T06:29:03Z</time>
      </trkpt>
      <trkpt lat="44.7216" lon="5.48927">
        <ele>1738.2</ele>
        <time>2015-05-09T06:29:15Z</time>
      </trkpt>
      <trkpt lat="44.72148" lon="5.4893">
        <ele>1736.76</ele>
        <time>2015-05-09T06:29:25Z</time>
      </trkpt>
      <trkpt lat="44.72144" lon="5.48932">
        <ele>1736.76</ele>
        <time>2015-05-09T06:29:29Z</time>
      </trkpt>
      <trkpt lat="44.72129" lon="5.48938">
        <ele>1736.28</ele>
        <time>2015-05-09T06:29:41Z</time>
      </trkpt>
      <trkpt lat="44.72119" lon="5.48942">
        <ele>1735.32</ele>
        <time>2015-05-09T06:29:49Z</time>
      </trkpt>
      <trkpt lat="44.72112" lon="5.48941">
        <ele>1734.36</ele>
        <time>2015-05-09T06:29:54Z</time>
      </trkpt>
      <trkpt lat="44.72111" lon="5.48941">
        <ele>1733.88</ele>
        <time>2015-05-09T06:29:58Z</time>
      </trkpt>
      <trkpt lat="44.72108" lon="5.48945">
        <ele>1734.84</ele>
        <time>2015-05-09T06:30:03Z</time>
      </trkpt>
      <trkpt lat="44.72106" lon="5.4895">
        <ele>1734.84</ele>
        <time>2015-05-09T06:30:18Z</time>
      </trkpt>
      <trkpt lat="44.72106" lon="5.4895">
        <ele>1734.36</ele>
        <time>2015-05-09T06:30:26Z</time>
      </trkpt>
      <trkpt lat="44.72109" lon="5.48954">
        <ele>1735.32</ele>
        <time>2015-05-09T06:30:31Z</time>
      </trkpt>
      <trkpt lat="44.72113" lon="5.48976">
        <ele>1733.88</ele>
        <time>2015-05-09T06:30:43Z</time>
      </trkpt>
      <trkpt lat="44.72114" lon="5.48985">
        <ele>1733.88</ele>
        <time>2015-05-09T06:30:48Z</time>
      </trkpt>
      <trkpt lat="44.72115" lon="5.48992">
        <ele>1733.88</ele>
        <time>2015-05-09T06:30:53Z</time>
      </trkpt>
      <trkpt lat="44.72119" lon="5.49004">
        <ele>1732.91</ele>
        <time>2015-05-09T06:31:01Z</time>
      </trkpt>
      <trkpt lat="44.72121" lon="5.4901">
        <ele>1731.95</ele>
        <time>2015-05-09T06:31:06Z</time>
      </trkpt>
      <trkpt lat="44.72123" lon="5.49022">
        <ele>1731.95</ele>
        <time>2015-05-09T06:31:13Z</time>
      </trkpt>
      <trkpt lat="44.72122" lon="5.49034">
        <ele>1731.47</ele>
        <time>2015-05-09T06:31:21Z</time>
      </trkpt>
      <trkpt lat="44.72119" lon="5.49045">
        <ele>1730.99</ele>
        <time>2015-05-09T06:31:29Z</time>
      </trkpt>
      <trkpt lat="44.72116" lon="5.49047">
        <ele>1731.47</ele>
        <time>2015-05-09T06:31:31Z</time>
      </trkpt>
      <trkpt lat="44.72107" lon="5.49057">
        <ele>1730.51</ele>
        <time>2015-05-09T06:31:41Z</time>
      </trkpt>
      <trkpt lat="44.72106" lon="5.4906">
        <ele>1730.51</ele>
        <time>2015-05-09T06:31:43Z</time>
      </trkpt>
      <trkpt lat="44.72102" lon="5.49066">
        <ele>1730.03</ele>
        <time>2015-05-09T06:31:48Z</time>
      </trkpt>
      <trkpt lat="44.72103" lon="5.49073">
        <ele>1730.03</ele>
        <time>2015-05-09T06:31:53Z</time>
      </trkpt>
      <trkpt lat="44.72105" lon="5.49077">
        <ele>1729.55</ele>
        <time>2015-05-09T06:31:56Z</time>
      </trkpt>
      <trkpt lat="44.72107" lon="5.49081">
        <ele>1729.55</ele>
        <time>2015-05-09T06:32:00Z</time>
      </trkpt>
      <trkpt lat="44.7211" lon="5.49082">
        <ele>1729.55</ele>
        <time>2015-05-09T06:32:03Z</time>
      </trkpt>
      <trkpt lat="44.72121" lon="5.49084">
        <ele>1729.07</ele>
        <time>2015-05-09T06:32:13Z</time>
      </trkpt>
      <trkpt lat="44.72124" lon="5.49092">
        <ele>1729.07</ele>
        <time>2015-05-09T06:32:19Z</time>
      </trkpt>
      <trkpt lat="44.72124" lon="5.49099">
        <ele>1728.59</ele>
        <time>2015-05-09T06:32:23Z</time>
      </trkpt>
      <trkpt lat="44.72117" lon="5.49114">
        <ele>1728.59</ele>
        <time>2015-05-09T06:32:37Z</time>
      </trkpt>
      <trkpt lat="44.72117" lon="5.49113">
        <ele>1728.11</ele>
        <time>2015-05-09T06:32:51Z</time>
      </trkpt>
      <trkpt lat="44.72115" lon="5.49114">
        <ele>1728.11</ele>
        <time>2015-05-09T06:32:54Z</time>
      </trkpt>
      <trkpt lat="44.72105" lon="5.49123">
        <ele>1728.11</ele>
        <time>2015-05-09T06:33:21Z</time>
      </trkpt>
      <trkpt lat="44.72111" lon="5.49114">
        <ele>1728.59</ele>
        <time>2015-05-09T06:33:37Z</time>
      </trkpt>
      <trkpt lat="44.72112" lon="5.49101">
        <ele>1727.63</ele>
        <time>2015-05-09T06:33:43Z</time>
      </trkpt>
      <trkpt lat="44.72112" lon="5.49097">
        <ele>1730.51</ele>
        <time>2015-05-09T06:33:45Z</time>
      </trkpt>
      <trkpt lat="44.72125" lon="5.49099">
        <ele>1728.59</ele>
        <time>2015-05-09T06:34:09Z</time>
      </trkpt>
      <trkpt lat="44.72125" lon="5.491">
        <ele>1728.59</ele>
        <time>2015-05-09T06:34:37Z</time>
      </trkpt>
      <trkpt lat="44.72124" lon="5.49103">
        <ele>1728.59</ele>
        <time>2015-05-09T06:34:56Z</time>
      </trkpt>
      <trkpt lat="44.72122" lon="5.49106">
        <ele>1728.59</ele>
        <time>2015-05-09T06:35:15Z</time>
      </trkpt>
      <trkpt lat="44.72122" lon="5.49106">
        <ele>1728.59</ele>
        <time>2015-05-09T06:35:35Z</time>
      </trkpt>
      <trkpt lat="44.72122" lon="5.49102">
        <ele>1728.59</ele>
        <time>2015-05-09T06:35:41Z</time>
      </trkpt>
      <trkpt lat="44.72114" lon="5.49111">
        <ele>1728.59</ele>
        <time>2015-05-09T06:35:55Z</time>
      </trkpt>
      <trkpt lat="44.72112" lon="5.49108">
        <ele>1728.59</ele>
        <time>2015-05-09T06:36:09Z</time>
      </trkpt>
      <trkpt lat="44.72104" lon="5.49108">
        <ele>1728.59</ele>
        <time>2015-05-09T06:36:29Z</time>
      </trkpt>
      <trkpt lat="44.72107" lon="5.49104">
        <ele>1727.63</ele>
        <time>2015-05-09T06:36:40Z</time>
      </trkpt>
      <trkpt lat="44.72107" lon="5.49104">
        <ele>1729.07</ele>
        <time>2015-05-09T06:36:41Z</time>
      </trkpt>
      <trkpt lat="44.72123" lon="5.49128">
        <ele>1726.67</ele>
        <time>2015-05-09T06:43:12Z</time>
      </trkpt>
      <trkpt lat="44.72122" lon="5.49129">
        <ele>1726.67</ele>
        <time>2015-05-09T06:43:13Z</time>
      </trkpt>
      <trkpt lat="44.72121" lon="5.49117">
        <ele>1726.67</ele>
        <time>2015-05-09T06:43:34Z</time>
      </trkpt>
      <trkpt lat="44.72078" lon="5.49066">
        <ele>1726.67</ele>
        <time>2015-05-09T06:46:36Z</time>
      </trkpt>
      <trkpt lat="44.7209" lon="5.49084">
        <ele>1725.7</ele>
        <time>2015-05-09T06:46:56Z</time>
      </trkpt>
      <trkpt lat="44.72105" lon="5.49095">
        <ele>1725.7</ele>
        <time>2015-05-09T06:47:26Z</time>
      </trkpt>
      <trkpt lat="44.72105" lon="5.4909">
        <ele>1726.67</ele>
        <time>2015-05-09T06:47:45Z</time>
      </trkpt>
      <trkpt lat="44.72103" lon="5.49086">
        <ele>1727.15</ele>
        <time>2015-05-09T06:47:48Z</time>
      </trkpt>
      <trkpt lat="44.72099" lon="5.49083">
        <ele>1727.15</ele>
        <time>2015-05-09T06:47:51Z</time>
      </trkpt>
      <trkpt lat="44.72103" lon="5.49084">
        <ele>1730.51</ele>
        <time>2015-05-09T06:47:57Z</time>
      </trkpt>
      <trkpt lat="44.72104" lon="5.49083">
        <ele>1733.39</ele>
        <time>2015-05-09T06:48:00Z</time>
      </trkpt>
      <trkpt lat="44.72104" lon="5.49083">
        <ele>1734.84</ele>
        <time>2015-05-09T06:48:01Z</time>
      </trkpt>
      <trkpt lat="44.72101" lon="5.49076">
        <ele>1738.68</ele>
        <time>2015-05-09T06:48:06Z</time>
      </trkpt>
      <trkpt lat="44.72101" lon="5.49071">
        <ele>1740.6</ele>
        <time>2015-05-09T06:48:09Z</time>
      </trkpt>
      <trkpt lat="44.72101" lon="5.49068">
        <ele>1742.05</ele>
        <time>2015-05-09T06:48:12Z</time>
      </trkpt>
      <trkpt lat="44.72102" lon="5.49067">
        <ele>1742.53</ele>
        <time>2015-05-09T06:48:13Z</time>
      </trkpt>
      <trkpt lat="44.72107" lon="5.49062">
        <ele>1745.41</ele>
        <time>2015-05-09T06:48:19Z</time>
      </trkpt>
      <trkpt lat="44.72113" lon="5.49057">
        <ele>1746.37</ele>
        <time>2015-05-09T06:48:25Z</time>
      </trkpt>
      <trkpt lat="44.72118" lon="5.49049">
        <ele>1747.33</ele>
        <time>2015-05-09T06:48:33Z</time>
      </trkpt>
      <trkpt lat="44.72122" lon="5.49033">
        <ele>1747.81</ele>
        <time>2015-05-09T06:48:43Z</time>
      </trkpt>
      <trkpt lat="44.72122" lon="5.49015">
        <ele>1749.26</ele>
        <time>2015-05-09T06:48:54Z</time>
      </trkpt>
      <trkpt lat="44.72121" lon="5.49014">
        <ele>1748.78</ele>
        <time>2015-05-09T06:48:55Z</time>
      </trkpt>
      <trkpt lat="44.72119" lon="5.49006">
        <ele>1749.26</ele>
        <time>2015-05-09T06:49:00Z</time>
      </trkpt>
      <trkpt lat="44.72118" lon="5.48999">
        <ele>1749.74</ele>
        <time>2015-05-09T06:49:04Z</time>
      </trkpt>
      <trkpt lat="44.72114" lon="5.48976">
        <ele>1750.7</ele>
        <time>2015-05-09T06:49:17Z</time>
      </trkpt>
      <trkpt lat="44.72113" lon="5.48973">
        <ele>1751.18</ele>
        <time>2015-05-09T06:49:19Z</time>
      </trkpt>
      <trkpt lat="44.72114" lon="5.48967">
        <ele>1751.18</ele>
        <time>2015-05-09T06:49:22Z</time>
      </trkpt>
      <trkpt lat="44.72111" lon="5.48952">
        <ele>1751.66</ele>
        <time>2015-05-09T06:49:31Z</time>
      </trkpt>
      <trkpt lat="44.72108" lon="5.48939">
        <ele>1748.78</ele>
        <time>2015-05-09T06:49:40Z</time>
      </trkpt>
      <trkpt lat="44.72102" lon="5.48934">
        <ele>1747.33</ele>
        <time>2015-05-09T06:49:45Z</time>
      </trkpt>
      <trkpt lat="44.721" lon="5.48928">
        <ele>1745.41</ele>
        <time>2015-05-09T06:49:50Z</time>
      </trkpt>
      <trkpt lat="44.72104" lon="5.48925">
        <ele>1744.45</ele>
        <time>2015-05-09T06:49:53Z</time>
      </trkpt>
      <trkpt lat="44.72116" lon="5.48921">
        <ele>1741.57</ele>
        <time>2015-05-09T06:50:06Z</time>
      </trkpt>
      <trkpt lat="44.72117" lon="5.4892">
        <ele>1741.08</ele>
        <time>2015-05-09T06:50:07Z</time>
      </trkpt>
      <trkpt lat="44.72133" lon="5.4891">
        <ele>1738.68</ele>
        <time>2015-05-09T06:50:18Z</time>
      </trkpt>
      <trkpt lat="44.72128" lon="5.48903">
        <ele>1735.8</ele>
        <time>2015-05-09T06:50:29Z</time>
      </trkpt>
      <trkpt lat="44.72118" lon="5.489">
        <ele>1732.43</ele>
        <time>2015-05-09T06:50:38Z</time>
      </trkpt>
      <trkpt lat="44.72105" lon="5.48899">
        <ele>1729.55</ele>
        <time>2015-05-09T06:50:49Z</time>
      </trkpt>
      <trkpt lat="44.72104" lon="5.48898">
        <ele>1729.07</ele>
        <time>2015-05-09T06:50:50Z</time>
      </trkpt>
      <trkpt lat="44.721" lon="5.48896">
        <ele>1727.63</ele>
        <time>2015-05-09T06:50:55Z</time>
      </trkpt>
      <trkpt lat="44.72094" lon="5.48894">
        <ele>1725.7</ele>
        <time>2015-05-09T06:51:00Z</time>
      </trkpt>
      <trkpt lat="44.72084" lon="5.48891">
        <ele>1723.78</ele>
        <time>2015-05-09T06:51:08Z</time>
      </trkpt>
      <trkpt lat="44.72079" lon="5.48888">
        <ele>1721.86</ele>
        <time>2015-05-09T06:51:15Z</time>
      </trkpt>
      <trkpt lat="44.72089" lon="5.48883">
        <ele>1718.49</ele>
        <time>2015-05-09T06:51:25Z</time>
      </trkpt>
      <trkpt lat="44.72092" lon="5.48882">
        <ele>1717.53</ele>
        <time>2015-05-09T06:51:28Z</time>
      </trkpt>
      <trkpt lat="44.72091" lon="5.48875">
        <ele>1714.65</ele>
        <time>2015-05-09T06:51:37Z</time>
      </trkpt>
      <trkpt lat="44.72082" lon="5.48873">
        <ele>1712.73</ele>
        <time>2015-05-09T06:51:44Z</time>
      </trkpt>
      <trkpt lat="44.72078" lon="5.48871">
        <ele>1711.76</ele>
        <time>2015-05-09T06:51:47Z</time>
      </trkpt>
      <trkpt lat="44.72073" lon="5.48867">
        <ele>1709.36</ele>
        <time>2015-05-09T06:51:53Z</time>
      </trkpt>
      <trkpt lat="44.7207" lon="5.48865">
        <ele>1708.88</ele>
        <time>2015-05-09T06:51:55Z</time>
      </trkpt>
      <trkpt lat="44.72068" lon="5.48861">
        <ele>1706.96</ele>
        <time>2015-05-09T06:52:01Z</time>
      </trkpt>
      <trkpt lat="44.72078" lon="5.48856">
        <ele>1703.59</ele>
        <time>2015-05-09T06:52:13Z</time>
      </trkpt>
      <trkpt lat="44.72078" lon="5.48856">
        <ele>1703.11</ele>
        <time>2015-05-09T06:52:14Z</time>
      </trkpt>
      <trkpt lat="44.72076" lon="5.48856">
        <ele>1702.63</ele>
        <time>2015-05-09T06:52:16Z</time>
      </trkpt>
      <trkpt lat="44.7207" lon="5.48852">
        <ele>1701.67</ele>
        <time>2015-05-09T06:52:20Z</time>
      </trkpt>
      <trkpt lat="44.72066" lon="5.48852">
        <ele>1700.23</ele>
        <time>2015-05-09T06:52:25Z</time>
      </trkpt>
      <trkpt lat="44.72063" lon="5.48849">
        <ele>1699.27</ele>
        <time>2015-05-09T06:52:28Z</time>
      </trkpt>
      <trkpt lat="44.72057" lon="5.48846">
        <ele>1697.34</ele>
        <time>2015-05-09T06:52:34Z</time>
      </trkpt>
      <trkpt lat="44.72051" lon="5.48842">
        <ele>1695.9</ele>
        <time>2015-05-09T06:52:39Z</time>
      </trkpt>
      <trkpt lat="44.72038" lon="5.48836">
        <ele>1692.54</ele>
        <time>2015-05-09T06:52:50Z</time>
      </trkpt>
      <trkpt lat="44.72045" lon="5.4883">
        <ele>1690.14</ele>
        <time>2015-05-09T06:53:00Z</time>
      </trkpt>
      <trkpt lat="44.72045" lon="5.48825">
        <ele>1688.21</ele>
        <time>2015-05-09T06:53:06Z</time>
      </trkpt>
      <trkpt lat="44.72037" lon="5.48823">
        <ele>1686.29</ele>
        <time>2015-05-09T06:53:13Z</time>
      </trkpt>
      <trkpt lat="44.72037" lon="5.48813">
        <ele>1683.41</ele>
        <time>2015-05-09T06:53:25Z</time>
      </trkpt>
      <trkpt lat="44.72048" lon="5.4881">
        <ele>1681</ele>
        <time>2015-05-09T06:53:34Z</time>
      </trkpt>
      <trkpt lat="44.72069" lon="5.48805">
        <ele>1677.64</ele>
        <time>2015-05-09T06:53:49Z</time>
      </trkpt>
      <trkpt lat="44.7208" lon="5.48799">
        <ele>1674.27</ele>
        <time>2015-05-09T06:53:58Z</time>
      </trkpt>
      <trkpt lat="44.72093" lon="5.48793">
        <ele>1671.39</ele>
        <time>2015-05-09T06:54:11Z</time>
      </trkpt>
      <trkpt lat="44.72095" lon="5.48791">
        <ele>1671.39</ele>
        <time>2015-05-09T06:54:14Z</time>
      </trkpt>
      <trkpt lat="44.72088" lon="5.48784">
        <ele>1668.51</ele>
        <time>2015-05-09T06:54:24Z</time>
      </trkpt>
      <trkpt lat="44.72086" lon="5.48783">
        <ele>1668.02</ele>
        <time>2015-05-09T06:54:26Z</time>
      </trkpt>
      <trkpt lat="44.72082" lon="5.48779">
        <ele>1664.66</ele>
        <time>2015-05-09T06:54:35Z</time>
      </trkpt>
      <trkpt lat="44.72089" lon="5.48775">
        <ele>1660.81</ele>
        <time>2015-05-09T06:54:45Z</time>
      </trkpt>
      <trkpt lat="44.72089" lon="5.48773">
        <ele>1659.85</ele>
        <time>2015-05-09T06:54:47Z</time>
      </trkpt>
      <trkpt lat="44.72091" lon="5.48771">
        <ele>1659.37</ele>
        <time>2015-05-09T06:54:49Z</time>
      </trkpt>
      <trkpt lat="44.72094" lon="5.48769">
        <ele>1656.97</ele>
        <time>2015-05-09T06:54:55Z</time>
      </trkpt>
      <trkpt lat="44.72101" lon="5.48766">
        <ele>1655.05</ele>
        <time>2015-05-09T06:55:02Z</time>
      </trkpt>
      <trkpt lat="44.72099" lon="5.48761">
        <ele>1653.12</ele>
        <time>2015-05-09T06:55:07Z</time>
      </trkpt>
      <trkpt lat="44.72102" lon="5.48757">
        <ele>1651.68</ele>
        <time>2015-05-09T06:55:11Z</time>
      </trkpt>
      <trkpt lat="44.72106" lon="5.48751">
        <ele>1650.24</ele>
        <time>2015-05-09T06:55:16Z</time>
      </trkpt>
      <trkpt lat="44.72101" lon="5.48744">
        <ele>1647.84</ele>
        <time>2015-05-09T06:55:24Z</time>
      </trkpt>
      <trkpt lat="44.72096" lon="5.4874">
        <ele>1645.43</ele>
        <time>2015-05-09T06:55:30Z</time>
      </trkpt>
      <trkpt lat="44.72108" lon="5.48733">
        <ele>1642.07</ele>
        <time>2015-05-09T06:55:43Z</time>
      </trkpt>
      <trkpt lat="44.72109" lon="5.48731">
        <ele>1641.11</ele>
        <time>2015-05-09T06:55:45Z</time>
      </trkpt>
      <trkpt lat="44.72101" lon="5.48727">
        <ele>1638.7</ele>
        <time>2015-05-09T06:55:55Z</time>
      </trkpt>
      <trkpt lat="44.72099" lon="5.48726">
        <ele>1638.22</ele>
        <time>2015-05-09T06:55:57Z</time>
      </trkpt>
      <trkpt lat="44.72097" lon="5.48725">
        <ele>1637.26</ele>
        <time>2015-05-09T06:55:59Z</time>
      </trkpt>
      <trkpt lat="44.72094" lon="5.48725">
        <ele>1636.3</ele>
        <time>2015-05-09T06:56:01Z</time>
      </trkpt>
      <trkpt lat="44.72089" lon="5.48721">
        <ele>1634.38</ele>
        <time>2015-05-09T06:56:07Z</time>
      </trkpt>
      <trkpt lat="44.7209" lon="5.48716">
        <ele>1631.98</ele>
        <time>2015-05-09T06:56:19Z</time>
      </trkpt>
      <trkpt lat="44.7209" lon="5.48716">
        <ele>1626.69</ele>
        <time>2015-05-09T06:56:28Z</time>
      </trkpt>
      <trkpt lat="44.7209" lon="5.48716">
        <ele>1627.65</ele>
        <time>2015-05-09T06:56:29Z</time>
      </trkpt>
      <trkpt lat="44.7209" lon="5.48716">
        <ele>1639.19</ele>
        <time>2015-05-09T06:56:30Z</time>
      </trkpt>
      <trkpt lat="44.7209" lon="5.48716">
        <ele>1630.05</ele>
        <time>2015-05-09T06:56:31Z</time>
      </trkpt>
      <trkpt lat="44.7209" lon="5.48716">
        <ele>1634.38</ele>
        <time>2015-05-09T06:56:32Z</time>
      </trkpt>
      <trkpt lat="44.7209" lon="5.48716">
        <ele>1625.73</ele>
        <time>2015-05-09T06:56:33Z</time>
      </trkpt>
      <trkpt lat="44.7209" lon="5.48716">
        <ele>1638.22</ele>
        <time>2015-05-09T06:56:34Z</time>
      </trkpt>
      <trkpt lat="44.7209" lon="5.48716">
        <ele>1631.98</ele>
        <time>2015-05-09T06:56:35Z</time>
      </trkpt>
      <trkpt lat="44.72091" lon="5.48716">
        <ele>1631.49</ele>
        <time>2015-05-09T06:56:55Z</time>
      </trkpt>
      <trkpt lat="44.72096" lon="5.48711">
        <ele>1628.61</ele>
        <time>2015-05-09T06:57:24Z</time>
      </trkpt>
      <trkpt lat="44.72104" lon="5.487">
        <ele>1625.25</ele>
        <time>2015-05-09T06:57:33Z</time>
      </trkpt>
      <trkpt lat="44.72105" lon="5.48696">
        <ele>1623.8</ele>
        <time>2015-05-09T06:57:35Z</time>
      </trkpt>
      <trkpt lat="44.7211" lon="5.48678">
        <ele>1619.96</ele>
        <time>2015-05-09T06:57:46Z</time>
      </trkpt>
      <trkpt lat="44.72116" lon="5.48669">
        <ele>1617.07</ele>
        <time>2015-05-09T06:57:56Z</time>
      </trkpt>
      <trkpt lat="44.72119" lon="5.48666">
        <ele>1615.63</ele>
        <time>2015-05-09T06:57:59Z</time>
      </trkpt>
      <trkpt lat="44.7213" lon="5.48651">
        <ele>1612.27</ele>
        <time>2015-05-09T06:58:10Z</time>
      </trkpt>
      <trkpt lat="44.72146" lon="5.48637">
        <ele>1608.42</ele>
        <time>2015-05-09T06:58:24Z</time>
      </trkpt>
      <trkpt lat="44.72149" lon="5.48634">
        <ele>1607.46</ele>
        <time>2015-05-09T06:58:27Z</time>
      </trkpt>
      <trkpt lat="44.72154" lon="5.48629">
        <ele>1606.5</ele>
        <time>2015-05-09T06:58:32Z</time>
      </trkpt>
      <trkpt lat="44.72163" lon="5.48616">
        <ele>1602.66</ele>
        <time>2015-05-09T06:58:41Z</time>
      </trkpt>
      <trkpt lat="44.72164" lon="5.48608">
        <ele>1600.73</ele>
        <time>2015-05-09T06:58:47Z</time>
      </trkpt>
      <trkpt lat="44.72166" lon="5.48601">
        <ele>1598.33</ele>
        <time>2015-05-09T06:58:52Z</time>
      </trkpt>
      <trkpt lat="44.72171" lon="5.48591">
        <ele>1594.96</ele>
        <time>2015-05-09T06:59:02Z</time>
      </trkpt>
      <trkpt lat="44.72176" lon="5.48577">
        <ele>1591.6</ele>
        <time>2015-05-09T06:59:12Z</time>
      </trkpt>
      <trkpt lat="44.72174" lon="5.48571">
        <ele>1588.72</ele>
        <time>2015-05-09T06:59:20Z</time>
      </trkpt>
      <trkpt lat="44.72177" lon="5.48562">
        <ele>1585.35</ele>
        <time>2015-05-09T06:59:29Z</time>
      </trkpt>
      <trkpt lat="44.72174" lon="5.48557">
        <ele>1584.87</ele>
        <time>2015-05-09T06:59:32Z</time>
      </trkpt>
      <trkpt lat="44.72169" lon="5.48562">
        <ele>1583.91</ele>
        <time>2015-05-09T06:59:37Z</time>
      </trkpt>
      <trkpt lat="44.7217" lon="5.48554">
        <ele>1581.03</ele>
        <time>2015-05-09T06:59:49Z</time>
      </trkpt>
      <trkpt lat="44.72175" lon="5.48544">
        <ele>1577.66</ele>
        <time>2015-05-09T06:59:58Z</time>
      </trkpt>
      <trkpt lat="44.72185" lon="5.48533">
        <ele>1574.3</ele>
        <time>2015-05-09T07:00:08Z</time>
      </trkpt>
      <trkpt lat="44.72187" lon="5.48522">
        <ele>1571.41</ele>
        <time>2015-05-09T07:00:18Z</time>
      </trkpt>
      <trkpt lat="44.72186" lon="5.48522">
        <ele>1570.93</ele>
        <time>2015-05-09T07:00:19Z</time>
      </trkpt>
      <trkpt lat="44.72185" lon="5.48523">
        <ele>1570.45</ele>
        <time>2015-05-09T07:00:21Z</time>
      </trkpt>
      <trkpt lat="44.72182" lon="5.48519">
        <ele>1569.01</ele>
        <time>2015-05-09T07:00:25Z</time>
      </trkpt>
      <trkpt lat="44.72184" lon="5.48509">
        <ele>1566.12</ele>
        <time>2015-05-09T07:00:34Z</time>
      </trkpt>
      <trkpt lat="44.72178" lon="5.48508">
        <ele>1563.24</ele>
        <time>2015-05-09T07:00:44Z</time>
      </trkpt>
      <trkpt lat="44.72175" lon="5.48507">
        <ele>1562.28</ele>
        <time>2015-05-09T07:00:47Z</time>
      </trkpt>
      <trkpt lat="44.72163" lon="5.48507">
        <ele>1558.92</ele>
        <time>2015-05-09T07:00:58Z</time>
      </trkpt>
      <trkpt lat="44.72155" lon="5.48506">
        <ele>1556.51</ele>
        <time>2015-05-09T07:01:06Z</time>
      </trkpt>
      <trkpt lat="44.72147" lon="5.485">
        <ele>1553.15</ele>
        <time>2015-05-09T07:01:17Z</time>
      </trkpt>
      <trkpt lat="44.72144" lon="5.48499">
        <ele>1551.22</ele>
        <time>2015-05-09T07:01:21Z</time>
      </trkpt>
      <trkpt lat="44.72136" lon="5.485">
        <ele>1548.34</ele>
        <time>2015-05-09T07:01:30Z</time>
      </trkpt>
      <trkpt lat="44.72134" lon="5.48499">
        <ele>1547.86</ele>
        <time>2015-05-09T07:01:32Z</time>
      </trkpt>
      <trkpt lat="44.72126" lon="5.48499">
        <ele>1544.5</ele>
        <time>2015-05-09T07:01:42Z</time>
      </trkpt>
      <trkpt lat="44.72127" lon="5.48491">
        <ele>1541.13</ele>
        <time>2015-05-09T07:01:52Z</time>
      </trkpt>
      <trkpt lat="44.72119" lon="5.48485">
        <ele>1537.77</ele>
        <time>2015-05-09T07:02:02Z</time>
      </trkpt>
      <trkpt lat="44.72113" lon="5.48486">
        <ele>1534.88</ele>
        <time>2015-05-09T07:02:13Z</time>
      </trkpt>
      <trkpt lat="44.72101" lon="5.48491">
        <ele>1531.52</ele>
        <time>2015-05-09T07:02:25Z</time>
      </trkpt>
      <trkpt lat="44.72093" lon="5.48491">
        <ele>1528.63</ele>
        <time>2015-05-09T07:02:33Z</time>
      </trkpt>
      <trkpt lat="44.7209" lon="5.4849">
        <ele>1527.67</ele>
        <time>2015-05-09T07:02:36Z</time>
      </trkpt>
      <trkpt lat="44.7209" lon="5.48484">
        <ele>1523.83</ele>
        <time>2015-05-09T07:02:47Z</time>
      </trkpt>
      <trkpt lat="44.72092" lon="5.48475">
        <ele>1520.94</ele>
        <time>2015-05-09T07:02:56Z</time>
      </trkpt>
      <trkpt lat="44.72093" lon="5.48473">
        <ele>1520.94</ele>
        <time>2015-05-09T07:03:09Z</time>
      </trkpt>
      <trkpt lat="44.72093" lon="5.48473">
        <ele>1524.79</ele>
        <time>2015-05-09T07:03:20Z</time>
      </trkpt>
      <trkpt lat="44.72093" lon="5.48473">
        <ele>1521.42</ele>
        <time>2015-05-09T07:03:21Z</time>
      </trkpt>
      <trkpt lat="44.72093" lon="5.48472">
        <ele>1520.46</ele>
        <time>2015-05-09T07:03:42Z</time>
      </trkpt>
      <trkpt lat="44.72093" lon="5.48472">
        <ele>1520.46</ele>
        <time>2015-05-09T07:04:13Z</time>
      </trkpt>
      <trkpt lat="44.72093" lon="5.48472">
        <ele>1520.46</ele>
        <time>2015-05-09T07:04:46Z</time>
      </trkpt>
      <trkpt lat="44.72093" lon="5.48472">
        <ele>1519.98</ele>
        <time>2015-05-09T07:05:16Z</time>
      </trkpt>
      <trkpt lat="44.72093" lon="5.48472">
        <ele>1520.46</ele>
        <time>2015-05-09T07:05:47Z</time>
      </trkpt>
      <trkpt lat="44.72085" lon="5.48467">
        <ele>1518.06</ele>
        <time>2015-05-09T07:06:06Z</time>
      </trkpt>
      <trkpt lat="44.72084" lon="5.48467">
        <ele>1517.58</ele>
        <time>2015-05-09T07:06:07Z</time>
      </trkpt>
      <trkpt lat="44.7207" lon="5.48473">
        <ele>1514.69</ele>
        <time>2015-05-09T07:06:17Z</time>
      </trkpt>
      <trkpt lat="44.72064" lon="5.48475">
        <ele>1513.73</ele>
        <time>2015-05-09T07:06:22Z</time>
      </trkpt>
      <trkpt lat="44.72056" lon="5.48475">
        <ele>1509.89</ele>
        <time>2015-05-09T07:06:33Z</time>
      </trkpt>
      <trkpt lat="44.72059" lon="5.48469">
        <ele>1507.48</ele>
        <time>2015-05-09T07:06:40Z</time>
      </trkpt>
      <trkpt lat="44.72057" lon="5.48467">
        <ele>1506.52</ele>
        <time>2015-05-09T07:06:43Z</time>
      </trkpt>
      <trkpt lat="44.72054" lon="5.48466">
        <ele>1504.6</ele>
        <time>2015-05-09T07:06:46Z</time>
      </trkpt>
      <trkpt lat="44.7205" lon="5.48463">
        <ele>1502.68</ele>
        <time>2015-05-09T07:06:50Z</time>
      </trkpt>
      <trkpt lat="44.72049" lon="5.48463">
        <ele>1502.2</ele>
        <time>2015-05-09T07:06:51Z</time>
      </trkpt>
      <trkpt lat="44.72046" lon="5.48462">
        <ele>1501.72</ele>
        <time>2015-05-09T07:06:53Z</time>
      </trkpt>
      <trkpt lat="44.72035" lon="5.48464">
        <ele>1498.35</ele>
        <time>2015-05-09T07:07:03Z</time>
      </trkpt>
      <trkpt lat="44.72026" lon="5.48467">
        <ele>1496.91</ele>
        <time>2015-05-09T07:07:12Z</time>
      </trkpt>
      <trkpt lat="44.72012" lon="5.4847">
        <ele>1493.55</ele>
        <time>2015-05-09T07:07:23Z</time>
      </trkpt>
      <trkpt lat="44.72004" lon="5.48476">
        <ele>1491.14</ele>
        <time>2015-05-09T07:07:30Z</time>
      </trkpt>
      <trkpt lat="44.72001" lon="5.48478">
        <ele>1490.18</ele>
        <time>2015-05-09T07:07:32Z</time>
      </trkpt>
      <trkpt lat="44.71988" lon="5.4849">
        <ele>1486.82</ele>
        <time>2015-05-09T07:07:44Z</time>
      </trkpt>
      <trkpt lat="44.71975" lon="5.48492">
        <ele>1483.45</ele>
        <time>2015-05-09T07:07:55Z</time>
      </trkpt>
      <trkpt lat="44.7197" lon="5.48491">
        <ele>1481.05</ele>
        <time>2015-05-09T07:08:01Z</time>
      </trkpt>
      <trkpt lat="44.71966" lon="5.48488">
        <ele>1480.09</ele>
        <time>2015-05-09T07:08:04Z</time>
      </trkpt>
      <trkpt lat="44.71961" lon="5.48488">
        <ele>1477.68</ele>
        <time>2015-05-09T07:08:10Z</time>
      </trkpt>
      <trkpt lat="44.71953" lon="5.485">
        <ele>1474.32</ele>
        <time>2015-05-09T07:08:25Z</time>
      </trkpt>
      <trkpt lat="44.71947" lon="5.48503">
        <ele>1470.95</ele>
        <time>2015-05-09T07:08:35Z</time>
      </trkpt>
      <trkpt lat="44.71944" lon="5.48494">
        <ele>1468.07</ele>
        <time>2015-05-09T07:08:44Z</time>
      </trkpt>
      <trkpt lat="44.71945" lon="5.48491">
        <ele>1466.63</ele>
        <time>2015-05-09T07:08:47Z</time>
      </trkpt>
      <trkpt lat="44.71944" lon="5.48488">
        <ele>1465.67</ele>
        <time>2015-05-09T07:08:50Z</time>
      </trkpt>
      <trkpt lat="44.7194" lon="5.48486">
        <ele>1463.74</ele>
        <time>2015-05-09T07:08:56Z</time>
      </trkpt>
      <trkpt lat="44.71937" lon="5.4849">
        <ele>1462.78</ele>
        <time>2015-05-09T07:09:00Z</time>
      </trkpt>
      <trkpt lat="44.71929" lon="5.48495">
        <ele>1459.42</ele>
        <time>2015-05-09T07:09:10Z</time>
      </trkpt>
      <trkpt lat="44.71928" lon="5.48482">
        <ele>1456.05</ele>
        <time>2015-05-09T07:09:21Z</time>
      </trkpt>
      <trkpt lat="44.71925" lon="5.4847">
        <ele>1452.69</ele>
        <time>2015-05-09T07:09:32Z</time>
      </trkpt>
      <trkpt lat="44.71921" lon="5.48462">
        <ele>1450.29</ele>
        <time>2015-05-09T07:09:39Z</time>
      </trkpt>
      <trkpt lat="44.71915" lon="5.48445">
        <ele>1446.44</ele>
        <time>2015-05-09T07:09:51Z</time>
      </trkpt>
      <trkpt lat="44.71907" lon="5.48451">
        <ele>1443.56</ele>
        <time>2015-05-09T07:10:02Z</time>
      </trkpt>
      <trkpt lat="44.71901" lon="5.48439">
        <ele>1440.67</ele>
        <time>2015-05-09T07:10:13Z</time>
      </trkpt>
      <trkpt lat="44.71901" lon="5.48437">
        <ele>1440.19</ele>
        <time>2015-05-09T07:10:14Z</time>
      </trkpt>
      <trkpt lat="44.719" lon="5.48425">
        <ele>1438.27</ele>
        <time>2015-05-09T07:10:21Z</time>
      </trkpt>
      <trkpt lat="44.719" lon="5.48419">
        <ele>1436.35</ele>
        <time>2015-05-09T07:10:26Z</time>
      </trkpt>
      <trkpt lat="44.719" lon="5.48417">
        <ele>1435.87</ele>
        <time>2015-05-09T07:10:28Z</time>
      </trkpt>
      <trkpt lat="44.71895" lon="5.48417">
        <ele>1433.94</ele>
        <time>2015-05-09T07:10:35Z</time>
      </trkpt>
      <trkpt lat="44.71894" lon="5.48409">
        <ele>1432.98</ele>
        <time>2015-05-09T07:10:40Z</time>
      </trkpt>
      <trkpt lat="44.71887" lon="5.48406">
        <ele>1431.06</ele>
        <time>2015-05-09T07:10:46Z</time>
      </trkpt>
      <trkpt lat="44.71885" lon="5.48408">
        <ele>1430.1</ele>
        <time>2015-05-09T07:10:49Z</time>
      </trkpt>
      <trkpt lat="44.71883" lon="5.48405">
        <ele>1428.66</ele>
        <time>2015-05-09T07:10:53Z</time>
      </trkpt>
      <trkpt lat="44.71886" lon="5.48391">
        <ele>1425.77</ele>
        <time>2015-05-09T07:11:05Z</time>
      </trkpt>
      <trkpt lat="44.71885" lon="5.48384">
        <ele>1422.41</ele>
        <time>2015-05-09T07:11:16Z</time>
      </trkpt>
      <trkpt lat="44.71882" lon="5.48384">
        <ele>1420.97</ele>
        <time>2015-05-09T07:11:21Z</time>
      </trkpt>
      <trkpt lat="44.71877" lon="5.4838">
        <ele>1419.04</ele>
        <time>2015-05-09T07:11:28Z</time>
      </trkpt>
      <trkpt lat="44.71872" lon="5.48378">
        <ele>1417.12</ele>
        <time>2015-05-09T07:11:35Z</time>
      </trkpt>
      <trkpt lat="44.71866" lon="5.48379">
        <ele>1415.2</ele>
        <time>2015-05-09T07:11:40Z</time>
      </trkpt>
      <trkpt lat="44.71862" lon="5.48379">
        <ele>1413.76</ele>
        <time>2015-05-09T07:11:45Z</time>
      </trkpt>
      <trkpt lat="44.71859" lon="5.48376">
        <ele>1411.83</ele>
        <time>2015-05-09T07:11:52Z</time>
      </trkpt>
      <trkpt lat="44.7186" lon="5.48374">
        <ele>1411.35</ele>
        <time>2015-05-09T07:11:54Z</time>
      </trkpt>
      <trkpt lat="44.7186" lon="5.48369">
        <ele>1410.39</ele>
        <time>2015-05-09T07:11:58Z</time>
      </trkpt>
      <trkpt lat="44.71862" lon="5.48364">
        <ele>1409.43</ele>
        <time>2015-05-09T07:12:01Z</time>
      </trkpt>
      <trkpt lat="44.71864" lon="5.48354">
        <ele>1406.07</ele>
        <time>2015-05-09T07:12:13Z</time>
      </trkpt>
      <trkpt lat="44.71855" lon="5.48353">
        <ele>1403.18</ele>
        <time>2015-05-09T07:12:22Z</time>
      </trkpt>
      <trkpt lat="44.71853" lon="5.48353">
        <ele>1402.7</ele>
        <time>2015-05-09T07:12:24Z</time>
      </trkpt>
      <trkpt lat="44.71848" lon="5.48354">
        <ele>1400.3</ele>
        <time>2015-05-09T07:12:29Z</time>
      </trkpt>
      <trkpt lat="44.7184" lon="5.48357">
        <ele>1397.89</ele>
        <time>2015-05-09T07:12:37Z</time>
      </trkpt>
      <trkpt lat="44.71834" lon="5.48356">
        <ele>1395.97</ele>
        <time>2015-05-09T07:12:44Z</time>
      </trkpt>
      <trkpt lat="44.71831" lon="5.48358">
        <ele>1395.01</ele>
        <time>2015-05-09T07:12:47Z</time>
      </trkpt>
      <trkpt lat="44.71825" lon="5.48363">
        <ele>1393.09</ele>
        <time>2015-05-09T07:12:53Z</time>
      </trkpt>
      <trkpt lat="44.7182" lon="5.48375">
        <ele>1389.72</ele>
        <time>2015-05-09T07:13:04Z</time>
      </trkpt>
      <trkpt lat="44.71821" lon="5.48388">
        <ele>1387.8</ele>
        <time>2015-05-09T07:13:11Z</time>
      </trkpt>
      <trkpt lat="44.71821" lon="5.48405">
        <ele>1384.92</ele>
        <time>2015-05-09T07:13:23Z</time>
      </trkpt>
      <trkpt lat="44.7182" lon="5.48412">
        <ele>1383.96</ele>
        <time>2015-05-09T07:13:27Z</time>
      </trkpt>
      <trkpt lat="44.71819" lon="5.48434">
        <ele>1380.11</ele>
        <time>2015-05-09T07:13:39Z</time>
      </trkpt>
      <trkpt lat="44.71818" lon="5.48442">
        <ele>1377.71</ele>
        <time>2015-05-09T07:13:51Z</time>
      </trkpt>
      <trkpt lat="44.71818" lon="5.48443">
        <ele>1377.71</ele>
        <time>2015-05-09T07:14:10Z</time>
      </trkpt>
      <trkpt lat="44.71817" lon="5.48443">
        <ele>1377.71</ele>
        <time>2015-05-09T07:14:43Z</time>
      </trkpt>
      <trkpt lat="44.71817" lon="5.48443">
        <ele>1377.71</ele>
        <time>2015-05-09T07:15:11Z</time>
      </trkpt>
      <trkpt lat="44.71817" lon="5.48445">
        <ele>1377.23</ele>
        <time>2015-05-09T07:15:38Z</time>
      </trkpt>
      <trkpt lat="44.71818" lon="5.48445">
        <ele>1377.23</ele>
        <time>2015-05-09T07:15:57Z</time>
      </trkpt>
      <trkpt lat="44.71817" lon="5.48446">
        <ele>1377.71</ele>
        <time>2015-05-09T07:16:14Z</time>
      </trkpt>
      <trkpt lat="44.71817" lon="5.48446">
        <ele>1377.23</ele>
        <time>2015-05-09T07:16:41Z</time>
      </trkpt>
      <trkpt lat="44.71816" lon="5.48446">
        <ele>1377.23</ele>
        <time>2015-05-09T07:17:00Z</time>
      </trkpt>
      <trkpt lat="44.71813" lon="5.48462">
        <ele>1374.34</ele>
        <time>2015-05-09T07:17:18Z</time>
      </trkpt>
      <trkpt lat="44.71812" lon="5.48478">
        <ele>1371.46</ele>
        <time>2015-05-09T07:17:28Z</time>
      </trkpt>
      <trkpt lat="44.71811" lon="5.48483">
        <ele>1370.5</ele>
        <time>2015-05-09T07:17:30Z</time>
      </trkpt>
      <trkpt lat="44.71807" lon="5.48501">
        <ele>1367.61</ele>
        <time>2015-05-09T07:17:40Z</time>
      </trkpt>
      <trkpt lat="44.71807" lon="5.48505">
        <ele>1367.13</ele>
        <time>2015-05-09T07:17:43Z</time>
      </trkpt>
      <trkpt lat="44.71801" lon="5.4852">
        <ele>1364.25</ele>
        <time>2015-05-09T07:17:54Z</time>
      </trkpt>
      <trkpt lat="44.71799" lon="5.48524">
        <ele>1363.29</ele>
        <time>2015-05-09T07:17:57Z</time>
      </trkpt>
      <trkpt lat="44.71794" lon="5.48546">
        <ele>1360.88</ele>
        <time>2015-05-09T07:18:10Z</time>
      </trkpt>
      <trkpt lat="44.71793" lon="5.48548">
        <ele>1360.4</ele>
        <time>2015-05-09T07:18:11Z</time>
      </trkpt>
      <trkpt lat="44.71791" lon="5.48552">
        <ele>1359.92</ele>
        <time>2015-05-09T07:18:14Z</time>
      </trkpt>
      <trkpt lat="44.71789" lon="5.48562">
        <ele>1358.96</ele>
        <time>2015-05-09T07:18:20Z</time>
      </trkpt>
      <trkpt lat="44.7179" lon="5.48558">
        <ele>1359.44</ele>
        <time>2015-05-09T07:18:34Z</time>
      </trkpt>
      <trkpt lat="44.7179" lon="5.48559">
        <ele>1359.44</ele>
        <time>2015-05-09T07:18:56Z</time>
      </trkpt>
      <trkpt lat="44.71785" lon="5.48575">
        <ele>1357.04</ele>
        <time>2015-05-09T07:19:09Z</time>
      </trkpt>
      <trkpt lat="44.7178" lon="5.4859">
        <ele>1353.67</ele>
        <time>2015-05-09T07:19:19Z</time>
      </trkpt>
      <trkpt lat="44.71781" lon="5.48585">
        <ele>1350.79</ele>
        <time>2015-05-09T07:19:30Z</time>
      </trkpt>
      <trkpt lat="44.71781" lon="5.48583">
        <ele>1350.31</ele>
        <time>2015-05-09T07:19:31Z</time>
      </trkpt>
      <trkpt lat="44.71779" lon="5.48581">
        <ele>1348.39</ele>
        <time>2015-05-09T07:19:35Z</time>
      </trkpt>
      <trkpt lat="44.71776" lon="5.48583">
        <ele>1347.43</ele>
        <time>2015-05-09T07:19:39Z</time>
      </trkpt>
      <trkpt lat="44.7177" lon="5.48574">
        <ele>1343.58</ele>
        <time>2015-05-09T07:19:50Z</time>
      </trkpt>
      <trkpt lat="44.71769" lon="5.48572">
        <ele>1343.1</ele>
        <time>2015-05-09T07:19:53Z</time>
      </trkpt>
      <trkpt lat="44.71768" lon="5.48566">
        <ele>1341.66</ele>
        <time>2015-05-09T07:19:57Z</time>
      </trkpt>
      <trkpt lat="44.7176" lon="5.48575">
        <ele>1337.81</ele>
        <time>2015-05-09T07:20:08Z</time>
      </trkpt>
      <trkpt lat="44.71753" lon="5.48582">
        <ele>1334.45</ele>
        <time>2015-05-09T07:20:18Z</time>
      </trkpt>
      <trkpt lat="44.71754" lon="5.48572">
        <ele>1332.04</ele>
        <time>2015-05-09T07:20:25Z</time>
      </trkpt>
      <trkpt lat="44.71751" lon="5.48558">
        <ele>1329.64</ele>
        <time>2015-05-09T07:20:34Z</time>
      </trkpt>
      <trkpt lat="44.7175" lon="5.48555">
        <ele>1328.68</ele>
        <time>2015-05-09T07:20:36Z</time>
      </trkpt>
      <trkpt lat="44.71747" lon="5.4854">
        <ele>1325.8</ele>
        <time>2015-05-09T07:20:47Z</time>
      </trkpt>
      <trkpt lat="44.71745" lon="5.48536">
        <ele>1324.35</ele>
        <time>2015-05-09T07:20:51Z</time>
      </trkpt>
      <trkpt lat="44.71739" lon="5.48528">
        <ele>1320.99</ele>
        <time>2015-05-09T07:21:01Z</time>
      </trkpt>
      <trkpt lat="44.71738" lon="5.48532">
        <ele>1320.03</ele>
        <time>2015-05-09T07:21:04Z</time>
      </trkpt>
      <trkpt lat="44.71737" lon="5.48543">
        <ele>1319.07</ele>
        <time>2015-05-09T07:21:10Z</time>
      </trkpt>
      <trkpt lat="44.71728" lon="5.48552">
        <ele>1315.7</ele>
        <time>2015-05-09T07:21:20Z</time>
      </trkpt>
      <trkpt lat="44.71726" lon="5.48543">
        <ele>1312.82</ele>
        <time>2015-05-09T07:21:31Z</time>
      </trkpt>
      <trkpt lat="44.71724" lon="5.48542">
        <ele>1311.86</ele>
        <time>2015-05-09T07:21:33Z</time>
      </trkpt>
      <trkpt lat="44.71718" lon="5.48555">
        <ele>1308.49</ele>
        <time>2015-05-09T07:21:44Z</time>
      </trkpt>
      <trkpt lat="44.71713" lon="5.48566">
        <ele>1306.09</ele>
        <time>2015-05-09T07:21:52Z</time>
      </trkpt>
      <trkpt lat="44.7171" lon="5.48577">
        <ele>1304.65</ele>
        <time>2015-05-09T07:21:59Z</time>
      </trkpt>
      <trkpt lat="44.71706" lon="5.48576">
        <ele>1302.24</ele>
        <time>2015-05-09T07:22:07Z</time>
      </trkpt>
      <trkpt lat="44.71706" lon="5.48572">
        <ele>1301.28</ele>
        <time>2015-05-09T07:22:09Z</time>
      </trkpt>
      <trkpt lat="44.71701" lon="5.48553">
        <ele>1297.92</ele>
        <time>2015-05-09T07:22:20Z</time>
      </trkpt>
      <trkpt lat="44.71698" lon="5.48541">
        <ele>1295.03</ele>
        <time>2015-05-09T07:22:27Z</time>
      </trkpt>
      <trkpt lat="44.71697" lon="5.48539">
        <ele>1294.55</ele>
        <time>2015-05-09T07:22:28Z</time>
      </trkpt>
      <trkpt lat="44.71692" lon="5.48536">
        <ele>1292.15</ele>
        <time>2015-05-09T07:22:38Z</time>
      </trkpt>
      <trkpt lat="44.7169" lon="5.48542">
        <ele>1290.23</ele>
        <time>2015-05-09T07:22:42Z</time>
      </trkpt>
      <trkpt lat="44.71689" lon="5.48544">
        <ele>1289.75</ele>
        <time>2015-05-09T07:22:44Z</time>
      </trkpt>
      <trkpt lat="44.71685" lon="5.48552">
        <ele>1287.34</ele>
        <time>2015-05-09T07:22:50Z</time>
      </trkpt>
      <trkpt lat="44.71683" lon="5.48555">
        <ele>1286.38</ele>
        <time>2015-05-09T07:22:52Z</time>
      </trkpt>
      <trkpt lat="44.71676" lon="5.48567">
        <ele>1283.5</ele>
        <time>2015-05-09T07:23:02Z</time>
      </trkpt>
      <trkpt lat="44.71668" lon="5.48578">
        <ele>1280.13</ele>
        <time>2015-05-09T07:23:12Z</time>
      </trkpt>
      <trkpt lat="44.71661" lon="5.48591">
        <ele>1276.77</ele>
        <time>2015-05-09T07:23:21Z</time>
      </trkpt>
      <trkpt lat="44.71657" lon="5.48603">
        <ele>1275.33</ele>
        <time>2015-05-09T07:23:29Z</time>
      </trkpt>
      <trkpt lat="44.71652" lon="5.4861">
        <ele>1272.92</ele>
        <time>2015-05-09T07:23:35Z</time>
      </trkpt>
      <trkpt lat="44.71644" lon="5.48622">
        <ele>1269.08</ele>
        <time>2015-05-09T07:23:44Z</time>
      </trkpt>
      <trkpt lat="44.71643" lon="5.48623">
        <ele>1269.08</ele>
        <time>2015-05-09T07:23:45Z</time>
      </trkpt>
      <trkpt lat="44.71645" lon="5.48609">
        <ele>1267.16</ele>
        <time>2015-05-09T07:23:56Z</time>
      </trkpt>
      <trkpt lat="44.71645" lon="5.48607">
        <ele>1267.16</ele>
        <time>2015-05-09T07:23:57Z</time>
      </trkpt>
      <trkpt lat="44.71646" lon="5.48602">
        <ele>1266.19</ele>
        <time>2015-05-09T07:24:00Z</time>
      </trkpt>
      <trkpt lat="44.71648" lon="5.48593">
        <ele>1265.23</ele>
        <time>2015-05-09T07:24:05Z</time>
      </trkpt>
      <trkpt lat="44.71648" lon="5.48583">
        <ele>1263.31</ele>
        <time>2015-05-09T07:24:13Z</time>
      </trkpt>
      <trkpt lat="44.71649" lon="5.4857">
        <ele>1261.39</ele>
        <time>2015-05-09T07:24:21Z</time>
      </trkpt>
      <trkpt lat="44.71648" lon="5.48568">
        <ele>1260.43</ele>
        <time>2015-05-09T07:24:24Z</time>
      </trkpt>
      <trkpt lat="44.71641" lon="5.48576">
        <ele>1257.06</ele>
        <time>2015-05-09T07:24:34Z</time>
      </trkpt>
      <trkpt lat="44.71639" lon="5.48578">
        <ele>1256.58</ele>
        <time>2015-05-09T07:24:36Z</time>
      </trkpt>
      <trkpt lat="44.71636" lon="5.48587">
        <ele>1255.14</ele>
        <time>2015-05-09T07:24:42Z</time>
      </trkpt>
      <trkpt lat="44.71626" lon="5.48601">
        <ele>1252.25</ele>
        <time>2015-05-09T07:24:51Z</time>
      </trkpt>
      <trkpt lat="44.71621" lon="5.48608">
        <ele>1250.81</ele>
        <time>2015-05-09T07:24:58Z</time>
      </trkpt>
      <trkpt lat="44.71615" lon="5.48612">
        <ele>1249.37</ele>
        <time>2015-05-09T07:25:02Z</time>
      </trkpt>
      <trkpt lat="44.71612" lon="5.48617">
        <ele>1247.93</ele>
        <time>2015-05-09T07:25:06Z</time>
      </trkpt>
      <trkpt lat="44.7161" lon="5.48621">
        <ele>1246.49</ele>
        <time>2015-05-09T07:25:09Z</time>
      </trkpt>
      <trkpt lat="44.71609" lon="5.48632">
        <ele>1244.56</ele>
        <time>2015-05-09T07:25:15Z</time>
      </trkpt>
      <trkpt lat="44.71598" lon="5.48651">
        <ele>1241.2</ele>
        <time>2015-05-09T07:25:29Z</time>
      </trkpt>
      <trkpt lat="44.71596" lon="5.48652">
        <ele>1240.72</ele>
        <time>2015-05-09T07:25:30Z</time>
      </trkpt>
      <trkpt lat="44.71583" lon="5.48663">
        <ele>1239.28</ele>
        <time>2015-05-09T07:25:42Z</time>
      </trkpt>
      <trkpt lat="44.71574" lon="5.48672">
        <ele>1236.39</ele>
        <time>2015-05-09T07:25:52Z</time>
      </trkpt>
      <trkpt lat="44.71571" lon="5.48675">
        <ele>1235.43</ele>
        <time>2015-05-09T07:25:55Z</time>
      </trkpt>
      <trkpt lat="44.71569" lon="5.48679">
        <ele>1234.95</ele>
        <time>2015-05-09T07:25:57Z</time>
      </trkpt>
      <trkpt lat="44.71559" lon="5.48693">
        <ele>1231.59</ele>
        <time>2015-05-09T07:26:09Z</time>
      </trkpt>
      <trkpt lat="44.71557" lon="5.48694">
        <ele>1230.62</ele>
        <time>2015-05-09T07:26:11Z</time>
      </trkpt>
      <trkpt lat="44.71554" lon="5.48697">
        <ele>1229.66</ele>
        <time>2015-05-09T07:26:13Z</time>
      </trkpt>
      <trkpt lat="44.71551" lon="5.48703">
        <ele>1228.7</ele>
        <time>2015-05-09T07:26:17Z</time>
      </trkpt>
      <trkpt lat="44.71549" lon="5.48705">
        <ele>1228.22</ele>
        <time>2015-05-09T07:26:19Z</time>
      </trkpt>
      <trkpt lat="44.71535" lon="5.48719">
        <ele>1224.86</ele>
        <time>2015-05-09T07:26:30Z</time>
      </trkpt>
      <trkpt lat="44.7153" lon="5.48722">
        <ele>1222.93</ele>
        <time>2015-05-09T07:26:35Z</time>
      </trkpt>
      <trkpt lat="44.7152" lon="5.48733">
        <ele>1220.53</ele>
        <time>2015-05-09T07:26:45Z</time>
      </trkpt>
      <trkpt lat="44.71516" lon="5.48738">
        <ele>1219.57</ele>
        <time>2015-05-09T07:26:49Z</time>
      </trkpt>
      <trkpt lat="44.71511" lon="5.48741">
        <ele>1218.13</ele>
        <time>2015-05-09T07:26:53Z</time>
      </trkpt>
      <trkpt lat="44.71502" lon="5.48742">
        <ele>1215.72</ele>
        <time>2015-05-09T07:27:02Z</time>
      </trkpt>
      <trkpt lat="44.71491" lon="5.48746">
        <ele>1213.32</ele>
        <time>2015-05-09T07:27:11Z</time>
      </trkpt>
      <trkpt lat="44.7148" lon="5.48752">
        <ele>1209.96</ele>
        <time>2015-05-09T07:27:21Z</time>
      </trkpt>
      <trkpt lat="44.71473" lon="5.48755">
        <ele>1209</ele>
        <time>2015-05-09T07:27:26Z</time>
      </trkpt>
      <trkpt lat="44.71462" lon="5.48761">
        <ele>1206.59</ele>
        <time>2015-05-09T07:27:34Z</time>
      </trkpt>
      <trkpt lat="44.71452" lon="5.48765">
        <ele>1202.75</ele>
        <time>2015-05-09T07:27:44Z</time>
      </trkpt>
      <trkpt lat="44.71451" lon="5.48765">
        <ele>1202.75</ele>
        <time>2015-05-09T07:27:45Z</time>
      </trkpt>
      <trkpt lat="44.71444" lon="5.48765">
        <ele>1200.34</ele>
        <time>2015-05-09T07:27:51Z</time>
      </trkpt>
      <trkpt lat="44.7144" lon="5.48767">
        <ele>1199.86</ele>
        <time>2015-05-09T07:27:54Z</time>
      </trkpt>
      <trkpt lat="44.71424" lon="5.48772">
        <ele>1196.02</ele>
        <time>2015-05-09T07:28:06Z</time>
      </trkpt>
      <trkpt lat="44.71423" lon="5.48772">
        <ele>1196.02</ele>
        <time>2015-05-09T07:28:07Z</time>
      </trkpt>
      <trkpt lat="44.71416" lon="5.48775">
        <ele>1195.06</ele>
        <time>2015-05-09T07:28:13Z</time>
      </trkpt>
      <trkpt lat="44.71406" lon="5.48784">
        <ele>1193.61</ele>
        <time>2015-05-09T07:28:23Z</time>
      </trkpt>
      <trkpt lat="44.71399" lon="5.48786">
        <ele>1192.17</ele>
        <time>2015-05-09T07:28:38Z</time>
      </trkpt>
      <trkpt lat="44.71395" lon="5.48786">
        <ele>1190.73</ele>
        <time>2015-05-09T07:28:41Z</time>
      </trkpt>
      <trkpt lat="44.71379" lon="5.48787">
        <ele>1187.37</ele>
        <time>2015-05-09T07:28:53Z</time>
      </trkpt>
      <trkpt lat="44.71373" lon="5.48787">
        <ele>1184</ele>
        <time>2015-05-09T07:29:03Z</time>
      </trkpt>
      <trkpt lat="44.71374" lon="5.48784">
        <ele>1182.08</ele>
        <time>2015-05-09T07:29:09Z</time>
      </trkpt>
      <trkpt lat="44.71367" lon="5.48781">
        <ele>1178.71</ele>
        <time>2015-05-09T07:29:20Z</time>
      </trkpt>
      <trkpt lat="44.71362" lon="5.48783">
        <ele>1176.79</ele>
        <time>2015-05-09T07:29:27Z</time>
      </trkpt>
      <trkpt lat="44.71346" lon="5.48779">
        <ele>1173.43</ele>
        <time>2015-05-09T07:29:37Z</time>
      </trkpt>
      <trkpt lat="44.71339" lon="5.4878">
        <ele>1171.98</ele>
        <time>2015-05-09T07:29:43Z</time>
      </trkpt>
      <trkpt lat="44.71329" lon="5.4878">
        <ele>1170.54</ele>
        <time>2015-05-09T07:29:50Z</time>
      </trkpt>
      <trkpt lat="44.71324" lon="5.4878">
        <ele>1170.06</ele>
        <time>2015-05-09T07:29:53Z</time>
      </trkpt>
      <trkpt lat="44.71307" lon="5.48777">
        <ele>1167.18</ele>
        <time>2015-05-09T07:30:06Z</time>
      </trkpt>
      <trkpt lat="44.71298" lon="5.48772">
        <ele>1166.22</ele>
        <time>2015-05-09T07:30:11Z</time>
      </trkpt>
      <trkpt lat="44.71282" lon="5.4877">
        <ele>1162.85</ele>
        <time>2015-05-09T07:30:23Z</time>
      </trkpt>
      <trkpt lat="44.71279" lon="5.4877">
        <ele>1162.85</ele>
        <time>2015-05-09T07:30:25Z</time>
      </trkpt>
      <trkpt lat="44.71273" lon="5.4877">
        <ele>1161.41</ele>
        <time>2015-05-09T07:30:31Z</time>
      </trkpt>
      <trkpt lat="44.71257" lon="5.48768">
        <ele>1158.53</ele>
        <time>2015-05-09T07:30:42Z</time>
      </trkpt>
      <trkpt lat="44.7124" lon="5.48763">
        <ele>1155.64</ele>
        <time>2015-05-09T07:30:55Z</time>
      </trkpt>
      <trkpt lat="44.71237" lon="5.48762">
        <ele>1155.16</ele>
        <time>2015-05-09T07:30:57Z</time>
      </trkpt>
      <trkpt lat="44.71223" lon="5.48749">
        <ele>1152.76</ele>
        <time>2015-05-09T07:31:10Z</time>
      </trkpt>
      <trkpt lat="44.71221" lon="5.48746">
        <ele>1152.76</ele>
        <time>2015-05-09T07:31:12Z</time>
      </trkpt>
      <trkpt lat="44.71205" lon="5.48731">
        <ele>1153.24</ele>
        <time>2015-05-09T07:31:26Z</time>
      </trkpt>
      <trkpt lat="44.71196" lon="5.48719">
        <ele>1154.2</ele>
        <time>2015-05-09T07:31:35Z</time>
      </trkpt>
      <trkpt lat="44.71191" lon="5.48711">
        <ele>1154.68</ele>
        <time>2015-05-09T07:31:40Z</time>
      </trkpt>
      <trkpt lat="44.71185" lon="5.48706">
        <ele>1154.68</ele>
        <time>2015-05-09T07:31:45Z</time>
      </trkpt>
      <trkpt lat="44.71181" lon="5.48696">
        <ele>1155.16</ele>
        <time>2015-05-09T07:31:51Z</time>
      </trkpt>
      <trkpt lat="44.71177" lon="5.48691">
        <ele>1154.68</ele>
        <time>2015-05-09T07:31:55Z</time>
      </trkpt>
      <trkpt lat="44.71174" lon="5.48688">
        <ele>1154.68</ele>
        <time>2015-05-09T07:31:57Z</time>
      </trkpt>
      <trkpt lat="44.71165" lon="5.48679">
        <ele>1154.2</ele>
        <time>2015-05-09T07:32:05Z</time>
      </trkpt>
      <trkpt lat="44.71162" lon="5.48678">
        <ele>1153.72</ele>
        <time>2015-05-09T07:32:08Z</time>
      </trkpt>
      <trkpt lat="44.71154" lon="5.4867">
        <ele>1152.28</ele>
        <time>2015-05-09T07:32:15Z</time>
      </trkpt>
      <trkpt lat="44.71146" lon="5.48672">
        <ele>1149.87</ele>
        <time>2015-05-09T07:32:23Z</time>
      </trkpt>
      <trkpt lat="44.71144" lon="5.48676">
        <ele>1148.91</ele>
        <time>2015-05-09T07:32:26Z</time>
      </trkpt>
      <trkpt lat="44.7114" lon="5.48683">
        <ele>1147.47</ele>
        <time>2015-05-09T07:32:31Z</time>
      </trkpt>
      <trkpt lat="44.71134" lon="5.48686">
        <ele>1144.59</ele>
        <time>2015-05-09T07:32:42Z</time>
      </trkpt>
      <trkpt lat="44.71127" lon="5.48673">
        <ele>1142.18</ele>
        <time>2015-05-09T07:32:54Z</time>
      </trkpt>
      <trkpt lat="44.71118" lon="5.48654">
        <ele>1138.82</ele>
        <time>2015-05-09T07:33:08Z</time>
      </trkpt>
      <trkpt lat="44.71108" lon="5.4864">
        <ele>1135.45</ele>
        <time>2015-05-09T07:33:20Z</time>
      </trkpt>
      <trkpt lat="44.71104" lon="5.48635">
        <ele>1134.49</ele>
        <time>2015-05-09T07:33:25Z</time>
      </trkpt>
      <trkpt lat="44.71093" lon="5.48614">
        <ele>1132.09</ele>
        <time>2015-05-09T07:33:38Z</time>
      </trkpt>
      <trkpt lat="44.71085" lon="5.48598">
        <ele>1128.24</ele>
        <time>2015-05-09T07:33:51Z</time>
      </trkpt>
      <trkpt lat="44.71083" lon="5.48591">
        <ele>1126.32</ele>
        <time>2015-05-09T07:33:57Z</time>
      </trkpt>
      <trkpt lat="44.71082" lon="5.48578">
        <ele>1123.44</ele>
        <time>2015-05-09T07:34:08Z</time>
      </trkpt>
      <trkpt lat="44.71079" lon="5.48572">
        <ele>1122</ele>
        <time>2015-05-09T07:34:15Z</time>
      </trkpt>
      <trkpt lat="44.71079" lon="5.48568">
        <ele>1122.48</ele>
        <time>2015-05-09T07:34:29Z</time>
      </trkpt>
      <trkpt lat="44.71076" lon="5.48574">
        <ele>1122.48</ele>
        <time>2015-05-09T07:34:39Z</time>
      </trkpt>
      <trkpt lat="44.71079" lon="5.48577">
        <ele>1122.48</ele>
        <time>2015-05-09T07:40:19Z</time>
      </trkpt>
      <trkpt lat="44.71078" lon="5.48577">
        <ele>1122</ele>
        <time>2015-05-09T07:40:20Z</time>
      </trkpt>
      <trkpt lat="44.71076" lon="5.48575">
        <ele>1122</ele>
        <time>2015-05-09T07:40:33Z</time>
      </trkpt>
      <trkpt lat="44.71074" lon="5.48569">
        <ele>1121.52</ele>
        <time>2015-05-09T07:40:37Z</time>
      </trkpt>
      <trkpt lat="44.71072" lon="5.48567">
        <ele>1121.52</ele>
        <time>2015-05-09T07:40:39Z</time>
      </trkpt>
      <trkpt lat="44.7106" lon="5.48557">
        <ele>1119.59</ele>
        <time>2015-05-09T07:40:51Z</time>
      </trkpt>
      <trkpt lat="44.71056" lon="5.48552">
        <ele>1117.19</ele>
        <time>2015-05-09T07:40:59Z</time>
      </trkpt>
      <trkpt lat="44.71053" lon="5.48547">
        <ele>1115.75</ele>
        <time>2015-05-09T07:41:03Z</time>
      </trkpt>
      <trkpt lat="44.71047" lon="5.48539">
        <ele>1112.38</ele>
        <time>2015-05-09T07:41:12Z</time>
      </trkpt>
      <trkpt lat="44.7104" lon="5.48539">
        <ele>1109.98</ele>
        <time>2015-05-09T07:41:22Z</time>
      </trkpt>
      <trkpt lat="44.71032" lon="5.48531">
        <ele>1108.06</ele>
        <time>2015-05-09T07:41:29Z</time>
      </trkpt>
      <trkpt lat="44.71021" lon="5.48518">
        <ele>1105.65</ele>
        <time>2015-05-09T07:41:39Z</time>
      </trkpt>
      <trkpt lat="44.71019" lon="5.48514">
        <ele>1105.17</ele>
        <time>2015-05-09T07:41:42Z</time>
      </trkpt>
      <trkpt lat="44.71009" lon="5.48501">
        <ele>1101.33</ele>
        <time>2015-05-09T07:41:57Z</time>
      </trkpt>
      <trkpt lat="44.71006" lon="5.48495">
        <ele>1100.37</ele>
        <time>2015-05-09T07:42:02Z</time>
      </trkpt>
      <trkpt lat="44.70998" lon="5.48492">
        <ele>1097.96</ele>
        <time>2015-05-09T07:42:14Z</time>
      </trkpt>
      <trkpt lat="44.7099" lon="5.48487">
        <ele>1096.04</ele>
        <time>2015-05-09T07:42:21Z</time>
      </trkpt>
      <trkpt lat="44.70982" lon="5.4848">
        <ele>1094.6</ele>
        <time>2015-05-09T07:42:33Z</time>
      </trkpt>
      <trkpt lat="44.70982" lon="5.4848">
        <ele>1094.6</ele>
        <time>2015-05-09T07:42:37Z</time>
      </trkpt>
      <trkpt lat="44.70978" lon="5.48476">
        <ele>1093.64</ele>
        <time>2015-05-09T07:46:36Z</time>
      </trkpt>
      <trkpt lat="44.7098" lon="5.48476">
        <ele>1093.16</ele>
        <time>2015-05-09T07:46:54Z</time>
      </trkpt>
      <trkpt lat="44.70973" lon="5.48464">
        <ele>1092.2</ele>
        <time>2015-05-09T07:47:08Z</time>
      </trkpt>
      <trkpt lat="44.70971" lon="5.48464">
        <ele>1092.2</ele>
        <time>2015-05-09T07:47:42Z</time>
      </trkpt>
      <trkpt lat="44.70972" lon="5.48467">
        <ele>1091.71</ele>
        <time>2015-05-09T07:48:10Z</time>
      </trkpt>
      <trkpt lat="44.70973" lon="5.48465">
        <ele>1091.71</ele>
        <time>2015-05-09T07:48:32Z</time>
      </trkpt>
      <trkpt lat="44.70973" lon="5.48465">
        <ele>1091.23</ele>
        <time>2015-05-09T07:48:52Z</time>
      </trkpt>
      <trkpt lat="44.70972" lon="5.48465">
        <ele>1091.23</ele>
        <time>2015-05-09T07:49:24Z</time>
      </trkpt>
      <trkpt lat="44.70972" lon="5.48465">
        <ele>1091.23</ele>
        <time>2015-05-09T07:50:00Z</time>
      </trkpt>
      <trkpt lat="44.70972" lon="5.48465">
        <ele>1091.23</ele>
        <time>2015-05-09T07:50:25Z</time>
      </trkpt>
      <trkpt lat="44.70972" lon="5.48461">
        <ele>1090.75</ele>
        <time>2015-05-09T07:50:53Z</time>
      </trkpt>
      <trkpt lat="44.70971" lon="5.48457">
        <ele>1090.75</ele>
        <time>2015-05-09T07:51:00Z</time>
      </trkpt>
      <trkpt lat="44.70966" lon="5.4845">
        <ele>1090.27</ele>
        <time>2015-05-09T07:51:12Z</time>
      </trkpt>
      <trkpt lat="44.70966" lon="5.4845">
        <ele>1089.31</ele>
        <time>2015-05-09T07:51:15Z</time>
      </trkpt>
      <trkpt lat="44.70958" lon="5.48457">
        <ele>1086.43</ele>
        <time>2015-05-09T07:51:26Z</time>
      </trkpt>
      <trkpt lat="44.70957" lon="5.48458">
        <ele>1085.47</ele>
        <time>2015-05-09T07:51:29Z</time>
      </trkpt>
      <trkpt lat="44.70954" lon="5.48452">
        <ele>1084.5</ele>
        <time>2015-05-09T07:51:34Z</time>
      </trkpt>
      <trkpt lat="44.70954" lon="5.48442">
        <ele>1082.58</ele>
        <time>2015-05-09T07:51:49Z</time>
      </trkpt>
      <trkpt lat="44.70954" lon="5.48436">
        <ele>1082.1</ele>
        <time>2015-05-09T07:52:10Z</time>
      </trkpt>
      <trkpt lat="44.70957" lon="5.48432">
        <ele>1082.58</ele>
        <time>2015-05-09T07:52:18Z</time>
      </trkpt>
      <trkpt lat="44.70965" lon="5.48425">
        <ele>1082.58</ele>
        <time>2015-05-09T07:52:29Z</time>
      </trkpt>
      <trkpt lat="44.70979" lon="5.48434">
        <ele>1082.58</ele>
        <time>2015-05-09T07:52:45Z</time>
      </trkpt>
      <trkpt lat="44.70991" lon="5.48442">
        <ele>1083.06</ele>
        <time>2015-05-09T07:52:59Z</time>
      </trkpt>
      <trkpt lat="44.71" lon="5.48449">
        <ele>1083.06</ele>
        <time>2015-05-09T07:53:12Z</time>
      </trkpt>
      <trkpt lat="44.71013" lon="5.48459">
        <ele>1083.06</ele>
        <time>2015-05-09T07:53:27Z</time>
      </trkpt>
      <trkpt lat="44.7102" lon="5.48463">
        <ele>1083.06</ele>
        <time>2015-05-09T07:53:35Z</time>
      </trkpt>
      <trkpt lat="44.71024" lon="5.48467">
        <ele>1083.54</ele>
        <time>2015-05-09T07:53:39Z</time>
      </trkpt>
      <trkpt lat="44.71029" lon="5.48468">
        <ele>1083.06</ele>
        <time>2015-05-09T07:53:43Z</time>
      </trkpt>
      <trkpt lat="44.71043" lon="5.48476">
        <ele>1083.54</ele>
        <time>2015-05-09T07:53:58Z</time>
      </trkpt>
      <trkpt lat="44.71047" lon="5.48478">
        <ele>1083.54</ele>
        <time>2015-05-09T07:54:04Z</time>
      </trkpt>
      <trkpt lat="44.71049" lon="5.48481">
        <ele>1083.54</ele>
        <time>2015-05-09T07:54:06Z</time>
      </trkpt>
      <trkpt lat="44.71052" lon="5.48483">
        <ele>1083.54</ele>
        <time>2015-05-09T07:54:10Z</time>
      </trkpt>
      <trkpt lat="44.71062" lon="5.48492">
        <ele>1083.54</ele>
        <time>2015-05-09T07:54:25Z</time>
      </trkpt>
      <trkpt lat="44.71072" lon="5.48499">
        <ele>1084.5</ele>
        <time>2015-05-09T07:54:38Z</time>
      </trkpt>
      <trkpt lat="44.71081" lon="5.48506">
        <ele>1084.5</ele>
        <time>2015-05-09T07:54:52Z</time>
      </trkpt>
      <trkpt lat="44.71095" lon="5.48512">
        <ele>1084.5</ele>
        <time>2015-05-09T07:55:08Z</time>
      </trkpt>
      <trkpt lat="44.71105" lon="5.48515">
        <ele>1084.5</ele>
        <time>2015-05-09T07:55:23Z</time>
      </trkpt>
      <trkpt lat="44.71115" lon="5.48518">
        <ele>1084.5</ele>
        <time>2015-05-09T07:55:35Z</time>
      </trkpt>
      <trkpt lat="44.71133" lon="5.48522">
        <ele>1084.5</ele>
        <time>2015-05-09T07:55:51Z</time>
      </trkpt>
      <trkpt lat="44.71137" lon="5.48522">
        <ele>1084.99</ele>
        <time>2015-05-09T07:55:54Z</time>
      </trkpt>
      <trkpt lat="44.71152" lon="5.48529">
        <ele>1084.99</ele>
        <time>2015-05-09T07:56:09Z</time>
      </trkpt>
      <trkpt lat="44.71163" lon="5.48534">
        <ele>1085.47</ele>
        <time>2015-05-09T07:56:21Z</time>
      </trkpt>
      <trkpt lat="44.71183" lon="5.4854">
        <ele>1085.95</ele>
        <time>2015-05-09T07:56:39Z</time>
      </trkpt>
      <trkpt lat="44.71194" lon="5.48549">
        <ele>1085.95</ele>
        <time>2015-05-09T07:56:52Z</time>
      </trkpt>
      <trkpt lat="44.71196" lon="5.48549">
        <ele>1085.95</ele>
        <time>2015-05-09T07:56:54Z</time>
      </trkpt>
      <trkpt lat="44.71216" lon="5.48557">
        <ele>1085.95</ele>
        <time>2015-05-09T07:57:12Z</time>
      </trkpt>
      <trkpt lat="44.71232" lon="5.48566">
        <ele>1086.43</ele>
        <time>2015-05-09T07:57:24Z</time>
      </trkpt>
      <trkpt lat="44.7124" lon="5.48578">
        <ele>1085.47</ele>
        <time>2015-05-09T07:57:38Z</time>
      </trkpt>
      <trkpt lat="44.71244" lon="5.48582">
        <ele>1085.47</ele>
        <time>2015-05-09T07:57:43Z</time>
      </trkpt>
      <trkpt lat="44.71249" lon="5.48587">
        <ele>1085.47</ele>
        <time>2015-05-09T07:58:00Z</time>
      </trkpt>
      <trkpt lat="44.71253" lon="5.48593">
        <ele>1085.47</ele>
        <time>2015-05-09T07:58:20Z</time>
      </trkpt>
      <trkpt lat="44.71252" lon="5.48593">
        <ele>1085.47</ele>
        <time>2015-05-09T07:58:23Z</time>
      </trkpt>
      <trkpt lat="44.71254" lon="5.48589">
        <ele>1085.47</ele>
        <time>2015-05-09T07:58:26Z</time>
      </trkpt>
      <trkpt lat="44.71272" lon="5.48583">
        <ele>1084.99</ele>
        <time>2015-05-09T07:58:38Z</time>
      </trkpt>
      <trkpt lat="44.71272" lon="5.48583">
        <ele>1084.5</ele>
        <time>2015-05-09T07:59:15Z</time>
      </trkpt>
      <trkpt lat="44.71272" lon="5.48583">
        <ele>1084.02</ele>
        <time>2015-05-09T07:59:48Z</time>
      </trkpt>
      <trkpt lat="44.71273" lon="5.48583">
        <ele>1084.02</ele>
        <time>2015-05-09T08:00:25Z</time>
      </trkpt>
      <trkpt lat="44.71273" lon="5.48583">
        <ele>1084.02</ele>
        <time>2015-05-09T08:00:56Z</time>
      </trkpt>
      <trkpt lat="44.71273" lon="5.48582">
        <ele>1083.54</ele>
        <time>2015-05-09T08:01:21Z</time>
      </trkpt>
      <trkpt lat="44.71273" lon="5.48582">
        <ele>1084.02</ele>
        <time>2015-05-09T08:01:53Z</time>
      </trkpt>
      <trkpt lat="44.71273" lon="5.48582">
        <ele>1083.54</ele>
        <time>2015-05-09T08:02:25Z</time>
      </trkpt>
      <trkpt lat="44.71273" lon="5.48582">
        <ele>1083.54</ele>
        <time>2015-05-09T08:02:49Z</time>
      </trkpt>
      <trkpt lat="44.71274" lon="5.48582">
        <ele>1083.54</ele>
        <time>2015-05-09T08:03:20Z</time>
      </trkpt>
      <trkpt lat="44.71274" lon="5.48582">
        <ele>1083.54</ele>
        <time>2015-05-09T08:03:52Z</time>
      </trkpt>
      <trkpt lat="44.71274" lon="5.48582">
        <ele>1083.54</ele>
        <time>2015-05-09T08:04:20Z</time>
      </trkpt>
      <trkpt lat="44.71274" lon="5.48582">
        <ele>1083.54</ele>
        <time>2015-05-09T08:04:51Z</time>
      </trkpt>
      <trkpt lat="44.71275" lon="5.48581">
        <ele>1083.54</ele>
        <time>2015-05-09T08:05:23Z</time>
      </trkpt>
      <trkpt lat="44.71275" lon="5.48581">
        <ele>1083.54</ele>
        <time>2015-05-09T08:05:54Z</time>
      </trkpt>
      <trkpt lat="44.71275" lon="5.48581">
        <ele>1083.54</ele>
        <time>2015-05-09T08:06:26Z</time>
      </trkpt>
      <trkpt lat="44.71275" lon="5.48581">
        <ele>1083.54</ele>
        <time>2015-05-09T08:06:57Z</time>
      </trkpt>
      <trkpt lat="44.71275" lon="5.48581">
        <ele>1084.02</ele>
        <time>2015-05-09T08:07:30Z</time>
      </trkpt>
      <trkpt lat="44.71275" lon="5.48581">
        <ele>1084.5</ele>
        <time>2015-05-09T08:07:55Z</time>
      </trkpt>
      <trkpt lat="44.71275" lon="5.48581">
        <ele>1084.02</ele>
        <time>2015-05-09T08:07:57Z</time>
      </trkpt>
      <trkpt lat="44.71274" lon="5.48584">
        <ele>1087.87</ele>
        <time>2015-05-09T08:14:53Z</time>
      </trkpt>
      <trkpt lat="44.71268" lon="5.48579">
        <ele>1087.87</ele>
        <time>2015-05-09T08:14:54Z</time>
      </trkpt>
      <trkpt lat="44.71272" lon="5.48569">
        <ele>1089.79</ele>
        <time>2015-05-09T08:15:14Z</time>
      </trkpt>
      <trkpt lat="44.71274" lon="5.48565">
        <ele>1090.27</ele>
        <time>2015-05-09T08:15:38Z</time>
      </trkpt>
      <trkpt lat="44.71282" lon="5.48566">
        <ele>1090.75</ele>
        <time>2015-05-09T08:15:55Z</time>
      </trkpt>
      <trkpt lat="44.71283" lon="5.4856">
        <ele>1090.75</ele>
        <time>2015-05-09T08:16:12Z</time>
      </trkpt>
      <trkpt lat="44.71289" lon="5.48548">
        <ele>1090.75</ele>
        <time>2015-05-09T08:16:38Z</time>
      </trkpt>
      <trkpt lat="44.71292" lon="5.48548">
        <ele>1090.75</ele>
        <time>2015-05-09T08:17:03Z</time>
      </trkpt>
      <trkpt lat="44.71308" lon="5.48548">
        <ele>1091.23</ele>
        <time>2015-05-09T08:17:15Z</time>
      </trkpt>
      <trkpt lat="44.71322" lon="5.48534">
        <ele>1090.75</ele>
        <time>2015-05-09T08:17:29Z</time>
      </trkpt>
      <trkpt lat="44.71337" lon="5.48517">
        <ele>1091.23</ele>
        <time>2015-05-09T08:17:44Z</time>
      </trkpt>
      <trkpt lat="44.71343" lon="5.48513">
        <ele>1090.75</ele>
        <time>2015-05-09T08:17:50Z</time>
      </trkpt>
      <trkpt lat="44.71351" lon="5.48511">
        <ele>1090.75</ele>
        <time>2015-05-09T08:17:55Z</time>
      </trkpt>
      <trkpt lat="44.71362" lon="5.48504">
        <ele>1090.75</ele>
        <time>2015-05-09T08:18:04Z</time>
      </trkpt>
      <trkpt lat="44.71366" lon="5.48503">
        <ele>1090.75</ele>
        <time>2015-05-09T08:18:08Z</time>
      </trkpt>
      <trkpt lat="44.7137" lon="5.48501">
        <ele>1090.27</ele>
        <time>2015-05-09T08:18:13Z</time>
      </trkpt>
      <trkpt lat="44.71373" lon="5.48491">
        <ele>1090.75</ele>
        <time>2015-05-09T08:18:19Z</time>
      </trkpt>
      <trkpt lat="44.71378" lon="5.48475">
        <ele>1091.23</ele>
        <time>2015-05-09T08:18:29Z</time>
      </trkpt>
      <trkpt lat="44.71394" lon="5.4846">
        <ele>1091.23</ele>
        <time>2015-05-09T08:18:45Z</time>
      </trkpt>
      <trkpt lat="44.71397" lon="5.48459">
        <ele>1091.23</ele>
        <time>2015-05-09T08:18:47Z</time>
      </trkpt>
      <trkpt lat="44.71399" lon="5.48457">
        <ele>1091.71</ele>
        <time>2015-05-09T08:18:49Z</time>
      </trkpt>
      <trkpt lat="44.71415" lon="5.48443">
        <ele>1091.71</ele>
        <time>2015-05-09T08:19:03Z</time>
      </trkpt>
      <trkpt lat="44.7143" lon="5.48439">
        <ele>1092.2</ele>
        <time>2015-05-09T08:19:14Z</time>
      </trkpt>
      <trkpt lat="44.71441" lon="5.48428">
        <ele>1092.2</ele>
        <time>2015-05-09T08:19:27Z</time>
      </trkpt>
      <trkpt lat="44.71444" lon="5.48425">
        <ele>1092.68</ele>
        <time>2015-05-09T08:19:30Z</time>
      </trkpt>
      <trkpt lat="44.71455" lon="5.48407">
        <ele>1094.12</ele>
        <time>2015-05-09T08:19:43Z</time>
      </trkpt>
      <trkpt lat="44.71462" lon="5.484">
        <ele>1094.6</ele>
        <time>2015-05-09T08:19:51Z</time>
      </trkpt>
      <trkpt lat="44.71456" lon="5.48394">
        <ele>1094.6</ele>
        <time>2015-05-09T08:19:58Z</time>
      </trkpt>
      <trkpt lat="44.71444" lon="5.48377">
        <ele>1093.64</ele>
        <time>2015-05-09T08:20:12Z</time>
      </trkpt>
      <trkpt lat="44.71437" lon="5.48364">
        <ele>1093.16</ele>
        <time>2015-05-09T08:20:22Z</time>
      </trkpt>
      <trkpt lat="44.71434" lon="5.48356">
        <ele>1093.64</ele>
        <time>2015-05-09T08:20:27Z</time>
      </trkpt>
      <trkpt lat="44.71433" lon="5.48346">
        <ele>1093.16</ele>
        <time>2015-05-09T08:20:34Z</time>
      </trkpt>
      <trkpt lat="44.71431" lon="5.48327">
        <ele>1093.16</ele>
        <time>2015-05-09T08:20:47Z</time>
      </trkpt>
      <trkpt lat="44.71434" lon="5.48315">
        <ele>1093.16</ele>
        <time>2015-05-09T08:20:53Z</time>
      </trkpt>
      <trkpt lat="44.71437" lon="5.48304">
        <ele>1092.68</ele>
        <time>2015-05-09T08:20:59Z</time>
      </trkpt>
      <trkpt lat="44.71438" lon="5.48301">
        <ele>1092.2</ele>
        <time>2015-05-09T08:21:01Z</time>
      </trkpt>
      <trkpt lat="44.71441" lon="5.48295">
        <ele>1092.68</ele>
        <time>2015-05-09T08:21:05Z</time>
      </trkpt>
      <trkpt lat="44.71446" lon="5.48275">
        <ele>1093.16</ele>
        <time>2015-05-09T08:21:19Z</time>
      </trkpt>
      <trkpt lat="44.71446" lon="5.48274">
        <ele>1093.16</ele>
        <time>2015-05-09T08:21:20Z</time>
      </trkpt>
      <trkpt lat="44.71439" lon="5.48253">
        <ele>1093.16</ele>
        <time>2015-05-09T08:21:32Z</time>
      </trkpt>
      <trkpt lat="44.71434" lon="5.48237">
        <ele>1092.68</ele>
        <time>2015-05-09T08:21:44Z</time>
      </trkpt>
      <trkpt lat="44.71434" lon="5.48235">
        <ele>1092.68</ele>
        <time>2015-05-09T08:21:55Z</time>
      </trkpt>
      <trkpt lat="44.71434" lon="5.48235">
        <ele>1091.71</ele>
        <time>2015-05-09T08:22:23Z</time>
      </trkpt>
      <trkpt lat="44.71434" lon="5.48234">
        <ele>1091.71</ele>
        <time>2015-05-09T08:22:43Z</time>
      </trkpt>
      <trkpt lat="44.7143" lon="5.48218">
        <ele>1091.71</ele>
        <time>2015-05-09T08:22:59Z</time>
      </trkpt>
      <trkpt lat="44.7143" lon="5.48218">
        <ele>1091.23</ele>
        <time>2015-05-09T08:23:32Z</time>
      </trkpt>
      <trkpt lat="44.7143" lon="5.48217">
        <ele>1087.87</ele>
        <time>2015-05-09T08:23:44Z</time>
      </trkpt>
      <trkpt lat="44.71427" lon="5.48215">
        <ele>1091.23</ele>
        <time>2015-05-09T08:26:18Z</time>
      </trkpt>
      <trkpt lat="44.71432" lon="5.48217">
        <ele>1090.75</ele>
        <time>2015-05-09T08:26:19Z</time>
      </trkpt>
      <trkpt lat="44.71422" lon="5.48216">
        <ele>1090.27</ele>
        <time>2015-05-09T08:26:37Z</time>
      </trkpt>
      <trkpt lat="44.71421" lon="5.48212">
        <ele>1090.27</ele>
        <time>2015-05-09T08:27:02Z</time>
      </trkpt>
      <trkpt lat="44.71423" lon="5.4821">
        <ele>1089.31</ele>
        <time>2015-05-09T08:27:28Z</time>
      </trkpt>
      <trkpt lat="44.71419" lon="5.48208">
        <ele>1089.79</ele>
        <time>2015-05-09T08:27:46Z</time>
      </trkpt>
      <trkpt lat="44.71419" lon="5.48208">
        <ele>1089.31</ele>
        <time>2015-05-09T08:28:16Z</time>
      </trkpt>
      <trkpt lat="44.71419" lon="5.48208">
        <ele>1089.31</ele>
        <time>2015-05-09T08:28:27Z</time>
      </trkpt>
      <trkpt lat="44.71422" lon="5.48213">
        <ele>1089.79</ele>
        <time>2015-05-09T08:28:44Z</time>
      </trkpt>
      <trkpt lat="44.71422" lon="5.4821">
        <ele>1089.31</ele>
        <time>2015-05-09T08:29:00Z</time>
      </trkpt>
      <trkpt lat="44.71424" lon="5.48202">
        <ele>1089.79</ele>
        <time>2015-05-09T08:29:07Z</time>
      </trkpt>
      <trkpt lat="44.71423" lon="5.48192">
        <ele>1089.31</ele>
        <time>2015-05-09T08:29:16Z</time>
      </trkpt>
      <trkpt lat="44.71423" lon="5.48189">
        <ele>1088.83</ele>
        <time>2015-05-09T08:29:31Z</time>
      </trkpt>
      <trkpt lat="44.71423" lon="5.48189">
        <ele>1088.83</ele>
        <time>2015-05-09T08:30:02Z</time>
      </trkpt>
      <trkpt lat="44.71419" lon="5.48183">
        <ele>1088.83</ele>
        <time>2015-05-09T08:30:16Z</time>
      </trkpt>
      <trkpt lat="44.71418" lon="5.4818">
        <ele>1088.35</ele>
        <time>2015-05-09T08:30:21Z</time>
      </trkpt>
      <trkpt lat="44.71408" lon="5.48159">
        <ele>1087.87</ele>
        <time>2015-05-09T08:30:35Z</time>
      </trkpt>
      <trkpt lat="44.71405" lon="5.48152">
        <ele>1087.87</ele>
        <time>2015-05-09T08:30:39Z</time>
      </trkpt>
      <trkpt lat="44.71403" lon="5.48147">
        <ele>1087.87</ele>
        <time>2015-05-09T08:30:43Z</time>
      </trkpt>
      <trkpt lat="44.714" lon="5.48127">
        <ele>1086.91</ele>
        <time>2015-05-09T08:30:55Z</time>
      </trkpt>
      <trkpt lat="44.71398" lon="5.48112">
        <ele>1086.91</ele>
        <time>2015-05-09T08:31:05Z</time>
      </trkpt>
      <trkpt lat="44.71397" lon="5.4811">
        <ele>1087.87</ele>
        <time>2015-05-09T08:31:07Z</time>
      </trkpt>
      <trkpt lat="44.71394" lon="5.48091">
        <ele>1086.43</ele>
        <time>2015-05-09T08:31:20Z</time>
      </trkpt>
      <trkpt lat="44.71393" lon="5.48074">
        <ele>1085.95</ele>
        <time>2015-05-09T08:31:31Z</time>
      </trkpt>
      <trkpt lat="44.71391" lon="5.48067">
        <ele>1085.95</ele>
        <time>2015-05-09T08:31:35Z</time>
      </trkpt>
      <trkpt lat="44.71388" lon="5.48052">
        <ele>1086.43</ele>
        <time>2015-05-09T08:31:42Z</time>
      </trkpt>
      <trkpt lat="44.71384" lon="5.48035">
        <ele>1085.95</ele>
        <time>2015-05-09T08:31:55Z</time>
      </trkpt>
      <trkpt lat="44.7138" lon="5.48022">
        <ele>1085.47</ele>
        <time>2015-05-09T08:32:06Z</time>
      </trkpt>
      <trkpt lat="44.71377" lon="5.48013">
        <ele>1084.99</ele>
        <time>2015-05-09T08:32:11Z</time>
      </trkpt>
      <trkpt lat="44.71372" lon="5.47991">
        <ele>1084.99</ele>
        <time>2015-05-09T08:32:24Z</time>
      </trkpt>
      <trkpt lat="44.71364" lon="5.47969">
        <ele>1084.99</ele>
        <time>2015-05-09T08:32:37Z</time>
      </trkpt>
      <trkpt lat="44.71364" lon="5.47967">
        <ele>1084.5</ele>
        <time>2015-05-09T08:32:38Z</time>
      </trkpt>
      <trkpt lat="44.71359" lon="5.47948">
        <ele>1084.5</ele>
        <time>2015-05-09T08:32:50Z</time>
      </trkpt>
      <trkpt lat="44.71357" lon="5.47935">
        <ele>1084.02</ele>
        <time>2015-05-09T08:32:57Z</time>
      </trkpt>
      <trkpt lat="44.71351" lon="5.47915">
        <ele>1084.5</ele>
        <time>2015-05-09T08:33:08Z</time>
      </trkpt>
      <trkpt lat="44.71348" lon="5.47908">
        <ele>1084.02</ele>
        <time>2015-05-09T08:33:12Z</time>
      </trkpt>
      <trkpt lat="44.71344" lon="5.47896">
        <ele>1084.02</ele>
        <time>2015-05-09T08:33:22Z</time>
      </trkpt>
      <trkpt lat="44.71342" lon="5.47893">
        <ele>1083.06</ele>
        <time>2015-05-09T08:33:24Z</time>
      </trkpt>
      <trkpt lat="44.71334" lon="5.47879">
        <ele>1083.54</ele>
        <time>2015-05-09T08:33:32Z</time>
      </trkpt>
      <trkpt lat="44.7134" lon="5.47868">
        <ele>1083.54</ele>
        <time>2015-05-09T08:33:43Z</time>
      </trkpt>
      <trkpt lat="44.71341" lon="5.47866">
        <ele>1084.02</ele>
        <time>2015-05-09T08:33:45Z</time>
      </trkpt>
      <trkpt lat="44.71353" lon="5.47863">
        <ele>1083.06</ele>
        <time>2015-05-09T08:33:55Z</time>
      </trkpt>
      <trkpt lat="44.71357" lon="5.47864">
        <ele>1083.06</ele>
        <time>2015-05-09T08:33:58Z</time>
      </trkpt>
      <trkpt lat="44.71372" lon="5.47867">
        <ele>1081.62</ele>
        <time>2015-05-09T08:34:11Z</time>
      </trkpt>
      <trkpt lat="44.71376" lon="5.47868">
        <ele>1081.62</ele>
        <time>2015-05-09T08:34:26Z</time>
      </trkpt>
      <trkpt lat="44.71376" lon="5.47868">
        <ele>1081.14</ele>
        <time>2015-05-09T08:34:56Z</time>
      </trkpt>
      <trkpt lat="44.71361" lon="5.47864">
        <ele>1082.58</ele>
        <time>2015-05-09T08:35:12Z</time>
      </trkpt>
      <trkpt lat="44.71349" lon="5.47863">
        <ele>1083.06</ele>
        <time>2015-05-09T08:35:26Z</time>
      </trkpt>
      <trkpt lat="44.71349" lon="5.47863">
        <ele>1078.74</ele>
        <time>2015-05-09T08:35:40Z</time>
      </trkpt>
      <trkpt lat="44.71362" lon="5.47857">
        <ele>1082.1</ele>
        <time>2015-05-09T08:40:28Z</time>
      </trkpt>
      <trkpt lat="44.71365" lon="5.47859">
        <ele>1082.58</ele>
        <time>2015-05-09T08:40:29Z</time>
      </trkpt>
      <trkpt lat="44.71375" lon="5.47862">
        <ele>1081.62</ele>
        <time>2015-05-09T08:40:39Z</time>
      </trkpt>
      <trkpt lat="44.71383" lon="5.47863">
        <ele>1080.66</ele>
        <time>2015-05-09T08:40:48Z</time>
      </trkpt>
      <trkpt lat="44.71406" lon="5.47869">
        <ele>1080.66</ele>
        <time>2015-05-09T08:41:09Z</time>
      </trkpt>
      <trkpt lat="44.71407" lon="5.47868">
        <ele>1079.7</ele>
        <time>2015-05-09T08:41:17Z</time>
      </trkpt>
      <trkpt lat="44.71386" lon="5.47868">
        <ele>1079.22</ele>
        <time>2015-05-09T09:00:58Z</time>
      </trkpt>
      <trkpt lat="44.71388" lon="5.47868">
        <ele>1078.74</ele>
        <time>2015-05-09T09:00:59Z</time>
      </trkpt>
      <trkpt lat="44.71396" lon="5.47871">
        <ele>1079.22</ele>
        <time>2015-05-09T09:01:07Z</time>
      </trkpt>
      <trkpt lat="44.71399" lon="5.47873">
        <ele>1078.74</ele>
        <time>2015-05-09T09:01:10Z</time>
      </trkpt>
      <trkpt lat="44.7141" lon="5.47877">
        <ele>1079.22</ele>
        <time>2015-05-09T09:01:19Z</time>
      </trkpt>
      <trkpt lat="44.71423" lon="5.47885">
        <ele>1080.18</ele>
        <time>2015-05-09T09:01:30Z</time>
      </trkpt>
      <trkpt lat="44.71435" lon="5.47885">
        <ele>1079.7</ele>
        <time>2015-05-09T09:01:44Z</time>
      </trkpt>
      <trkpt lat="44.7145" lon="5.47886">
        <ele>1078.74</ele>
        <time>2015-05-09T09:01:55Z</time>
      </trkpt>
      <trkpt lat="44.71477" lon="5.47882">
        <ele>1080.18</ele>
        <time>2015-05-09T09:02:11Z</time>
      </trkpt>
      <trkpt lat="44.71489" lon="5.47878">
        <ele>1083.54</ele>
        <time>2015-05-09T09:02:20Z</time>
      </trkpt>
      <trkpt lat="44.71493" lon="5.47876">
        <ele>1084.99</ele>
        <time>2015-05-09T09:02:24Z</time>
      </trkpt>
      <trkpt lat="44.71497" lon="5.47866">
        <ele>1084.99</ele>
        <time>2015-05-09T09:02:30Z</time>
      </trkpt>
      <trkpt lat="44.715" lon="5.47854">
        <ele>1084.99</ele>
        <time>2015-05-09T09:02:36Z</time>
      </trkpt>
      <trkpt lat="44.71507" lon="5.47836">
        <ele>1087.39</ele>
        <time>2015-05-09T09:02:49Z</time>
      </trkpt>
      <trkpt lat="44.71509" lon="5.47834">
        <ele>1086.91</ele>
        <time>2015-05-09T09:02:50Z</time>
      </trkpt>
      <trkpt lat="44.71521" lon="5.47816">
        <ele>1087.39</ele>
        <time>2015-05-09T09:03:04Z</time>
      </trkpt>
      <trkpt lat="44.71532" lon="5.47807">
        <ele>1089.79</ele>
        <time>2015-05-09T09:03:17Z</time>
      </trkpt>
      <trkpt lat="44.71546" lon="5.47804">
        <ele>1092.68</ele>
        <time>2015-05-09T09:03:31Z</time>
      </trkpt>
      <trkpt lat="44.7156" lon="5.47801">
        <ele>1095.08</ele>
        <time>2015-05-09T09:03:44Z</time>
      </trkpt>
      <trkpt lat="44.71572" lon="5.47804">
        <ele>1097</ele>
        <time>2015-05-09T09:03:58Z</time>
      </trkpt>
      <trkpt lat="44.71589" lon="5.47809">
        <ele>1098.44</ele>
        <time>2015-05-09T09:04:13Z</time>
      </trkpt>
      <trkpt lat="44.71605" lon="5.47813">
        <ele>1099.89</ele>
        <time>2015-05-09T09:04:26Z</time>
      </trkpt>
      <trkpt lat="44.71623" lon="5.4782">
        <ele>1100.85</ele>
        <time>2015-05-09T09:04:42Z</time>
      </trkpt>
      <trkpt lat="44.71641" lon="5.4782">
        <ele>1100.37</ele>
        <time>2015-05-09T09:04:55Z</time>
      </trkpt>
      <trkpt lat="44.71659" lon="5.47824">
        <ele>1100.37</ele>
        <time>2015-05-09T09:05:10Z</time>
      </trkpt>
      <trkpt lat="44.71676" lon="5.47822">
        <ele>1101.33</ele>
        <time>2015-05-09T09:05:25Z</time>
      </trkpt>
      <trkpt lat="44.71697" lon="5.47824">
        <ele>1103.73</ele>
        <time>2015-05-09T09:05:41Z</time>
      </trkpt>
      <trkpt lat="44.71706" lon="5.47828">
        <ele>1104.21</ele>
        <time>2015-05-09T09:05:47Z</time>
      </trkpt>
      <trkpt lat="44.71722" lon="5.47826">
        <ele>1107.1</ele>
        <time>2015-05-09T09:06:02Z</time>
      </trkpt>
      <trkpt lat="44.7173" lon="5.47819">
        <ele>1107.58</ele>
        <time>2015-05-09T09:06:09Z</time>
      </trkpt>
      <trkpt lat="44.71744" lon="5.47819">
        <ele>1109.98</ele>
        <time>2015-05-09T09:06:23Z</time>
      </trkpt>
      <trkpt lat="44.71758" lon="5.47819">
        <ele>1111.42</ele>
        <time>2015-05-09T09:06:32Z</time>
      </trkpt>
      <trkpt lat="44.71765" lon="5.47821">
        <ele>1113.34</ele>
        <time>2015-05-09T09:06:40Z</time>
      </trkpt>
      <trkpt lat="44.71777" lon="5.47828">
        <ele>1114.79</ele>
        <time>2015-05-09T09:06:57Z</time>
      </trkpt>
      <trkpt lat="44.71795" lon="5.47817">
        <ele>1116.23</ele>
        <time>2015-05-09T09:07:20Z</time>
      </trkpt>
      <trkpt lat="44.71787" lon="5.47809">
        <ele>1111.9</ele>
        <time>2015-05-09T09:07:36Z</time>
      </trkpt>
      <trkpt lat="44.71787" lon="5.47808">
        <ele>1118.15</ele>
        <time>2015-05-09T09:07:37Z</time>
      </trkpt>
      <trkpt lat="44.71787" lon="5.47807">
        <ele>1113.34</ele>
        <time>2015-05-09T09:07:38Z</time>
      </trkpt>
      <trkpt lat="44.71787" lon="5.47807">
        <ele>1117.67</ele>
        <time>2015-05-09T09:07:39Z</time>
      </trkpt>
      <trkpt lat="44.71787" lon="5.47806">
        <ele>1113.82</ele>
        <time>2015-05-09T09:07:41Z</time>
      </trkpt>
      <trkpt lat="44.71788" lon="5.47805">
        <ele>1117.19</ele>
        <time>2015-05-09T09:07:44Z</time>
      </trkpt>
      <trkpt lat="44.71788" lon="5.4781">
        <ele>1115.27</ele>
        <time>2015-05-09T09:08:07Z</time>
      </trkpt>
      <trkpt lat="44.71788" lon="5.4781">
        <ele>1114.79</ele>
        <time>2015-05-09T09:08:09Z</time>
      </trkpt>
      <trkpt lat="44.71801" lon="5.47824">
        <ele>1116.71</ele>
        <time>2015-05-09T09:09:05Z</time>
      </trkpt>
      <trkpt lat="44.71801" lon="5.47826">
        <ele>1117.19</ele>
        <time>2015-05-09T09:09:06Z</time>
      </trkpt>
      <trkpt lat="44.71808" lon="5.47828">
        <ele>1117.19</ele>
        <time>2015-05-09T09:09:18Z</time>
      </trkpt>
      <trkpt lat="44.71811" lon="5.47839">
        <ele>1115.27</ele>
        <time>2015-05-09T09:09:32Z</time>
      </trkpt>
      <trkpt lat="44.71815" lon="5.47837">
        <ele>1115.75</ele>
        <time>2015-05-09T09:09:45Z</time>
      </trkpt>
      <trkpt lat="44.71816" lon="5.47835">
        <ele>1116.23</ele>
        <time>2015-05-09T09:10:01Z</time>
      </trkpt>
      <trkpt lat="44.71816" lon="5.47829">
        <ele>1118.15</ele>
        <time>2015-05-09T09:10:12Z</time>
      </trkpt>
      <trkpt lat="44.71816" lon="5.47824">
        <ele>1119.59</ele>
        <time>2015-05-09T09:10:15Z</time>
      </trkpt>
      <trkpt lat="44.71816" lon="5.47822">
        <ele>1121.03</ele>
        <time>2015-05-09T09:10:30Z</time>
      </trkpt>
      <trkpt lat="44.71814" lon="5.4781">
        <ele>1122.96</ele>
        <time>2015-05-09T09:10:39Z</time>
      </trkpt>
      <trkpt lat="44.71818" lon="5.47796">
        <ele>1125.84</ele>
        <time>2015-05-09T09:10:50Z</time>
      </trkpt>
      <trkpt lat="44.71827" lon="5.47788">
        <ele>1129.21</ele>
        <time>2015-05-09T09:11:03Z</time>
      </trkpt>
      <trkpt lat="44.71829" lon="5.47788">
        <ele>1130.65</ele>
        <time>2015-05-09T09:11:07Z</time>
      </trkpt>
      <trkpt lat="44.71835" lon="5.4778">
        <ele>1133.53</ele>
        <time>2015-05-09T09:11:19Z</time>
      </trkpt>
      <trkpt lat="44.71842" lon="5.47761">
        <ele>1135.45</ele>
        <time>2015-05-09T09:11:32Z</time>
      </trkpt>
      <trkpt lat="44.71844" lon="5.47747">
        <ele>1136.42</ele>
        <time>2015-05-09T09:11:43Z</time>
      </trkpt>
      <trkpt lat="44.71846" lon="5.47745">
        <ele>1137.86</ele>
        <time>2015-05-09T09:11:59Z</time>
      </trkpt>
      <trkpt lat="44.71846" lon="5.47745">
        <ele>1137.38</ele>
        <time>2015-05-09T09:12:25Z</time>
      </trkpt>
      <trkpt lat="44.71846" lon="5.47745">
        <ele>1137.38</ele>
        <time>2015-05-09T09:12:54Z</time>
      </trkpt>
      <trkpt lat="44.71852" lon="5.47735">
        <ele>1139.78</ele>
        <time>2015-05-09T09:13:13Z</time>
      </trkpt>
      <trkpt lat="44.71855" lon="5.47722">
        <ele>1142.66</ele>
        <time>2015-05-09T09:13:25Z</time>
      </trkpt>
      <trkpt lat="44.71857" lon="5.47715">
        <ele>1144.59</ele>
        <time>2015-05-09T09:13:32Z</time>
      </trkpt>
      <trkpt lat="44.71861" lon="5.47703">
        <ele>1146.51</ele>
        <time>2015-05-09T09:13:45Z</time>
      </trkpt>
      <trkpt lat="44.71867" lon="5.4769">
        <ele>1149.39</ele>
        <time>2015-05-09T09:13:59Z</time>
      </trkpt>
      <trkpt lat="44.71877" lon="5.47673">
        <ele>1151.8</ele>
        <time>2015-05-09T09:14:14Z</time>
      </trkpt>
      <trkpt lat="44.71879" lon="5.47666">
        <ele>1155.16</ele>
        <time>2015-05-09T09:14:27Z</time>
      </trkpt>
      <trkpt lat="44.71883" lon="5.47653">
        <ele>1158.05</ele>
        <time>2015-05-09T09:14:41Z</time>
      </trkpt>
      <trkpt lat="44.71891" lon="5.4764">
        <ele>1161.41</ele>
        <time>2015-05-09T09:14:55Z</time>
      </trkpt>
      <trkpt lat="44.71892" lon="5.47619">
        <ele>1164.29</ele>
        <time>2015-05-09T09:15:12Z</time>
      </trkpt>
      <trkpt lat="44.7189" lon="5.47593">
        <ele>1165.74</ele>
        <time>2015-05-09T09:15:26Z</time>
      </trkpt>
      <trkpt lat="44.71889" lon="5.47576">
        <ele>1167.18</ele>
        <time>2015-05-09T09:15:37Z</time>
      </trkpt>
      <trkpt lat="44.7189" lon="5.47564">
        <ele>1169.1</ele>
        <time>2015-05-09T09:15:46Z</time>
      </trkpt>
      <trkpt lat="44.71892" lon="5.47559">
        <ele>1169.58</ele>
        <time>2015-05-09T09:15:50Z</time>
      </trkpt>
      <trkpt lat="44.71893" lon="5.47554">
        <ele>1170.06</ele>
        <time>2015-05-09T09:15:54Z</time>
      </trkpt>
      <trkpt lat="44.71899" lon="5.47538">
        <ele>1171.98</ele>
        <time>2015-05-09T09:16:06Z</time>
      </trkpt>
      <trkpt lat="44.71901" lon="5.47535">
        <ele>1173.43</ele>
        <time>2015-05-09T09:16:12Z</time>
      </trkpt>
      <trkpt lat="44.71908" lon="5.47521">
        <ele>1174.39</ele>
        <time>2015-05-09T09:16:23Z</time>
      </trkpt>
      <trkpt lat="44.71911" lon="5.47518">
        <ele>1173.91</ele>
        <time>2015-05-09T09:16:25Z</time>
      </trkpt>
      <trkpt lat="44.71917" lon="5.4751">
        <ele>1173.91</ele>
        <time>2015-05-09T09:16:31Z</time>
      </trkpt>
      <trkpt lat="44.71922" lon="5.475">
        <ele>1173.91</ele>
        <time>2015-05-09T09:16:38Z</time>
      </trkpt>
      <trkpt lat="44.71921" lon="5.47487">
        <ele>1175.35</ele>
        <time>2015-05-09T09:16:46Z</time>
      </trkpt>
      <trkpt lat="44.71922" lon="5.47482">
        <ele>1175.83</ele>
        <time>2015-05-09T09:16:49Z</time>
      </trkpt>
      <trkpt lat="44.71916" lon="5.47472">
        <ele>1176.79</ele>
        <time>2015-05-09T09:17:01Z</time>
      </trkpt>
      <trkpt lat="44.71903" lon="5.4746">
        <ele>1175.83</ele>
        <time>2015-05-09T09:17:13Z</time>
      </trkpt>
      <trkpt lat="44.71901" lon="5.47458">
        <ele>1175.35</ele>
        <time>2015-05-09T09:17:15Z</time>
      </trkpt>
      <trkpt lat="44.71895" lon="5.47452">
        <ele>1175.35</ele>
        <time>2015-05-09T09:17:20Z</time>
      </trkpt>
      <trkpt lat="44.71891" lon="5.47446">
        <ele>1175.35</ele>
        <time>2015-05-09T09:17:24Z</time>
      </trkpt>
      <trkpt lat="44.71884" lon="5.47444">
        <ele>1174.87</ele>
        <time>2015-05-09T09:17:30Z</time>
      </trkpt>
      <trkpt lat="44.71882" lon="5.47441">
        <ele>1174.87</ele>
        <time>2015-05-09T09:17:32Z</time>
      </trkpt>
      <trkpt lat="44.71869" lon="5.47426">
        <ele>1174.39</ele>
        <time>2015-05-09T09:17:45Z</time>
      </trkpt>
      <trkpt lat="44.71853" lon="5.47417">
        <ele>1173.91</ele>
        <time>2015-05-09T09:17:58Z</time>
      </trkpt>
      <trkpt lat="44.71847" lon="5.47413">
        <ele>1172.47</ele>
        <time>2015-05-09T09:18:03Z</time>
      </trkpt>
      <trkpt lat="44.71844" lon="5.47412">
        <ele>1171.98</ele>
        <time>2015-05-09T09:18:05Z</time>
      </trkpt>
      <trkpt lat="44.71837" lon="5.47404">
        <ele>1171.5</ele>
        <time>2015-05-09T09:18:12Z</time>
      </trkpt>
      <trkpt lat="44.71824" lon="5.47394">
        <ele>1169.1</ele>
        <time>2015-05-09T09:18:25Z</time>
      </trkpt>
      <trkpt lat="44.7181" lon="5.47384">
        <ele>1166.7</ele>
        <time>2015-05-09T09:18:37Z</time>
      </trkpt>
      <trkpt lat="44.71809" lon="5.47383">
        <ele>1166.7</ele>
        <time>2015-05-09T09:18:38Z</time>
      </trkpt>
      <trkpt lat="44.71801" lon="5.47373">
        <ele>1165.26</ele>
        <time>2015-05-09T09:18:48Z</time>
      </trkpt>
      <trkpt lat="44.71797" lon="5.47375">
        <ele>1164.77</ele>
        <time>2015-05-09T09:19:03Z</time>
      </trkpt>
      <trkpt lat="44.71795" lon="5.47377">
        <ele>1164.77</ele>
        <time>2015-05-09T09:19:07Z</time>
      </trkpt>
      <trkpt lat="44.71791" lon="5.47376">
        <ele>1164.29</ele>
        <time>2015-05-09T09:19:10Z</time>
      </trkpt>
      <trkpt lat="44.71788" lon="5.47376">
        <ele>1164.77</ele>
        <time>2015-05-09T09:19:23Z</time>
      </trkpt>
      <trkpt lat="44.71789" lon="5.47373">
        <ele>1164.29</ele>
        <time>2015-05-09T09:22:47Z</time>
      </trkpt>
      <trkpt lat="44.7179" lon="5.47372">
        <ele>1163.81</ele>
        <time>2015-05-09T09:22:48Z</time>
      </trkpt>
      <trkpt lat="44.71797" lon="5.47371">
        <ele>1163.33</ele>
        <time>2015-05-09T09:23:03Z</time>
      </trkpt>
      <trkpt lat="44.71799" lon="5.47374">
        <ele>1163.81</ele>
        <time>2015-05-09T09:23:16Z</time>
      </trkpt>
      <trkpt lat="44.718" lon="5.47377">
        <ele>1163.81</ele>
        <time>2015-05-09T09:23:45Z</time>
      </trkpt>
      <trkpt lat="44.718" lon="5.47376">
        <ele>1162.85</ele>
        <time>2015-05-09T09:23:48Z</time>
      </trkpt>
      <trkpt lat="44.71803" lon="5.4737">
        <ele>1163.33</ele>
        <time>2015-05-09T09:23:52Z</time>
      </trkpt>
      <trkpt lat="44.71804" lon="5.47359">
        <ele>1162.85</ele>
        <time>2015-05-09T09:23:58Z</time>
      </trkpt>
      <trkpt lat="44.71805" lon="5.47356">
        <ele>1163.33</ele>
        <time>2015-05-09T09:24:01Z</time>
      </trkpt>
      <trkpt lat="44.71808" lon="5.4735">
        <ele>1162.85</ele>
        <time>2015-05-09T09:24:04Z</time>
      </trkpt>
      <trkpt lat="44.71813" lon="5.47332">
        <ele>1162.37</ele>
        <time>2015-05-09T09:24:14Z</time>
      </trkpt>
      <trkpt lat="44.71814" lon="5.47329">
        <ele>1162.37</ele>
        <time>2015-05-09T09:24:16Z</time>
      </trkpt>
      <trkpt lat="44.71818" lon="5.47316">
        <ele>1161.41</ele>
        <time>2015-05-09T09:24:22Z</time>
      </trkpt>
      <trkpt lat="44.71823" lon="5.47311">
        <ele>1161.41</ele>
        <time>2015-05-09T09:24:28Z</time>
      </trkpt>
      <trkpt lat="44.71826" lon="5.47307">
        <ele>1161.89</ele>
        <time>2015-05-09T09:24:32Z</time>
      </trkpt>
      <trkpt lat="44.71836" lon="5.47295">
        <ele>1161.41</ele>
        <time>2015-05-09T09:24:44Z</time>
      </trkpt>
      <trkpt lat="44.71837" lon="5.47293">
        <ele>1161.89</ele>
        <time>2015-05-09T09:24:45Z</time>
      </trkpt>
      <trkpt lat="44.71851" lon="5.47281">
        <ele>1161.41</ele>
        <time>2015-05-09T09:24:57Z</time>
      </trkpt>
      <trkpt lat="44.71868" lon="5.4727">
        <ele>1161.41</ele>
        <time>2015-05-09T09:25:08Z</time>
      </trkpt>
      <trkpt lat="44.71872" lon="5.47265">
        <ele>1161.41</ele>
        <time>2015-05-09T09:25:13Z</time>
      </trkpt>
      <trkpt lat="44.71874" lon="5.47248">
        <ele>1161.89</ele>
        <time>2015-05-09T09:25:25Z</time>
      </trkpt>
      <trkpt lat="44.71875" lon="5.47246">
        <ele>1161.89</ele>
        <time>2015-05-09T09:25:26Z</time>
      </trkpt>
      <trkpt lat="44.71888" lon="5.47229">
        <ele>1161.89</ele>
        <time>2015-05-09T09:25:40Z</time>
      </trkpt>
      <trkpt lat="44.71886" lon="5.47217">
        <ele>1161.41</ele>
        <time>2015-05-09T09:25:49Z</time>
      </trkpt>
      <trkpt lat="44.71882" lon="5.47202">
        <ele>1159.97</ele>
        <time>2015-05-09T09:25:58Z</time>
      </trkpt>
      <trkpt lat="44.71883" lon="5.47192">
        <ele>1159.01</ele>
        <time>2015-05-09T09:26:04Z</time>
      </trkpt>
      <trkpt lat="44.71875" lon="5.47175">
        <ele>1156.6</ele>
        <time>2015-05-09T09:26:17Z</time>
      </trkpt>
      <trkpt lat="44.71867" lon="5.47155">
        <ele>1155.16</ele>
        <time>2015-05-09T09:26:28Z</time>
      </trkpt>
      <trkpt lat="44.71867" lon="5.47148">
        <ele>1153.72</ele>
        <time>2015-05-09T09:26:33Z</time>
      </trkpt>
      <trkpt lat="44.71865" lon="5.47136">
        <ele>1152.76</ele>
        <time>2015-05-09T09:26:39Z</time>
      </trkpt>
      <trkpt lat="44.71865" lon="5.47127">
        <ele>1150.84</ele>
        <time>2015-05-09T09:26:50Z</time>
      </trkpt>
      <trkpt lat="44.71865" lon="5.47126">
        <ele>1151.32</ele>
        <time>2015-05-09T09:26:53Z</time>
      </trkpt>
      <trkpt lat="44.71864" lon="5.47128">
        <ele>1150.84</ele>
        <time>2015-05-09T09:26:55Z</time>
      </trkpt>
      <trkpt lat="44.71857" lon="5.47154">
        <ele>1146.99</ele>
        <time>2015-05-09T09:27:11Z</time>
      </trkpt>
      <trkpt lat="44.71857" lon="5.47169">
        <ele>1145.55</ele>
        <time>2015-05-09T09:27:19Z</time>
      </trkpt>
      <trkpt lat="44.71856" lon="5.47173">
        <ele>1145.07</ele>
        <time>2015-05-09T09:27:22Z</time>
      </trkpt>
      <trkpt lat="44.71852" lon="5.47156">
        <ele>1142.18</ele>
        <time>2015-05-09T09:27:34Z</time>
      </trkpt>
      <trkpt lat="44.71851" lon="5.47153">
        <ele>1141.7</ele>
        <time>2015-05-09T09:27:36Z</time>
      </trkpt>
      <trkpt lat="44.71852" lon="5.47144">
        <ele>1140.74</ele>
        <time>2015-05-09T09:27:42Z</time>
      </trkpt>
      <trkpt lat="44.71852" lon="5.47134">
        <ele>1139.3</ele>
        <time>2015-05-09T09:27:48Z</time>
      </trkpt>
      <trkpt lat="44.71853" lon="5.47129">
        <ele>1138.82</ele>
        <time>2015-05-09T09:27:51Z</time>
      </trkpt>
      <trkpt lat="44.71851" lon="5.47118">
        <ele>1137.38</ele>
        <time>2015-05-09T09:28:05Z</time>
      </trkpt>
      <trkpt lat="44.71855" lon="5.47113">
        <ele>1137.38</ele>
        <time>2015-05-09T09:28:23Z</time>
      </trkpt>
      <trkpt lat="44.71855" lon="5.47112">
        <ele>1136.9</ele>
        <time>2015-05-09T09:28:38Z</time>
      </trkpt>
      <trkpt lat="44.71855" lon="5.47112">
        <ele>1134.01</ele>
        <time>2015-05-09T09:28:43Z</time>
      </trkpt>
      <trkpt lat="44.71855" lon="5.47112">
        <ele>1136.9</ele>
        <time>2015-05-09T09:28:44Z</time>
      </trkpt>
      <trkpt lat="44.71861" lon="5.47107">
        <ele>1137.38</ele>
        <time>2015-05-09T09:30:03Z</time>
      </trkpt>
      <trkpt lat="44.71866" lon="5.47092">
        <ele>1135.94</ele>
        <time>2015-05-09T09:30:18Z</time>
      </trkpt>
      <trkpt lat="44.71866" lon="5.47088">
        <ele>1135.45</ele>
        <time>2015-05-09T09:30:23Z</time>
      </trkpt>
      <trkpt lat="44.71865" lon="5.47082">
        <ele>1134.97</ele>
        <time>2015-05-09T09:30:27Z</time>
      </trkpt>
      <trkpt lat="44.71863" lon="5.47066">
        <ele>1133.53</ele>
        <time>2015-05-09T09:30:38Z</time>
      </trkpt>
      <trkpt lat="44.71869" lon="5.47041">
        <ele>1129.69</ele>
        <time>2015-05-09T09:30:56Z</time>
      </trkpt>
      <trkpt lat="44.7187" lon="5.47024">
        <ele>1128.24</ele>
        <time>2015-05-09T09:31:07Z</time>
      </trkpt>
      <trkpt lat="44.71877" lon="5.4701">
        <ele>1126.32</ele>
        <time>2015-05-09T09:31:19Z</time>
      </trkpt>
      <trkpt lat="44.71882" lon="5.46994">
        <ele>1124.88</ele>
        <time>2015-05-09T09:31:30Z</time>
      </trkpt>
      <trkpt lat="44.71881" lon="5.4697">
        <ele>1122</ele>
        <time>2015-05-09T09:31:44Z</time>
      </trkpt>
      <trkpt lat="44.71881" lon="5.46968">
        <ele>1121.52</ele>
        <time>2015-05-09T09:31:45Z</time>
      </trkpt>
      <trkpt lat="44.71881" lon="5.46947">
        <ele>1119.11</ele>
        <time>2015-05-09T09:31:58Z</time>
      </trkpt>
      <trkpt lat="44.71882" lon="5.46941">
        <ele>1118.63</ele>
        <time>2015-05-09T09:32:01Z</time>
      </trkpt>
      <trkpt lat="44.71884" lon="5.4693">
        <ele>1118.15</ele>
        <time>2015-05-09T09:32:08Z</time>
      </trkpt>
      <trkpt lat="44.71892" lon="5.46911">
        <ele>1114.79</ele>
        <time>2015-05-09T09:32:21Z</time>
      </trkpt>
      <trkpt lat="44.71894" lon="5.46907">
        <ele>1115.27</ele>
        <time>2015-05-09T09:32:25Z</time>
      </trkpt>
      <trkpt lat="44.71896" lon="5.46903">
        <ele>1114.31</ele>
        <time>2015-05-09T09:32:30Z</time>
      </trkpt>
      <trkpt lat="44.71903" lon="5.46892">
        <ele>1113.34</ele>
        <time>2015-05-09T09:32:41Z</time>
      </trkpt>
      <trkpt lat="44.71911" lon="5.46881">
        <ele>1112.38</ele>
        <time>2015-05-09T09:32:51Z</time>
      </trkpt>
      <trkpt lat="44.71913" lon="5.4688">
        <ele>1111.9</ele>
        <time>2015-05-09T09:32:53Z</time>
      </trkpt>
      <trkpt lat="44.71918" lon="5.46877">
        <ele>1111.42</ele>
        <time>2015-05-09T09:32:58Z</time>
      </trkpt>
      <trkpt lat="44.71929" lon="5.46866">
        <ele>1109.5</ele>
        <time>2015-05-09T09:33:12Z</time>
      </trkpt>
      <trkpt lat="44.71942" lon="5.46858">
        <ele>1108.06</ele>
        <time>2015-05-09T09:33:25Z</time>
      </trkpt>
      <trkpt lat="44.71957" lon="5.46845">
        <ele>1105.65</ele>
        <time>2015-05-09T09:33:38Z</time>
      </trkpt>
      <trkpt lat="44.71967" lon="5.46833">
        <ele>1103.73</ele>
        <time>2015-05-09T09:33:49Z</time>
      </trkpt>
      <trkpt lat="44.71983" lon="5.46822">
        <ele>1102.29</ele>
        <time>2015-05-09T09:34:04Z</time>
      </trkpt>
      <trkpt lat="44.71993" lon="5.46811">
        <ele>1101.33</ele>
        <time>2015-05-09T09:34:13Z</time>
      </trkpt>
      <trkpt lat="44.7201" lon="5.46806">
        <ele>1100.37</ele>
        <time>2015-05-09T09:34:27Z</time>
      </trkpt>
      <trkpt lat="44.72011" lon="5.46805">
        <ele>1100.37</ele>
        <time>2015-05-09T09:34:28Z</time>
      </trkpt>
      <trkpt lat="44.72017" lon="5.46805">
        <ele>1099.89</ele>
        <time>2015-05-09T09:34:35Z</time>
      </trkpt>
      <trkpt lat="44.72024" lon="5.46811">
        <ele>1101.81</ele>
        <time>2015-05-09T09:34:46Z</time>
      </trkpt>
      <trkpt lat="44.72024" lon="5.46813">
        <ele>1103.73</ele>
        <time>2015-05-09T09:35:00Z</time>
      </trkpt>
      <trkpt lat="44.72024" lon="5.46813">
        <ele>1103.73</ele>
        <time>2015-05-09T09:35:22Z</time>
      </trkpt>
      <trkpt lat="44.72024" lon="5.46813">
        <ele>1103.73</ele>
        <time>2015-05-09T09:35:58Z</time>
      </trkpt>
      <trkpt lat="44.72026" lon="5.46811">
        <ele>1101.81</ele>
        <time>2015-05-09T09:36:26Z</time>
      </trkpt>
      <trkpt lat="44.72029" lon="5.46811">
        <ele>1099.89</ele>
        <time>2015-05-09T09:36:33Z</time>
      </trkpt>
      <trkpt lat="44.72031" lon="5.46811">
        <ele>1099.89</ele>
        <time>2015-05-09T09:36:35Z</time>
      </trkpt>
      <trkpt lat="44.72036" lon="5.4681">
        <ele>1099.4</ele>
        <time>2015-05-09T09:36:38Z</time>
      </trkpt>
      <trkpt lat="44.72048" lon="5.46808">
        <ele>1098.44</ele>
        <time>2015-05-09T09:36:51Z</time>
      </trkpt>
      <trkpt lat="44.72045" lon="5.46792">
        <ele>1097</ele>
        <time>2015-05-09T09:37:04Z</time>
      </trkpt>
      <trkpt lat="44.72045" lon="5.46783">
        <ele>1096.52</ele>
        <time>2015-05-09T09:37:12Z</time>
      </trkpt>
      <trkpt lat="44.72044" lon="5.46772">
        <ele>1095.56</ele>
        <time>2015-05-09T09:37:17Z</time>
      </trkpt>
      <trkpt lat="44.72049" lon="5.46752">
        <ele>1092.68</ele>
        <time>2015-05-09T09:37:32Z</time>
      </trkpt>
      <trkpt lat="44.72053" lon="5.46725">
        <ele>1090.27</ele>
        <time>2015-05-09T09:37:47Z</time>
      </trkpt>
      <trkpt lat="44.72056" lon="5.46716">
        <ele>1089.79</ele>
        <time>2015-05-09T09:37:51Z</time>
      </trkpt>
      <trkpt lat="44.7206" lon="5.46708">
        <ele>1089.31</ele>
        <time>2015-05-09T09:37:57Z</time>
      </trkpt>
      <trkpt lat="44.72062" lon="5.46699">
        <ele>1088.35</ele>
        <time>2015-05-09T09:38:02Z</time>
      </trkpt>
      <trkpt lat="44.72068" lon="5.4669">
        <ele>1087.39</ele>
        <time>2015-05-09T09:38:08Z</time>
      </trkpt>
      <trkpt lat="44.72078" lon="5.46681">
        <ele>1084.99</ele>
        <time>2015-05-09T09:38:18Z</time>
      </trkpt>
      <trkpt lat="44.72081" lon="5.46678">
        <ele>1084.02</ele>
        <time>2015-05-09T09:38:21Z</time>
      </trkpt>
      <trkpt lat="44.72093" lon="5.46668">
        <ele>1082.1</ele>
        <time>2015-05-09T09:38:34Z</time>
      </trkpt>
      <trkpt lat="44.72095" lon="5.46668">
        <ele>1081.62</ele>
        <time>2015-05-09T09:38:35Z</time>
      </trkpt>
      <trkpt lat="44.72111" lon="5.4665">
        <ele>1079.22</ele>
        <time>2015-05-09T09:38:49Z</time>
      </trkpt>
      <trkpt lat="44.72114" lon="5.46647">
        <ele>1078.74</ele>
        <time>2015-05-09T09:38:51Z</time>
      </trkpt>
      <trkpt lat="44.72128" lon="5.46639">
        <ele>1076.81</ele>
        <time>2015-05-09T09:39:04Z</time>
      </trkpt>
      <trkpt lat="44.72138" lon="5.46631">
        <ele>1075.85</ele>
        <time>2015-05-09T09:39:12Z</time>
      </trkpt>
      <trkpt lat="44.72144" lon="5.46617">
        <ele>1072.01</ele>
        <time>2015-05-09T09:39:25Z</time>
      </trkpt>
      <trkpt lat="44.72145" lon="5.46616">
        <ele>1072.01</ele>
        <time>2015-05-09T09:39:26Z</time>
      </trkpt>
      <trkpt lat="44.7216" lon="5.46609">
        <ele>1069.6</ele>
        <time>2015-05-09T09:39:38Z</time>
      </trkpt>
      <trkpt lat="44.72168" lon="5.46612">
        <ele>1069.12</ele>
        <time>2015-05-09T09:39:43Z</time>
      </trkpt>
      <trkpt lat="44.72173" lon="5.46614">
        <ele>1068.64</ele>
        <time>2015-05-09T09:39:46Z</time>
      </trkpt>
      <trkpt lat="44.72186" lon="5.46614">
        <ele>1066.72</ele>
        <time>2015-05-09T09:39:57Z</time>
      </trkpt>
      <trkpt lat="44.72187" lon="5.46613">
        <ele>1066.72</ele>
        <time>2015-05-09T09:39:58Z</time>
      </trkpt>
      <trkpt lat="44.72194" lon="5.46613">
        <ele>1066.24</ele>
        <time>2015-05-09T09:40:02Z</time>
      </trkpt>
      <trkpt lat="44.72204" lon="5.46609">
        <ele>1064.32</ele>
        <time>2015-05-09T09:40:13Z</time>
      </trkpt>
      <trkpt lat="44.72209" lon="5.46604">
        <ele>1063.36</ele>
        <time>2015-05-09T09:40:17Z</time>
      </trkpt>
      <trkpt lat="44.72213" lon="5.46595">
        <ele>1061.43</ele>
        <time>2015-05-09T09:40:29Z</time>
      </trkpt>
      <trkpt lat="44.72212" lon="5.46592">
        <ele>1060.95</ele>
        <time>2015-05-09T09:40:31Z</time>
      </trkpt>
      <trkpt lat="44.72209" lon="5.4659">
        <ele>1060.47</ele>
        <time>2015-05-09T09:40:34Z</time>
      </trkpt>
      <trkpt lat="44.72202" lon="5.4658">
        <ele>1058.55</ele>
        <time>2015-05-09T09:40:48Z</time>
      </trkpt>
      <trkpt lat="44.72204" lon="5.46574">
        <ele>1058.07</ele>
        <time>2015-05-09T09:41:00Z</time>
      </trkpt>
      <trkpt lat="44.72205" lon="5.46564">
        <ele>1057.59</ele>
        <time>2015-05-09T09:41:03Z</time>
      </trkpt>
      <trkpt lat="44.72202" lon="5.46549">
        <ele>1055.67</ele>
        <time>2015-05-09T09:41:11Z</time>
      </trkpt>
      <trkpt lat="44.72201" lon="5.46538">
        <ele>1055.67</ele>
        <time>2015-05-09T09:41:18Z</time>
      </trkpt>
      <trkpt lat="44.72202" lon="5.46534">
        <ele>1055.67</ele>
        <time>2015-05-09T09:41:20Z</time>
      </trkpt>
      <trkpt lat="44.72199" lon="5.46524">
        <ele>1053.74</ele>
        <time>2015-05-09T09:41:25Z</time>
      </trkpt>
      <trkpt lat="44.72198" lon="5.4651">
        <ele>1050.86</ele>
        <time>2015-05-09T09:41:35Z</time>
      </trkpt>
      <trkpt lat="44.72198" lon="5.46509">
        <ele>1050.86</ele>
        <time>2015-05-09T09:41:36Z</time>
      </trkpt>
      <trkpt lat="44.722" lon="5.46503">
        <ele>1049.42</ele>
        <time>2015-05-09T09:41:41Z</time>
      </trkpt>
      <trkpt lat="44.72209" lon="5.46494">
        <ele>1047.97</ele>
        <time>2015-05-09T09:41:48Z</time>
      </trkpt>
      <trkpt lat="44.7221" lon="5.46493">
        <ele>1047.97</ele>
        <time>2015-05-09T09:41:50Z</time>
      </trkpt>
      <trkpt lat="44.72219" lon="5.4648">
        <ele>1047.01</ele>
        <time>2015-05-09T09:41:59Z</time>
      </trkpt>
      <trkpt lat="44.72223" lon="5.46478">
        <ele>1046.05</ele>
        <time>2015-05-09T09:42:03Z</time>
      </trkpt>
      <trkpt lat="44.72229" lon="5.46477">
        <ele>1045.57</ele>
        <time>2015-05-09T09:42:07Z</time>
      </trkpt>
      <trkpt lat="44.7224" lon="5.46473">
        <ele>1043.65</ele>
        <time>2015-05-09T09:42:19Z</time>
      </trkpt>
      <trkpt lat="44.72252" lon="5.46468">
        <ele>1040.76</ele>
        <time>2015-05-09T09:42:30Z</time>
      </trkpt>
      <trkpt lat="44.72261" lon="5.46472">
        <ele>1038.36</ele>
        <time>2015-05-09T09:42:40Z</time>
      </trkpt>
      <trkpt lat="44.72268" lon="5.46465">
        <ele>1039.8</ele>
        <time>2015-05-09T09:42:53Z</time>
      </trkpt>
      <trkpt lat="44.7227" lon="5.46465">
        <ele>1041.25</ele>
        <time>2015-05-09T09:43:08Z</time>
      </trkpt>
      <trkpt lat="44.7227" lon="5.46465">
        <ele>1033.55</ele>
        <time>2015-05-09T09:43:15Z</time>
      </trkpt>
      <trkpt lat="44.7227" lon="5.46465">
        <ele>1046.05</ele>
        <time>2015-05-09T09:43:16Z</time>
      </trkpt>
      <trkpt lat="44.7227" lon="5.46465">
        <ele>1044.13</ele>
        <time>2015-05-09T09:43:17Z</time>
      </trkpt>
      <trkpt lat="44.7227" lon="5.46465">
        <ele>1044.13</ele>
        <time>2015-05-09T09:43:18Z</time>
      </trkpt>
      <trkpt lat="44.72271" lon="5.46465">
        <ele>1039.32</ele>
        <time>2015-05-09T09:43:19Z</time>
      </trkpt>
      <trkpt lat="44.72271" lon="5.46466">
        <ele>1042.21</ele>
        <time>2015-05-09T09:43:20Z</time>
      </trkpt>
      <trkpt lat="44.72271" lon="5.46467">
        <ele>1037.88</ele>
        <time>2015-05-09T09:43:21Z</time>
      </trkpt>
      <trkpt lat="44.72271" lon="5.46467">
        <ele>1045.57</ele>
        <time>2015-05-09T09:43:22Z</time>
      </trkpt>
      <trkpt lat="44.72271" lon="5.46467">
        <ele>1041.25</ele>
        <time>2015-05-09T09:43:23Z</time>
      </trkpt>
      <trkpt lat="44.72271" lon="5.46467">
        <ele>1039.32</ele>
        <time>2015-05-09T09:43:24Z</time>
      </trkpt>
      <trkpt lat="44.72271" lon="5.46468">
        <ele>1043.65</ele>
        <time>2015-05-09T09:43:25Z</time>
      </trkpt>
      <trkpt lat="44.72271" lon="5.46468">
        <ele>1036.92</ele>
        <time>2015-05-09T09:43:26Z</time>
      </trkpt>
      <trkpt lat="44.7227" lon="5.46469">
        <ele>1039.8</ele>
        <time>2015-05-09T09:43:27Z</time>
      </trkpt>
      <trkpt lat="44.7227" lon="5.4647">
        <ele>1042.21</ele>
        <time>2015-05-09T09:43:28Z</time>
      </trkpt>
      <trkpt lat="44.7227" lon="5.46471">
        <ele>1040.28</ele>
        <time>2015-05-09T09:43:29Z</time>
      </trkpt>
      <trkpt lat="44.7227" lon="5.46471">
        <ele>1042.21</ele>
        <time>2015-05-09T09:43:30Z</time>
      </trkpt>
      <trkpt lat="44.72269" lon="5.46473">
        <ele>1040.76</ele>
        <time>2015-05-09T09:43:49Z</time>
      </trkpt>
      <trkpt lat="44.72269" lon="5.46473">
        <ele>1040.76</ele>
        <time>2015-05-09T09:44:16Z</time>
      </trkpt>
      <trkpt lat="44.72269" lon="5.46473">
        <ele>1040.28</ele>
        <time>2015-05-09T09:44:44Z</time>
      </trkpt>
      <trkpt lat="44.72269" lon="5.46472">
        <ele>1040.76</ele>
        <time>2015-05-09T09:45:18Z</time>
      </trkpt>
      <trkpt lat="44.72269" lon="5.46472">
        <ele>1040.76</ele>
        <time>2015-05-09T09:45:50Z</time>
      </trkpt>
      <trkpt lat="44.72269" lon="5.46467">
        <ele>1044.61</ele>
        <time>2015-05-09T09:46:06Z</time>
      </trkpt>
      <trkpt lat="44.72267" lon="5.46454">
        <ele>1047.01</ele>
        <time>2015-05-09T09:46:19Z</time>
      </trkpt>
      <trkpt lat="44.72269" lon="5.4644">
        <ele>1049.42</ele>
        <time>2015-05-09T09:46:27Z</time>
      </trkpt>
      <trkpt lat="44.7228" lon="5.46436">
        <ele>1051.34</ele>
        <time>2015-05-09T09:46:41Z</time>
      </trkpt>
      <trkpt lat="44.72282" lon="5.46422">
        <ele>1051.34</ele>
        <time>2015-05-09T09:46:53Z</time>
      </trkpt>
      <trkpt lat="44.72281" lon="5.46421">
        <ele>1051.82</ele>
        <time>2015-05-09T09:46:55Z</time>
      </trkpt>
      <trkpt lat="44.72276" lon="5.46417">
        <ele>1051.34</ele>
        <time>2015-05-09T09:46:59Z</time>
      </trkpt>
      <trkpt lat="44.72272" lon="5.46411">
        <ele>1051.34</ele>
        <time>2015-05-09T09:47:06Z</time>
      </trkpt>
      <trkpt lat="44.72267" lon="5.4639">
        <ele>1053.26</ele>
        <time>2015-05-09T09:47:21Z</time>
      </trkpt>
      <trkpt lat="44.7227" lon="5.46379">
        <ele>1054.22</ele>
        <time>2015-05-09T09:47:26Z</time>
      </trkpt>
      <trkpt lat="44.72269" lon="5.46364">
        <ele>1055.67</ele>
        <time>2015-05-09T09:47:38Z</time>
      </trkpt>
      <trkpt lat="44.72258" lon="5.46347">
        <ele>1057.59</ele>
        <time>2015-05-09T09:47:54Z</time>
      </trkpt>
      <trkpt lat="44.72257" lon="5.46339">
        <ele>1059.51</ele>
        <time>2015-05-09T09:48:05Z</time>
      </trkpt>
      <trkpt lat="44.7226" lon="5.46343">
        <ele>1060.95</ele>
        <time>2015-05-09T09:48:11Z</time>
      </trkpt>
      <trkpt lat="44.72263" lon="5.46351">
        <ele>1061.43</ele>
        <time>2015-05-09T09:48:17Z</time>
      </trkpt>
      <trkpt lat="44.72267" lon="5.4636">
        <ele>1061.91</ele>
        <time>2015-05-09T09:48:23Z</time>
      </trkpt>
      <trkpt lat="44.72271" lon="5.46365">
        <ele>1063.36</ele>
        <time>2015-05-09T09:48:29Z</time>
      </trkpt>
      <trkpt lat="44.72279" lon="5.46375">
        <ele>1065.28</ele>
        <time>2015-05-09T09:48:42Z</time>
      </trkpt>
      <trkpt lat="44.72282" lon="5.46377">
        <ele>1065.76</ele>
        <time>2015-05-09T09:48:47Z</time>
      </trkpt>
      <trkpt lat="44.72283" lon="5.46382">
        <ele>1066.24</ele>
        <time>2015-05-09T09:48:51Z</time>
      </trkpt>
      <trkpt lat="44.72284" lon="5.46385">
        <ele>1066.72</ele>
        <time>2015-05-09T09:48:53Z</time>
      </trkpt>
      <trkpt lat="44.72288" lon="5.46382">
        <ele>1068.64</ele>
        <time>2015-05-09T09:49:06Z</time>
      </trkpt>
      <trkpt lat="44.7229" lon="5.46376">
        <ele>1069.12</ele>
        <time>2015-05-09T09:49:12Z</time>
      </trkpt>
      <trkpt lat="44.72283" lon="5.46363">
        <ele>1071.05</ele>
        <time>2015-05-09T09:49:26Z</time>
      </trkpt>
      <trkpt lat="44.72283" lon="5.46362">
        <ele>1071.05</ele>
        <time>2015-05-09T09:49:27Z</time>
      </trkpt>
      <trkpt lat="44.7228" lon="5.46354">
        <ele>1072.01</ele>
        <time>2015-05-09T09:49:33Z</time>
      </trkpt>
      <trkpt lat="44.72279" lon="5.46351">
        <ele>1072.01</ele>
        <time>2015-05-09T09:49:35Z</time>
      </trkpt>
      <trkpt lat="44.72276" lon="5.46342">
        <ele>1072.97</ele>
        <time>2015-05-09T09:49:42Z</time>
      </trkpt>
      <trkpt lat="44.72274" lon="5.46319">
        <ele>1073.45</ele>
        <time>2015-05-09T09:49:53Z</time>
      </trkpt>
      <trkpt lat="44.72269" lon="5.46311">
        <ele>1074.41</ele>
        <time>2015-05-09T09:49:59Z</time>
      </trkpt>
      <trkpt lat="44.72254" lon="5.46305">
        <ele>1075.85</ele>
        <time>2015-05-09T09:50:11Z</time>
      </trkpt>
      <trkpt lat="44.72246" lon="5.46291">
        <ele>1077.78</ele>
        <time>2015-05-09T09:50:24Z</time>
      </trkpt>
      <trkpt lat="44.72237" lon="5.46276">
        <ele>1080.18</ele>
        <time>2015-05-09T09:50:38Z</time>
      </trkpt>
      <trkpt lat="44.72231" lon="5.46264">
        <ele>1082.58</ele>
        <time>2015-05-09T09:50:48Z</time>
      </trkpt>
      <trkpt lat="44.72224" lon="5.46252">
        <ele>1084.02</ele>
        <time>2015-05-09T09:50:59Z</time>
      </trkpt>
      <trkpt lat="44.72211" lon="5.46233">
        <ele>1085.95</ele>
        <time>2015-05-09T09:51:15Z</time>
      </trkpt>
      <trkpt lat="44.72206" lon="5.46228">
        <ele>1086.91</ele>
        <time>2015-05-09T09:51:20Z</time>
      </trkpt>
      <trkpt lat="44.7219" lon="5.46217">
        <ele>1088.35</ele>
        <time>2015-05-09T09:51:34Z</time>
      </trkpt>
      <trkpt lat="44.72189" lon="5.46215">
        <ele>1089.31</ele>
        <time>2015-05-09T09:51:36Z</time>
      </trkpt>
      <trkpt lat="44.72187" lon="5.46209">
        <ele>1089.79</ele>
        <time>2015-05-09T09:51:41Z</time>
      </trkpt>
      <trkpt lat="44.72183" lon="5.46199">
        <ele>1091.23</ele>
        <time>2015-05-09T09:51:48Z</time>
      </trkpt>
      <trkpt lat="44.72182" lon="5.46191">
        <ele>1091.71</ele>
        <time>2015-05-09T09:51:53Z</time>
      </trkpt>
      <trkpt lat="44.72177" lon="5.46186">
        <ele>1092.68</ele>
        <time>2015-05-09T09:51:59Z</time>
      </trkpt>
      <trkpt lat="44.72165" lon="5.46171">
        <ele>1094.6</ele>
        <time>2015-05-09T09:52:14Z</time>
      </trkpt>
      <trkpt lat="44.72156" lon="5.46156">
        <ele>1096.52</ele>
        <time>2015-05-09T09:52:28Z</time>
      </trkpt>
      <trkpt lat="44.72142" lon="5.46141">
        <ele>1098.92</ele>
        <time>2015-05-09T09:52:44Z</time>
      </trkpt>
      <trkpt lat="44.72133" lon="5.46128">
        <ele>1100.85</ele>
        <time>2015-05-09T09:52:59Z</time>
      </trkpt>
      <trkpt lat="44.72124" lon="5.46112">
        <ele>1103.73</ele>
        <time>2015-05-09T09:53:12Z</time>
      </trkpt>
      <trkpt lat="44.72107" lon="5.46102">
        <ele>1106.61</ele>
        <time>2015-05-09T09:53:28Z</time>
      </trkpt>
      <trkpt lat="44.72089" lon="5.46091">
        <ele>1109.02</ele>
        <time>2015-05-09T09:53:46Z</time>
      </trkpt>
      <trkpt lat="44.72076" lon="5.46082">
        <ele>1111.42</ele>
        <time>2015-05-09T09:54:00Z</time>
      </trkpt>
      <trkpt lat="44.72059" lon="5.46076">
        <ele>1113.34</ele>
        <time>2015-05-09T09:54:15Z</time>
      </trkpt>
      <trkpt lat="44.72055" lon="5.46072">
        <ele>1113.82</ele>
        <time>2015-05-09T09:54:19Z</time>
      </trkpt>
      <trkpt lat="44.72045" lon="5.46066">
        <ele>1115.27</ele>
        <time>2015-05-09T09:54:34Z</time>
      </trkpt>
      <trkpt lat="44.72043" lon="5.46067">
        <ele>1115.75</ele>
        <time>2015-05-09T09:54:51Z</time>
      </trkpt>
      <trkpt lat="44.72043" lon="5.46067">
        <ele>1115.27</ele>
        <time>2015-05-09T09:54:56Z</time>
      </trkpt>
      <trkpt lat="44.72034" lon="5.46063">
        <ele>1108.54</ele>
        <time>2015-05-09T11:00:19Z</time>
      </trkpt>
      <trkpt lat="44.72047" lon="5.4607">
        <ele>1110.94</ele>
        <time>2015-05-09T11:00:31Z</time>
      </trkpt>
      <trkpt lat="44.72047" lon="5.46069">
        <ele>1110.94</ele>
        <time>2015-05-09T11:00:32Z</time>
      </trkpt>
      <trkpt lat="44.72052" lon="5.46069">
        <ele>1114.31</ele>
        <time>2015-05-09T11:00:37Z</time>
      </trkpt>
      <trkpt lat="44.7206" lon="5.4607">
        <ele>1117.67</ele>
        <time>2015-05-09T11:00:44Z</time>
      </trkpt>
      <trkpt lat="44.72061" lon="5.46069">
        <ele>1118.63</ele>
        <time>2015-05-09T11:00:46Z</time>
      </trkpt>
      <trkpt lat="44.72065" lon="5.46068">
        <ele>1121.03</ele>
        <time>2015-05-09T11:00:52Z</time>
      </trkpt>
      <trkpt lat="44.7208" lon="5.46064">
        <ele>1124.88</ele>
        <time>2015-05-09T11:01:04Z</time>
      </trkpt>
      <trkpt lat="44.72084" lon="5.46065">
        <ele>1125.36</ele>
        <time>2015-05-09T11:01:07Z</time>
      </trkpt>
      <trkpt lat="44.72092" lon="5.46062">
        <ele>1126.8</ele>
        <time>2015-05-09T11:01:15Z</time>
      </trkpt>
      <trkpt lat="44.721" lon="5.46059">
        <ele>1126.8</ele>
        <time>2015-05-09T11:01:26Z</time>
      </trkpt>
      <trkpt lat="44.72093" lon="5.46079">
        <ele>1126.8</ele>
        <time>2015-05-09T11:01:53Z</time>
      </trkpt>
      <trkpt lat="44.72095" lon="5.46073">
        <ele>1126.8</ele>
        <time>2015-05-09T11:02:16Z</time>
      </trkpt>
      <trkpt lat="44.72095" lon="5.46072">
        <ele>1126.8</ele>
        <time>2015-05-09T11:02:44Z</time>
      </trkpt>
      <trkpt lat="44.72096" lon="5.46065">
        <ele>1127.28</ele>
        <time>2015-05-09T11:03:12Z</time>
      </trkpt>
      <trkpt lat="44.72096" lon="5.46064">
        <ele>1126.8</ele>
        <time>2015-05-09T11:03:39Z</time>
      </trkpt>
      <trkpt lat="44.72097" lon="5.46062">
        <ele>1126.32</ele>
        <time>2015-05-09T11:04:12Z</time>
      </trkpt>
      <trkpt lat="44.72119" lon="5.46057">
        <ele>1126.8</ele>
        <time>2015-05-09T11:04:24Z</time>
      </trkpt>
      <trkpt lat="44.7212" lon="5.46056">
        <ele>1126.8</ele>
        <time>2015-05-09T11:04:25Z</time>
      </trkpt>
      <trkpt lat="44.72131" lon="5.46058">
        <ele>1127.28</ele>
        <time>2015-05-09T11:04:33Z</time>
      </trkpt>
      <trkpt lat="44.72134" lon="5.4606">
        <ele>1127.76</ele>
        <time>2015-05-09T11:04:35Z</time>
      </trkpt>
      <trkpt lat="44.72153" lon="5.46053">
        <ele>1129.69</ele>
        <time>2015-05-09T11:04:50Z</time>
      </trkpt>
      <trkpt lat="44.72169" lon="5.4605">
        <ele>1131.61</ele>
        <time>2015-05-09T11:05:04Z</time>
      </trkpt>
      <trkpt lat="44.72173" lon="5.46044">
        <ele>1131.13</ele>
        <time>2015-05-09T11:05:09Z</time>
      </trkpt>
      <trkpt lat="44.72174" lon="5.46031">
        <ele>1128.24</ele>
        <time>2015-05-09T11:05:19Z</time>
      </trkpt>
      <trkpt lat="44.72172" lon="5.46033">
        <ele>1127.76</ele>
        <time>2015-05-09T11:05:21Z</time>
      </trkpt>
      <trkpt lat="44.72167" lon="5.46033">
        <ele>1126.8</ele>
        <time>2015-05-09T11:05:25Z</time>
      </trkpt>
      <trkpt lat="44.72158" lon="5.46029">
        <ele>1124.4</ele>
        <time>2015-05-09T11:05:32Z</time>
      </trkpt>
      <trkpt lat="44.72151" lon="5.46028">
        <ele>1122.48</ele>
        <time>2015-05-09T11:05:38Z</time>
      </trkpt>
      <trkpt lat="44.72146" lon="5.46026">
        <ele>1121.03</ele>
        <time>2015-05-09T11:05:42Z</time>
      </trkpt>
      <trkpt lat="44.72136" lon="5.46021">
        <ele>1118.63</ele>
        <time>2015-05-09T11:05:50Z</time>
      </trkpt>
      <trkpt lat="44.72133" lon="5.46019">
        <ele>1117.67</ele>
        <time>2015-05-09T11:05:53Z</time>
      </trkpt>
      <trkpt lat="44.72126" lon="5.46014">
        <ele>1115.27</ele>
        <time>2015-05-09T11:06:00Z</time>
      </trkpt>
      <trkpt lat="44.72119" lon="5.46008">
        <ele>1111.9</ele>
        <time>2015-05-09T11:06:09Z</time>
      </trkpt>
      <trkpt lat="44.72109" lon="5.46001">
        <ele>1109.02</ele>
        <time>2015-05-09T11:06:21Z</time>
      </trkpt>
      <trkpt lat="44.72105" lon="5.45996">
        <ele>1107.58</ele>
        <time>2015-05-09T11:06:26Z</time>
      </trkpt>
      <trkpt lat="44.72101" lon="5.45984">
        <ele>1103.73</ele>
        <time>2015-05-09T11:06:39Z</time>
      </trkpt>
      <trkpt lat="44.72097" lon="5.45973">
        <ele>1100.85</ele>
        <time>2015-05-09T11:06:48Z</time>
      </trkpt>
      <trkpt lat="44.72094" lon="5.45964">
        <ele>1097.48</ele>
        <time>2015-05-09T11:06:57Z</time>
      </trkpt>
      <trkpt lat="44.72091" lon="5.45958">
        <ele>1094.12</ele>
        <time>2015-05-09T11:07:07Z</time>
      </trkpt>
      <trkpt lat="44.72091" lon="5.45958">
        <ele>1091.23</ele>
        <time>2015-05-09T11:07:16Z</time>
      </trkpt>
      <trkpt lat="44.72091" lon="5.45956">
        <ele>1090.75</ele>
        <time>2015-05-09T11:07:17Z</time>
      </trkpt>
      <trkpt lat="44.7209" lon="5.45948">
        <ele>1089.79</ele>
        <time>2015-05-09T11:07:22Z</time>
      </trkpt>
      <trkpt lat="44.72086" lon="5.45934">
        <ele>1086.43</ele>
        <time>2015-05-09T11:07:32Z</time>
      </trkpt>
      <trkpt lat="44.7208" lon="5.45919">
        <ele>1083.54</ele>
        <time>2015-05-09T11:07:41Z</time>
      </trkpt>
      <trkpt lat="44.72079" lon="5.45913">
        <ele>1080.66</ele>
        <time>2015-05-09T11:07:51Z</time>
      </trkpt>
      <trkpt lat="44.72079" lon="5.45896">
        <ele>1077.29</ele>
        <time>2015-05-09T11:08:01Z</time>
      </trkpt>
      <trkpt lat="44.7207" lon="5.45871">
        <ele>1073.93</ele>
        <time>2015-05-09T11:08:09Z</time>
      </trkpt>
      <trkpt lat="44.72069" lon="5.45869">
        <ele>1071.05</ele>
        <time>2015-05-09T11:08:20Z</time>
      </trkpt>
      <trkpt lat="44.72064" lon="5.45859">
        <ele>1067.2</ele>
        <time>2015-05-09T11:08:29Z</time>
      </trkpt>
      <trkpt lat="44.72064" lon="5.45857">
        <ele>1067.2</ele>
        <time>2015-05-09T11:08:30Z</time>
      </trkpt>
      <trkpt lat="44.72063" lon="5.45856">
        <ele>1066.72</ele>
        <time>2015-05-09T11:08:31Z</time>
      </trkpt>
      <trkpt lat="44.72061" lon="5.45837">
        <ele>1063.36</ele>
        <time>2015-05-09T11:08:41Z</time>
      </trkpt>
      <trkpt lat="44.72059" lon="5.45831">
        <ele>1061.91</ele>
        <time>2015-05-09T11:08:45Z</time>
      </trkpt>
      <trkpt lat="44.72057" lon="5.45817">
        <ele>1059.03</ele>
        <time>2015-05-09T11:08:55Z</time>
      </trkpt>
      <trkpt lat="44.72061" lon="5.45804">
        <ele>1055.67</ele>
        <time>2015-05-09T11:09:04Z</time>
      </trkpt>
      <trkpt lat="44.72061" lon="5.45792">
        <ele>1052.78</ele>
        <time>2015-05-09T11:09:14Z</time>
      </trkpt>
      <trkpt lat="44.72058" lon="5.4578">
        <ele>1049.9</ele>
        <time>2015-05-09T11:09:25Z</time>
      </trkpt>
      <trkpt lat="44.72058" lon="5.4578">
        <ele>1049.9</ele>
        <time>2015-05-09T11:09:53Z</time>
      </trkpt>
      <trkpt lat="44.72058" lon="5.4578">
        <ele>1049.9</ele>
        <time>2015-05-09T11:10:24Z</time>
      </trkpt>
      <trkpt lat="44.72057" lon="5.45773">
        <ele>1048.45</ele>
        <time>2015-05-09T11:10:56Z</time>
      </trkpt>
      <trkpt lat="44.72056" lon="5.45762">
        <ele>1046.53</ele>
        <time>2015-05-09T11:11:02Z</time>
      </trkpt>
      <trkpt lat="44.72052" lon="5.4574">
        <ele>1042.69</ele>
        <time>2015-05-09T11:11:15Z</time>
      </trkpt>
      <trkpt lat="44.72048" lon="5.4573">
        <ele>1039.8</ele>
        <time>2015-05-09T11:11:22Z</time>
      </trkpt>
      <trkpt lat="44.72046" lon="5.45724">
        <ele>1038.84</ele>
        <time>2015-05-09T11:11:25Z</time>
      </trkpt>
      <trkpt lat="44.72044" lon="5.45713">
        <ele>1036.92</ele>
        <time>2015-05-09T11:11:31Z</time>
      </trkpt>
      <trkpt lat="44.72044" lon="5.45699">
        <ele>1033.55</ele>
        <time>2015-05-09T11:11:41Z</time>
      </trkpt>
      <trkpt lat="44.72043" lon="5.45686">
        <ele>1030.19</ele>
        <time>2015-05-09T11:11:49Z</time>
      </trkpt>
      <trkpt lat="44.72037" lon="5.45679">
        <ele>1027.31</ele>
        <time>2015-05-09T11:11:58Z</time>
      </trkpt>
      <trkpt lat="44.72029" lon="5.45669">
        <ele>1023.46</ele>
        <time>2015-05-09T11:12:08Z</time>
      </trkpt>
      <trkpt lat="44.72027" lon="5.4566">
        <ele>1020.1</ele>
        <time>2015-05-09T11:12:15Z</time>
      </trkpt>
      <trkpt lat="44.72019" lon="5.45641">
        <ele>1016.73</ele>
        <time>2015-05-09T11:12:27Z</time>
      </trkpt>
      <trkpt lat="44.72013" lon="5.45632">
        <ele>1013.37</ele>
        <time>2015-05-09T11:12:36Z</time>
      </trkpt>
      <trkpt lat="44.72011" lon="5.45622">
        <ele>1010.48</ele>
        <time>2015-05-09T11:12:45Z</time>
      </trkpt>
      <trkpt lat="44.72007" lon="5.45611">
        <ele>1007.12</ele>
        <time>2015-05-09T11:12:55Z</time>
      </trkpt>
      <trkpt lat="44.72004" lon="5.45604">
        <ele>1004.23</ele>
        <time>2015-05-09T11:13:03Z</time>
      </trkpt>
      <trkpt lat="44.71997" lon="5.45589">
        <ele>1000.87</ele>
        <time>2015-05-09T11:13:13Z</time>
      </trkpt>
      <trkpt lat="44.71994" lon="5.45581">
        <ele>998.47</ele>
        <time>2015-05-09T11:13:19Z</time>
      </trkpt>
      <trkpt lat="44.71991" lon="5.4557">
        <ele>996.06</ele>
        <time>2015-05-09T11:13:27Z</time>
      </trkpt>
      <trkpt lat="44.71985" lon="5.45558">
        <ele>992.7</ele>
        <time>2015-05-09T11:13:39Z</time>
      </trkpt>
      <trkpt lat="44.71981" lon="5.4555">
        <ele>989.81</ele>
        <time>2015-05-09T11:13:49Z</time>
      </trkpt>
      <trkpt lat="44.71974" lon="5.45535">
        <ele>986.45</ele>
        <time>2015-05-09T11:13:59Z</time>
      </trkpt>
      <trkpt lat="44.71967" lon="5.45526">
        <ele>985.01</ele>
        <time>2015-05-09T11:14:05Z</time>
      </trkpt>
      <trkpt lat="44.71958" lon="5.45507">
        <ele>981.64</ele>
        <time>2015-05-09T11:14:17Z</time>
      </trkpt>
      <trkpt lat="44.71954" lon="5.45496">
        <ele>979.24</ele>
        <time>2015-05-09T11:14:25Z</time>
      </trkpt>
      <trkpt lat="44.71954" lon="5.45488">
        <ele>977.32</ele>
        <time>2015-05-09T11:14:29Z</time>
      </trkpt>
      <trkpt lat="44.71949" lon="5.45478">
        <ele>974.43</ele>
        <time>2015-05-09T11:14:36Z</time>
      </trkpt>
      <trkpt lat="44.71938" lon="5.45467">
        <ele>971.55</ele>
        <time>2015-05-09T11:14:48Z</time>
      </trkpt>
      <trkpt lat="44.71938" lon="5.45466">
        <ele>971.07</ele>
        <time>2015-05-09T11:14:50Z</time>
      </trkpt>
      <trkpt lat="44.71934" lon="5.45461">
        <ele>969.15</ele>
        <time>2015-05-09T11:14:55Z</time>
      </trkpt>
      <trkpt lat="44.71927" lon="5.45456">
        <ele>968.18</ele>
        <time>2015-05-09T11:15:00Z</time>
      </trkpt>
      <trkpt lat="44.71923" lon="5.45453">
        <ele>966.74</ele>
        <time>2015-05-09T11:15:04Z</time>
      </trkpt>
      <trkpt lat="44.71922" lon="5.45444">
        <ele>963.38</ele>
        <time>2015-05-09T11:15:14Z</time>
      </trkpt>
      <trkpt lat="44.71925" lon="5.45442">
        <ele>962.9</ele>
        <time>2015-05-09T11:15:19Z</time>
      </trkpt>
      <trkpt lat="44.71934" lon="5.45442">
        <ele>961.46</ele>
        <time>2015-05-09T11:15:24Z</time>
      </trkpt>
      <trkpt lat="44.71949" lon="5.45439">
        <ele>957.61</ele>
        <time>2015-05-09T11:15:35Z</time>
      </trkpt>
      <trkpt lat="44.71956" lon="5.4544">
        <ele>954.25</ele>
        <time>2015-05-09T11:15:44Z</time>
      </trkpt>
      <trkpt lat="44.71958" lon="5.4544">
        <ele>953.77</ele>
        <time>2015-05-09T11:15:46Z</time>
      </trkpt>
      <trkpt lat="44.7196" lon="5.45436">
        <ele>950.4</ele>
        <time>2015-05-09T11:15:54Z</time>
      </trkpt>
      <trkpt lat="44.71961" lon="5.45437">
        <ele>950.4</ele>
        <time>2015-05-09T11:15:55Z</time>
      </trkpt>
      <trkpt lat="44.71965" lon="5.45439">
        <ele>948.48</ele>
        <time>2015-05-09T11:15:59Z</time>
      </trkpt>
      <trkpt lat="44.71972" lon="5.45439">
        <ele>946.07</ele>
        <time>2015-05-09T11:16:05Z</time>
      </trkpt>
      <trkpt lat="44.71974" lon="5.4544">
        <ele>945.59</ele>
        <time>2015-05-09T11:16:06Z</time>
      </trkpt>
      <trkpt lat="44.71976" lon="5.45433">
        <ele>943.19</ele>
        <time>2015-05-09T11:16:15Z</time>
      </trkpt>
      <trkpt lat="44.71973" lon="5.45428">
        <ele>940.79</ele>
        <time>2015-05-09T11:16:22Z</time>
      </trkpt>
      <trkpt lat="44.71964" lon="5.45415">
        <ele>938.38</ele>
        <time>2015-05-09T11:16:32Z</time>
      </trkpt>
      <trkpt lat="44.7196" lon="5.45409">
        <ele>935.98</ele>
        <time>2015-05-09T11:16:37Z</time>
      </trkpt>
      <trkpt lat="44.71958" lon="5.45404">
        <ele>934.54</ele>
        <time>2015-05-09T11:16:42Z</time>
      </trkpt>
      <trkpt lat="44.71953" lon="5.45392">
        <ele>931.65</ele>
        <time>2015-05-09T11:16:51Z</time>
      </trkpt>
      <trkpt lat="44.71951" lon="5.45389">
        <ele>930.69</ele>
        <time>2015-05-09T11:16:53Z</time>
      </trkpt>
      <trkpt lat="44.71942" lon="5.45374">
        <ele>928.29</ele>
        <time>2015-05-09T11:17:02Z</time>
      </trkpt>
      <trkpt lat="44.71939" lon="5.45365">
        <ele>925.89</ele>
        <time>2015-05-09T11:17:12Z</time>
      </trkpt>
      <trkpt lat="44.71948" lon="5.45364">
        <ele>923</ele>
        <time>2015-05-09T11:17:22Z</time>
      </trkpt>
      <trkpt lat="44.71943" lon="5.45356">
        <ele>919.64</ele>
        <time>2015-05-09T11:17:31Z</time>
      </trkpt>
      <trkpt lat="44.71941" lon="5.45354">
        <ele>919.16</ele>
        <time>2015-05-09T11:17:33Z</time>
      </trkpt>
      <trkpt lat="44.71937" lon="5.45347">
        <ele>917.72</ele>
        <time>2015-05-09T11:17:39Z</time>
      </trkpt>
      <trkpt lat="44.71927" lon="5.4533">
        <ele>914.35</ele>
        <time>2015-05-09T11:17:52Z</time>
      </trkpt>
      <trkpt lat="44.71932" lon="5.45321">
        <ele>911.47</ele>
        <time>2015-05-09T11:18:00Z</time>
      </trkpt>
      <trkpt lat="44.71933" lon="5.45317">
        <ele>910.51</ele>
        <time>2015-05-09T11:18:13Z</time>
      </trkpt>
      <trkpt lat="44.71933" lon="5.45317">
        <ele>905.7</ele>
        <time>2015-05-09T11:18:16Z</time>
      </trkpt>
      <trkpt lat="44.71933" lon="5.45317">
        <ele>911.47</ele>
        <time>2015-05-09T11:18:17Z</time>
      </trkpt>
      <trkpt lat="44.71933" lon="5.45317">
        <ele>903.3</ele>
        <time>2015-05-09T11:18:19Z</time>
      </trkpt>
      <trkpt lat="44.71933" lon="5.45317">
        <ele>908.58</ele>
        <time>2015-05-09T11:18:20Z</time>
      </trkpt>
      <trkpt lat="44.71933" lon="5.45317">
        <ele>917.24</ele>
        <time>2015-05-09T11:18:21Z</time>
      </trkpt>
      <trkpt lat="44.71933" lon="5.45317">
        <ele>908.1</ele>
        <time>2015-05-09T11:18:22Z</time>
      </trkpt>
      <trkpt lat="44.71933" lon="5.45317">
        <ele>913.87</ele>
        <time>2015-05-09T11:18:24Z</time>
      </trkpt>
      <trkpt lat="44.71933" lon="5.45317">
        <ele>910.99</ele>
        <time>2015-05-09T11:18:25Z</time>
      </trkpt>
      <trkpt lat="44.71933" lon="5.45316">
        <ele>910.03</ele>
        <time>2015-05-09T11:18:50Z</time>
      </trkpt>
      <trkpt lat="44.71933" lon="5.45316">
        <ele>909.06</ele>
        <time>2015-05-09T11:19:05Z</time>
      </trkpt>
      <trkpt lat="44.71933" lon="5.45316">
        <ele>909.54</ele>
        <time>2015-05-09T11:19:38Z</time>
      </trkpt>
      <trkpt lat="44.71933" lon="5.45316">
        <ele>910.03</ele>
        <time>2015-05-09T11:20:12Z</time>
      </trkpt>
      <trkpt lat="44.71933" lon="5.45316">
        <ele>910.03</ele>
        <time>2015-05-09T11:20:44Z</time>
      </trkpt>
      <trkpt lat="44.71933" lon="5.45316">
        <ele>910.03</ele>
        <time>2015-05-09T11:21:17Z</time>
      </trkpt>
      <trkpt lat="44.71933" lon="5.45316">
        <ele>910.03</ele>
        <time>2015-05-09T11:21:49Z</time>
      </trkpt>
      <trkpt lat="44.71933" lon="5.45316">
        <ele>909.54</ele>
        <time>2015-05-09T11:22:20Z</time>
      </trkpt>
      <trkpt lat="44.71929" lon="5.4531">
        <ele>908.58</ele>
        <time>2015-05-09T11:22:36Z</time>
      </trkpt>
      <trkpt lat="44.71924" lon="5.45298">
        <ele>906.18</ele>
        <time>2015-05-09T11:22:46Z</time>
      </trkpt>
      <trkpt lat="44.71926" lon="5.45296">
        <ele>905.7</ele>
        <time>2015-05-09T11:22:48Z</time>
      </trkpt>
      <trkpt lat="44.71934" lon="5.45293">
        <ele>904.26</ele>
        <time>2015-05-09T11:22:54Z</time>
      </trkpt>
      <trkpt lat="44.71935" lon="5.45291">
        <ele>903.3</ele>
        <time>2015-05-09T11:22:56Z</time>
      </trkpt>
      <trkpt lat="44.71929" lon="5.45286">
        <ele>900.41</ele>
        <time>2015-05-09T11:23:07Z</time>
      </trkpt>
      <trkpt lat="44.71927" lon="5.45283">
        <ele>899.93</ele>
        <time>2015-05-09T11:23:09Z</time>
      </trkpt>
      <trkpt lat="44.71924" lon="5.45267">
        <ele>897.05</ele>
        <time>2015-05-09T11:23:19Z</time>
      </trkpt>
      <trkpt lat="44.71926" lon="5.45255">
        <ele>894.64</ele>
        <time>2015-05-09T11:23:27Z</time>
      </trkpt>
      <trkpt lat="44.71929" lon="5.4524">
        <ele>891.76</ele>
        <time>2015-05-09T11:23:37Z</time>
      </trkpt>
      <trkpt lat="44.71931" lon="5.45236">
        <ele>890.8</ele>
        <time>2015-05-09T11:23:39Z</time>
      </trkpt>
      <trkpt lat="44.71935" lon="5.45227">
        <ele>889.36</ele>
        <time>2015-05-09T11:23:47Z</time>
      </trkpt>
      <trkpt lat="44.7194" lon="5.45215">
        <ele>886.95</ele>
        <time>2015-05-09T11:23:55Z</time>
      </trkpt>
      <trkpt lat="44.71946" lon="5.45195">
        <ele>883.59</ele>
        <time>2015-05-09T11:24:07Z</time>
      </trkpt>
      <trkpt lat="44.71948" lon="5.45192">
        <ele>883.11</ele>
        <time>2015-05-09T11:24:09Z</time>
      </trkpt>
      <trkpt lat="44.71959" lon="5.45174">
        <ele>879.74</ele>
        <time>2015-05-09T11:24:22Z</time>
      </trkpt>
      <trkpt lat="44.71964" lon="5.45162">
        <ele>876.38</ele>
        <time>2015-05-09T11:24:32Z</time>
      </trkpt>
      <trkpt lat="44.71965" lon="5.45159">
        <ele>875.9</ele>
        <time>2015-05-09T11:24:34Z</time>
      </trkpt>
      <trkpt lat="44.71973" lon="5.45156">
        <ele>873.98</ele>
        <time>2015-05-09T11:24:41Z</time>
      </trkpt>
      <trkpt lat="44.71983" lon="5.45162">
        <ele>870.61</ele>
        <time>2015-05-09T11:24:53Z</time>
      </trkpt>
      <trkpt lat="44.71989" lon="5.45167">
        <ele>867.25</ele>
        <time>2015-05-09T11:25:03Z</time>
      </trkpt>
      <trkpt lat="44.72006" lon="5.45188">
        <ele>863.88</ele>
        <time>2015-05-09T11:25:17Z</time>
      </trkpt>
      <trkpt lat="44.72009" lon="5.45187">
        <ele>862.44</ele>
        <time>2015-05-09T11:25:20Z</time>
      </trkpt>
      <trkpt lat="44.72011" lon="5.45187">
        <ele>861</ele>
        <time>2015-05-09T11:25:24Z</time>
      </trkpt>
      <trkpt lat="44.72025" lon="5.45188">
        <ele>858.11</ele>
        <time>2015-05-09T11:25:31Z</time>
      </trkpt>
      <trkpt lat="44.72034" lon="5.45181">
        <ele>854.75</ele>
        <time>2015-05-09T11:25:39Z</time>
      </trkpt>
      <trkpt lat="44.72035" lon="5.45176">
        <ele>853.79</ele>
        <time>2015-05-09T11:25:43Z</time>
      </trkpt>
      <trkpt lat="44.72037" lon="5.45172">
        <ele>852.35</ele>
        <time>2015-05-09T11:25:46Z</time>
      </trkpt>
      <trkpt lat="44.72037" lon="5.45171">
        <ele>852.35</ele>
        <time>2015-05-09T11:25:47Z</time>
      </trkpt>
      <trkpt lat="44.72043" lon="5.45154">
        <ele>848.98</ele>
        <time>2015-05-09T11:26:01Z</time>
      </trkpt>
      <trkpt lat="44.72051" lon="5.45136">
        <ele>846.1</ele>
        <time>2015-05-09T11:26:12Z</time>
      </trkpt>
      <trkpt lat="44.72055" lon="5.45133">
        <ele>844.66</ele>
        <time>2015-05-09T11:26:15Z</time>
      </trkpt>
      <trkpt lat="44.72064" lon="5.45118">
        <ele>842.25</ele>
        <time>2015-05-09T11:26:26Z</time>
      </trkpt>
      <trkpt lat="44.72074" lon="5.45101">
        <ele>839.37</ele>
        <time>2015-05-09T11:26:41Z</time>
      </trkpt>
      <trkpt lat="44.72078" lon="5.45095">
        <ele>837.45</ele>
        <time>2015-05-09T11:26:45Z</time>
      </trkpt>
      <trkpt lat="44.72084" lon="5.45077">
        <ele>834.56</ele>
        <time>2015-05-09T11:26:55Z</time>
      </trkpt>
      <trkpt lat="44.72093" lon="5.45074">
        <ele>833.12</ele>
        <time>2015-05-09T11:27:08Z</time>
      </trkpt>
      <trkpt lat="44.72093" lon="5.45074">
        <ele>832.64</ele>
        <time>2015-05-09T11:27:12Z</time>
      </trkpt>
      <trkpt lat="44.72099" lon="5.45061">
        <ele>829.76</ele>
        <time>2015-05-09T11:27:22Z</time>
      </trkpt>
      <trkpt lat="44.72104" lon="5.45054">
        <ele>826.39</ele>
        <time>2015-05-09T11:27:32Z</time>
      </trkpt>
      <trkpt lat="44.72109" lon="5.45054">
        <ele>824.95</ele>
        <time>2015-05-09T11:27:38Z</time>
      </trkpt>
      <trkpt lat="44.72119" lon="5.45051">
        <ele>821.58</ele>
        <time>2015-05-09T11:27:46Z</time>
      </trkpt>
      <trkpt lat="44.72123" lon="5.45039">
        <ele>818.7</ele>
        <time>2015-05-09T11:27:56Z</time>
      </trkpt>
      <trkpt lat="44.72124" lon="5.45035">
        <ele>817.74</ele>
        <time>2015-05-09T11:27:59Z</time>
      </trkpt>
      <trkpt lat="44.72123" lon="5.45027">
        <ele>816.3</ele>
        <time>2015-05-09T11:28:03Z</time>
      </trkpt>
      <trkpt lat="44.72124" lon="5.4502">
        <ele>814.37</ele>
        <time>2015-05-09T11:28:08Z</time>
      </trkpt>
      <trkpt lat="44.72128" lon="5.45014">
        <ele>811.01</ele>
        <time>2015-05-09T11:28:15Z</time>
      </trkpt>
      <trkpt lat="44.72129" lon="5.45013">
        <ele>809.57</ele>
        <time>2015-05-09T11:28:17Z</time>
      </trkpt>
      <trkpt lat="44.72133" lon="5.45003">
        <ele>807.64</ele>
        <time>2015-05-09T11:28:28Z</time>
      </trkpt>
      <trkpt lat="44.72133" lon="5.44997">
        <ele>806.2</ele>
        <time>2015-05-09T11:28:41Z</time>
      </trkpt>
      <trkpt lat="44.72132" lon="5.44996">
        <ele>805.24</ele>
        <time>2015-05-09T11:28:59Z</time>
      </trkpt>
      <trkpt lat="44.72132" lon="5.44996">
        <ele>807.16</ele>
        <time>2015-05-09T11:29:24Z</time>
      </trkpt>
      <trkpt lat="44.72133" lon="5.44997">
        <ele>806.68</ele>
        <time>2015-05-09T11:29:47Z</time>
      </trkpt>
      <trkpt lat="44.72134" lon="5.44997">
        <ele>806.68</ele>
        <time>2015-05-09T11:30:17Z</time>
      </trkpt>
      <trkpt lat="44.72134" lon="5.44997">
        <ele>807.16</ele>
        <time>2015-05-09T11:30:47Z</time>
      </trkpt>
      <trkpt lat="44.72132" lon="5.44995">
        <ele>807.16</ele>
        <time>2015-05-09T11:31:13Z</time>
      </trkpt>
      <trkpt lat="44.72128" lon="5.44979">
        <ele>803.8</ele>
        <time>2015-05-09T11:31:23Z</time>
      </trkpt>
      <trkpt lat="44.72127" lon="5.44972">
        <ele>800.92</ele>
        <time>2015-05-09T11:31:31Z</time>
      </trkpt>
      <trkpt lat="44.72122" lon="5.44955">
        <ele>798.03</ele>
        <time>2015-05-09T11:31:43Z</time>
      </trkpt>
      <trkpt lat="44.7212" lon="5.44947">
        <ele>796.59</ele>
        <time>2015-05-09T11:31:46Z</time>
      </trkpt>
      <trkpt lat="44.72114" lon="5.44936">
        <ele>795.63</ele>
        <time>2015-05-09T11:31:52Z</time>
      </trkpt>
      <trkpt lat="44.72099" lon="5.44915">
        <ele>793.71</ele>
        <time>2015-05-09T11:32:04Z</time>
      </trkpt>
      <trkpt lat="44.72095" lon="5.44909">
        <ele>793.22</ele>
        <time>2015-05-09T11:32:07Z</time>
      </trkpt>
      <trkpt lat="44.72084" lon="5.44902">
        <ele>792.74</ele>
        <time>2015-05-09T11:32:15Z</time>
      </trkpt>
      <trkpt lat="44.72074" lon="5.44898">
        <ele>790.82</ele>
        <time>2015-05-09T11:32:27Z</time>
      </trkpt>
      <trkpt lat="44.72064" lon="5.449">
        <ele>788.9</ele>
        <time>2015-05-09T11:32:34Z</time>
      </trkpt>
      <trkpt lat="44.72055" lon="5.44902">
        <ele>787.46</ele>
        <time>2015-05-09T11:32:39Z</time>
      </trkpt>
      <trkpt lat="44.72042" lon="5.44912">
        <ele>785.53</ele>
        <time>2015-05-09T11:32:51Z</time>
      </trkpt>
      <trkpt lat="44.7204" lon="5.44911">
        <ele>785.05</ele>
        <time>2015-05-09T11:32:53Z</time>
      </trkpt>
      <trkpt lat="44.72038" lon="5.44907">
        <ele>784.09</ele>
        <time>2015-05-09T11:32:56Z</time>
      </trkpt>
      <trkpt lat="44.72038" lon="5.449">
        <ele>783.13</ele>
        <time>2015-05-09T11:33:00Z</time>
      </trkpt>
      <trkpt lat="44.72043" lon="5.4489">
        <ele>780.73</ele>
        <time>2015-05-09T11:33:07Z</time>
      </trkpt>
      <trkpt lat="44.72044" lon="5.44885">
        <ele>779.77</ele>
        <time>2015-05-09T11:33:10Z</time>
      </trkpt>
      <trkpt lat="44.72054" lon="5.44867">
        <ele>775.92</ele>
        <time>2015-05-09T11:33:22Z</time>
      </trkpt>
      <trkpt lat="44.72055" lon="5.44859">
        <ele>774.48</ele>
        <time>2015-05-09T11:33:27Z</time>
      </trkpt>
      <trkpt lat="44.72063" lon="5.44843">
        <ele>772.08</ele>
        <time>2015-05-09T11:33:36Z</time>
      </trkpt>
      <trkpt lat="44.72073" lon="5.4482">
        <ele>768.71</ele>
        <time>2015-05-09T11:33:48Z</time>
      </trkpt>
      <trkpt lat="44.72084" lon="5.44805">
        <ele>765.83</ele>
        <time>2015-05-09T11:34:01Z</time>
      </trkpt>
      <trkpt lat="44.72088" lon="5.44803">
        <ele>765.35</ele>
        <time>2015-05-09T11:34:05Z</time>
      </trkpt>
      <trkpt lat="44.721" lon="5.44802">
        <ele>763.9</ele>
        <time>2015-05-09T11:34:13Z</time>
      </trkpt>
      <trkpt lat="44.72108" lon="5.44801">
        <ele>751.89</ele>
        <time>2015-05-09T11:34:25Z</time>
      </trkpt>
      <trkpt lat="44.72108" lon="5.44801">
        <ele>770.15</ele>
        <time>2015-05-09T11:34:26Z</time>
      </trkpt>
      <trkpt lat="44.72108" lon="5.44801">
        <ele>758.62</ele>
        <time>2015-05-09T11:34:27Z</time>
      </trkpt>
      <trkpt lat="44.72108" lon="5.44801">
        <ele>764.39</ele>
        <time>2015-05-09T11:34:28Z</time>
      </trkpt>
      <trkpt lat="44.72108" lon="5.44801">
        <ele>757.18</ele>
        <time>2015-05-09T11:34:30Z</time>
      </trkpt>
      <trkpt lat="44.72108" lon="5.44801">
        <ele>766.31</ele>
        <time>2015-05-09T11:34:31Z</time>
      </trkpt>
      <trkpt lat="44.72108" lon="5.44801">
        <ele>761.98</ele>
        <time>2015-05-09T11:34:32Z</time>
      </trkpt>
      <trkpt lat="44.72109" lon="5.44802">
        <ele>761.5</ele>
        <time>2015-05-09T11:34:36Z</time>
      </trkpt>
      <trkpt lat="44.72124" lon="5.44808">
        <ele>758.62</ele>
        <time>2015-05-09T11:34:50Z</time>
      </trkpt>
      <trkpt lat="44.72132" lon="5.44809">
        <ele>758.14</ele>
        <time>2015-05-09T11:34:54Z</time>
      </trkpt>
      <trkpt lat="44.72145" lon="5.44806">
        <ele>755.73</ele>
        <time>2015-05-09T11:35:02Z</time>
      </trkpt>
      <trkpt lat="44.72156" lon="5.44796">
        <ele>753.81</ele>
        <time>2015-05-09T11:35:10Z</time>
      </trkpt>
      <trkpt lat="44.72156" lon="5.4479">
        <ele>751.89</ele>
        <time>2015-05-09T11:35:14Z</time>
      </trkpt>
      <trkpt lat="44.72155" lon="5.44784">
        <ele>750.93</ele>
        <time>2015-05-09T11:35:18Z</time>
      </trkpt>
      <trkpt lat="44.72156" lon="5.44777">
        <ele>749</ele>
        <time>2015-05-09T11:35:31Z</time>
      </trkpt>
      <trkpt lat="44.72156" lon="5.44778">
        <ele>748.52</ele>
        <time>2015-05-09T11:35:55Z</time>
      </trkpt>
      <trkpt lat="44.72157" lon="5.44772">
        <ele>747.08</ele>
        <time>2015-05-09T11:36:17Z</time>
      </trkpt>
      <trkpt lat="44.72157" lon="5.44761">
        <ele>743.72</ele>
        <time>2015-05-09T11:36:25Z</time>
      </trkpt>
      <trkpt lat="44.72157" lon="5.44757">
        <ele>742.76</ele>
        <time>2015-05-09T11:36:27Z</time>
      </trkpt>
      <trkpt lat="44.72157" lon="5.44754">
        <ele>742.28</ele>
        <time>2015-05-09T11:36:28Z</time>
      </trkpt>
      <trkpt lat="44.72158" lon="5.44748">
        <ele>740.83</ele>
        <time>2015-05-09T11:36:31Z</time>
      </trkpt>
      <trkpt lat="44.72159" lon="5.44731">
        <ele>737.95</ele>
        <time>2015-05-09T11:36:44Z</time>
      </trkpt>
      <trkpt lat="44.72159" lon="5.44728">
        <ele>736.99</ele>
        <time>2015-05-09T11:36:46Z</time>
      </trkpt>
      <trkpt lat="44.72161" lon="5.44711">
        <ele>733.62</ele>
        <time>2015-05-09T11:36:55Z</time>
      </trkpt>
      <trkpt lat="44.7216" lon="5.447">
        <ele>730.26</ele>
        <time>2015-05-09T11:37:02Z</time>
      </trkpt>
      <trkpt lat="44.7216" lon="5.447">
        <ele>729.78</ele>
        <time>2015-05-09T11:37:03Z</time>
      </trkpt>
      <trkpt lat="44.72163" lon="5.44687">
        <ele>727.86</ele>
        <time>2015-05-09T11:37:12Z</time>
      </trkpt>
      <trkpt lat="44.72166" lon="5.44661">
        <ele>724.49</ele>
        <time>2015-05-09T11:37:23Z</time>
      </trkpt>
      <trkpt lat="44.72165" lon="5.44657">
        <ele>723.53</ele>
        <time>2015-05-09T11:37:25Z</time>
      </trkpt>
      <trkpt lat="44.7216" lon="5.44646">
        <ele>720.16</ele>
        <time>2015-05-09T11:37:35Z</time>
      </trkpt>
      <trkpt lat="44.72155" lon="5.44634">
        <ele>717.28</ele>
        <time>2015-05-09T11:37:43Z</time>
      </trkpt>
      <trkpt lat="44.72155" lon="5.44633">
        <ele>716.32</ele>
        <time>2015-05-09T11:37:44Z</time>
      </trkpt>
      <trkpt lat="44.72154" lon="5.44629">
        <ele>715.84</ele>
        <time>2015-05-09T11:37:46Z</time>
      </trkpt>
      <trkpt lat="44.7215" lon="5.44623">
        <ele>713.92</ele>
        <time>2015-05-09T11:37:51Z</time>
      </trkpt>
      <trkpt lat="44.72145" lon="5.44607">
        <ele>710.55</ele>
        <time>2015-05-09T11:38:03Z</time>
      </trkpt>
      <trkpt lat="44.72144" lon="5.44598">
        <ele>708.63</ele>
        <time>2015-05-09T11:38:08Z</time>
      </trkpt>
      <trkpt lat="44.72146" lon="5.44582">
        <ele>706.23</ele>
        <time>2015-05-09T11:38:20Z</time>
      </trkpt>
      <trkpt lat="44.72142" lon="5.44578">
        <ele>704.78</ele>
        <time>2015-05-09T11:38:24Z</time>
      </trkpt>
      <trkpt lat="44.7213" lon="5.44571">
        <ele>702.38</ele>
        <time>2015-05-09T11:38:35Z</time>
      </trkpt>
      <trkpt lat="44.7213" lon="5.44571">
        <ele>701.9</ele>
        <time>2015-05-09T11:38:36Z</time>
      </trkpt>
      <trkpt lat="44.72126" lon="5.44568">
        <ele>701.42</ele>
        <time>2015-05-09T11:38:39Z</time>
      </trkpt>
      <trkpt lat="44.7212" lon="5.44565">
        <ele>700.46</ele>
        <time>2015-05-09T11:38:44Z</time>
      </trkpt>
      <trkpt lat="44.72116" lon="5.44564">
        <ele>699.5</ele>
        <time>2015-05-09T11:38:47Z</time>
      </trkpt>
      <trkpt lat="44.72101" lon="5.4455">
        <ele>697.57</ele>
        <time>2015-05-09T11:38:59Z</time>
      </trkpt>
      <trkpt lat="44.721" lon="5.44549">
        <ele>697.57</ele>
        <time>2015-05-09T11:39:00Z</time>
      </trkpt>
      <trkpt lat="44.72089" lon="5.44535">
        <ele>696.13</ele>
        <time>2015-05-09T11:39:10Z</time>
      </trkpt>
      <trkpt lat="44.72089" lon="5.44534">
        <ele>696.13</ele>
        <time>2015-05-09T11:39:31Z</time>
      </trkpt>
      <trkpt lat="44.72089" lon="5.44535">
        <ele>696.13</ele>
        <time>2015-05-09T11:39:57Z</time>
      </trkpt>
      <trkpt lat="44.72089" lon="5.44534">
        <ele>695.65</ele>
        <time>2015-05-09T11:40:27Z</time>
      </trkpt>
      <trkpt lat="44.72089" lon="5.44534">
        <ele>696.13</ele>
        <time>2015-05-09T11:40:29Z</time>
      </trkpt>
      <trkpt lat="44.72101" lon="5.4455">
        <ele>697.57</ele>
        <time>2015-05-09T11:40:44Z</time>
      </trkpt>
      <trkpt lat="44.72114" lon="5.44562">
        <ele>699.5</ele>
        <time>2015-05-09T11:40:57Z</time>
      </trkpt>
      <trkpt lat="44.72118" lon="5.44565">
        <ele>700.46</ele>
        <time>2015-05-09T11:41:00Z</time>
      </trkpt>
      <trkpt lat="44.72125" lon="5.4457">
        <ele>700.94</ele>
        <time>2015-05-09T11:41:07Z</time>
      </trkpt>
      <trkpt lat="44.72118" lon="5.44563">
        <ele>699.98</ele>
        <time>2015-05-09T11:41:14Z</time>
      </trkpt>
      <trkpt lat="44.72102" lon="5.44555">
        <ele>697.09</ele>
        <time>2015-05-09T11:41:26Z</time>
      </trkpt>
      <trkpt lat="44.72093" lon="5.44543">
        <ele>695.17</ele>
        <time>2015-05-09T11:41:37Z</time>
      </trkpt>
      <trkpt lat="44.72087" lon="5.44533">
        <ele>694.69</ele>
        <time>2015-05-09T11:41:44Z</time>
      </trkpt>
      <trkpt lat="44.72074" lon="5.44511">
        <ele>693.73</ele>
        <time>2015-05-09T11:41:54Z</time>
      </trkpt>
      <trkpt lat="44.72071" lon="5.44502">
        <ele>692.77</ele>
        <time>2015-05-09T11:41:59Z</time>
      </trkpt>
      <trkpt lat="44.72066" lon="5.44496">
        <ele>692.29</ele>
        <time>2015-05-09T11:42:03Z</time>
      </trkpt>
      <trkpt lat="44.72057" lon="5.44486">
        <ele>690.84</ele>
        <time>2015-05-09T11:42:15Z</time>
      </trkpt>
      <trkpt lat="44.72056" lon="5.44485">
        <ele>690.84</ele>
        <time>2015-05-09T11:42:16Z</time>
      </trkpt>
      <trkpt lat="44.72042" lon="5.44468">
        <ele>689.4</ele>
        <time>2015-05-09T11:42:26Z</time>
      </trkpt>
      <trkpt lat="44.72041" lon="5.44466">
        <ele>689.4</ele>
        <time>2015-05-09T11:42:28Z</time>
      </trkpt>
      <trkpt lat="44.72039" lon="5.44449">
        <ele>688.44</ele>
        <time>2015-05-09T11:42:40Z</time>
      </trkpt>
      <trkpt lat="44.72038" lon="5.44438">
        <ele>687.48</ele>
        <time>2015-05-09T11:42:54Z</time>
      </trkpt>
      <trkpt lat="44.72037" lon="5.44431">
        <ele>687</ele>
        <time>2015-05-09T11:42:56Z</time>
      </trkpt>
      <trkpt lat="44.72039" lon="5.44414">
        <ele>686.52</ele>
        <time>2015-05-09T11:43:06Z</time>
      </trkpt>
      <trkpt lat="44.72041" lon="5.44393">
        <ele>685.56</ele>
        <time>2015-05-09T11:43:15Z</time>
      </trkpt>
      <trkpt lat="44.72044" lon="5.44387">
        <ele>685.08</ele>
        <time>2015-05-09T11:43:22Z</time>
      </trkpt>
      <trkpt lat="44.72043" lon="5.44377">
        <ele>684.6</ele>
        <time>2015-05-09T11:43:25Z</time>
      </trkpt>
      <trkpt lat="44.72043" lon="5.44359">
        <ele>684.12</ele>
        <time>2015-05-09T11:43:32Z</time>
      </trkpt>
      <trkpt lat="44.72043" lon="5.44344">
        <ele>683.63</ele>
        <time>2015-05-09T11:43:41Z</time>
      </trkpt>
      <trkpt lat="44.72047" lon="5.44336">
        <ele>683.63</ele>
        <time>2015-05-09T11:43:46Z</time>
      </trkpt>
      <trkpt lat="44.72056" lon="5.44323">
        <ele>682.67</ele>
        <time>2015-05-09T11:43:57Z</time>
      </trkpt>
      <trkpt lat="44.72054" lon="5.44316">
        <ele>682.67</ele>
        <time>2015-05-09T11:44:01Z</time>
      </trkpt>
      <trkpt lat="44.72068" lon="5.44295">
        <ele>681.71</ele>
        <time>2015-05-09T11:44:13Z</time>
      </trkpt>
      <trkpt lat="44.72071" lon="5.44294">
        <ele>681.71</ele>
        <time>2015-05-09T11:44:15Z</time>
      </trkpt>
      <trkpt lat="44.72083" lon="5.4429">
        <ele>680.75</ele>
        <time>2015-05-09T11:44:28Z</time>
      </trkpt>
      <trkpt lat="44.72087" lon="5.4429">
        <ele>680.75</ele>
        <time>2015-05-09T11:44:37Z</time>
      </trkpt>
      <trkpt lat="44.72093" lon="5.44285">
        <ele>681.71</ele>
        <time>2015-05-09T11:44:49Z</time>
      </trkpt>
      <trkpt lat="44.72092" lon="5.44285">
        <ele>681.71</ele>
        <time>2015-05-09T11:45:08Z</time>
      </trkpt>
      <trkpt lat="44.72092" lon="5.44285">
        <ele>681.71</ele>
        <time>2015-05-09T11:45:31Z</time>
      </trkpt>
      <trkpt lat="44.72092" lon="5.44284">
        <ele>681.71</ele>
        <time>2015-05-09T11:45:57Z</time>
      </trkpt>
      <trkpt lat="44.72092" lon="5.44284">
        <ele>681.71</ele>
        <time>2015-05-09T11:46:24Z</time>
      </trkpt>
      <trkpt lat="44.72092" lon="5.44284">
        <ele>681.23</ele>
        <time>2015-05-09T11:46:53Z</time>
      </trkpt>
      <trkpt lat="44.72092" lon="5.44284">
        <ele>681.23</ele>
        <time>2015-05-09T11:47:25Z</time>
      </trkpt>
      <trkpt lat="44.72092" lon="5.44284">
        <ele>680.75</ele>
        <time>2015-05-09T11:47:54Z</time>
      </trkpt>
      <trkpt lat="44.72092" lon="5.44284">
        <ele>680.75</ele>
        <time>2015-05-09T11:48:23Z</time>
      </trkpt>
      <trkpt lat="44.72092" lon="5.44284">
        <ele>680.75</ele>
        <time>2015-05-09T11:48:56Z</time>
      </trkpt>
      <trkpt lat="44.72092" lon="5.44284">
        <ele>680.75</ele>
        <time>2015-05-09T11:49:31Z</time>
      </trkpt>
      <trkpt lat="44.72092" lon="5.44284">
        <ele>680.75</ele>
        <time>2015-05-09T11:50:07Z</time>
      </trkpt>
      <trkpt lat="44.72092" lon="5.44284">
        <ele>680.27</ele>
        <time>2015-05-09T11:50:38Z</time>
      </trkpt>
      <trkpt lat="44.72092" lon="5.44284">
        <ele>680.27</ele>
        <time>2015-05-09T11:51:08Z</time>
      </trkpt>
      <trkpt lat="44.72092" lon="5.44284">
        <ele>680.27</ele>
        <time>2015-05-09T11:51:39Z</time>
      </trkpt>
      <trkpt lat="44.72092" lon="5.44285">
        <ele>679.79</ele>
        <time>2015-05-09T11:52:03Z</time>
      </trkpt>
      <trkpt lat="44.72092" lon="5.44285">
        <ele>679.79</ele>
        <time>2015-05-09T11:52:35Z</time>
      </trkpt>
      <trkpt lat="44.72092" lon="5.44285">
        <ele>680.27</ele>
        <time>2015-05-09T11:53:05Z</time>
      </trkpt>
      <trkpt lat="44.72091" lon="5.44285">
        <ele>680.27</ele>
        <time>2015-05-09T11:53:32Z</time>
      </trkpt>
      <trkpt lat="44.72091" lon="5.44285">
        <ele>679.79</ele>
        <time>2015-05-09T11:53:58Z</time>
      </trkpt>
      <trkpt lat="44.72091" lon="5.44285">
        <ele>679.79</ele>
        <time>2015-05-09T11:54:24Z</time>
      </trkpt>
      <trkpt lat="44.72091" lon="5.44285">
        <ele>679.79</ele>
        <time>2015-05-09T11:54:53Z</time>
      </trkpt>
      <trkpt lat="44.72091" lon="5.44285">
        <ele>679.79</ele>
        <time>2015-05-09T11:55:23Z</time>
      </trkpt>
      <trkpt lat="44.72091" lon="5.44285">
        <ele>679.31</ele>
        <time>2015-05-09T11:55:55Z</time>
      </trkpt>
      <trkpt lat="44.7209" lon="5.44285">
        <ele>679.79</ele>
        <time>2015-05-09T11:56:28Z</time>
      </trkpt>
      <trkpt lat="44.7209" lon="5.44285">
        <ele>679.31</ele>
        <time>2015-05-09T11:56:57Z</time>
      </trkpt>
      <trkpt lat="44.7209" lon="5.44285">
        <ele>679.31</ele>
        <time>2015-05-09T11:57:26Z</time>
      </trkpt>
      <trkpt lat="44.7209" lon="5.44285">
        <ele>679.31</ele>
        <time>2015-05-09T11:57:58Z</time>
      </trkpt>
      <trkpt lat="44.7209" lon="5.44286">
        <ele>678.83</ele>
        <time>2015-05-09T11:58:28Z</time>
      </trkpt>
      <trkpt lat="44.7209" lon="5.44286">
        <ele>679.79</ele>
        <time>2015-05-09T11:58:49Z</time>
      </trkpt>
      <trkpt lat="44.72091" lon="5.44284">
        <ele>679.31</ele>
        <time>2015-05-09T11:59:10Z</time>
      </trkpt>
      <trkpt lat="44.72092" lon="5.44283">
        <ele>679.79</ele>
        <time>2015-05-09T11:59:23Z</time>
      </trkpt>
      <trkpt lat="44.72092" lon="5.44283">
        <ele>679.31</ele>
        <time>2015-05-09T11:59:43Z</time>
      </trkpt>
      <trkpt lat="44.72093" lon="5.44284">
        <ele>679.79</ele>
        <time>2015-05-09T12:00:05Z</time>
      </trkpt>
      <trkpt lat="44.72093" lon="5.44284">
        <ele>679.79</ele>
        <time>2015-05-09T12:00:27Z</time>
      </trkpt>
      <trkpt lat="44.72094" lon="5.44285">
        <ele>679.31</ele>
        <time>2015-05-09T12:00:41Z</time>
      </trkpt>
      <trkpt lat="44.721" lon="5.44285">
        <ele>680.75</ele>
        <time>2015-05-09T12:00:52Z</time>
      </trkpt>
      <trkpt lat="44.72101" lon="5.44285">
        <ele>681.71</ele>
        <time>2015-05-09T12:00:54Z</time>
      </trkpt>
      <trkpt lat="44.72102" lon="5.44287">
        <ele>681.23</ele>
        <time>2015-05-09T12:00:56Z</time>
      </trkpt>
      <trkpt lat="44.72106" lon="5.44298">
        <ele>683.63</ele>
        <time>2015-05-09T12:01:08Z</time>
      </trkpt>
      <trkpt lat="44.72106" lon="5.44298">
        <ele>683.63</ele>
        <time>2015-05-09T12:01:13Z</time>
      </trkpt>
      <trkpt lat="44.72107" lon="5.44306">
        <ele>685.56</ele>
        <time>2015-05-09T12:01:25Z</time>
      </trkpt>
      <trkpt lat="44.72108" lon="5.44307">
        <ele>685.08</ele>
        <time>2015-05-09T12:01:27Z</time>
      </trkpt>
      <trkpt lat="44.72112" lon="5.44315">
        <ele>687</ele>
        <time>2015-05-09T12:01:32Z</time>
      </trkpt>
      <trkpt lat="44.72116" lon="5.44323">
        <ele>688.92</ele>
        <time>2015-05-09T12:01:43Z</time>
      </trkpt>
      <trkpt lat="44.72119" lon="5.44323">
        <ele>689.4</ele>
        <time>2015-05-09T12:02:04Z</time>
      </trkpt>
      <trkpt lat="44.72125" lon="5.44326">
        <ele>690.84</ele>
        <time>2015-05-09T12:02:10Z</time>
      </trkpt>
      <trkpt lat="44.72129" lon="5.44329">
        <ele>691.81</ele>
        <time>2015-05-09T12:02:13Z</time>
      </trkpt>
      <trkpt lat="44.72136" lon="5.44329">
        <ele>691.81</ele>
        <time>2015-05-09T12:02:24Z</time>
      </trkpt>
      <trkpt lat="44.72139" lon="5.4433">
        <ele>692.77</ele>
        <time>2015-05-09T12:02:27Z</time>
      </trkpt>
      <trkpt lat="44.72151" lon="5.44329">
        <ele>694.69</ele>
        <time>2015-05-09T12:02:38Z</time>
      </trkpt>
      <trkpt lat="44.72151" lon="5.44329">
        <ele>694.69</ele>
        <time>2015-05-09T12:03:02Z</time>
      </trkpt>
      <trkpt lat="44.72151" lon="5.44329">
        <ele>694.69</ele>
        <time>2015-05-09T12:03:10Z</time>
      </trkpt>
      <trkpt lat="44.72155" lon="5.44327">
        <ele>695.17</ele>
        <time>2015-05-09T12:03:15Z</time>
      </trkpt>
      <trkpt lat="44.72162" lon="5.44327">
        <ele>696.13</ele>
        <time>2015-05-09T12:03:22Z</time>
      </trkpt>
      <trkpt lat="44.72168" lon="5.44324">
        <ele>697.57</ele>
        <time>2015-05-09T12:03:26Z</time>
      </trkpt>
      <trkpt lat="44.72181" lon="5.44321">
        <ele>699.02</ele>
        <time>2015-05-09T12:03:36Z</time>
      </trkpt>
      <trkpt lat="44.72186" lon="5.44319">
        <ele>699.98</ele>
        <time>2015-05-09T12:03:41Z</time>
      </trkpt>
      <trkpt lat="44.72194" lon="5.44315">
        <ele>701.42</ele>
        <time>2015-05-09T12:03:48Z</time>
      </trkpt>
      <trkpt lat="44.72202" lon="5.44311">
        <ele>701.9</ele>
        <time>2015-05-09T12:03:53Z</time>
      </trkpt>
      <trkpt lat="44.72209" lon="5.44306">
        <ele>702.86</ele>
        <time>2015-05-09T12:03:59Z</time>
      </trkpt>
      <trkpt lat="44.72217" lon="5.44302">
        <ele>703.34</ele>
        <time>2015-05-09T12:04:03Z</time>
      </trkpt>
      <trkpt lat="44.7222" lon="5.44301">
        <ele>703.82</ele>
        <time>2015-05-09T12:04:06Z</time>
      </trkpt>
      <trkpt lat="44.72224" lon="5.44302">
        <ele>703.82</ele>
        <time>2015-05-09T12:04:10Z</time>
      </trkpt>
      <trkpt lat="44.72241" lon="5.44306">
        <ele>705.26</ele>
        <time>2015-05-09T12:04:24Z</time>
      </trkpt>
      <trkpt lat="44.72244" lon="5.44308">
        <ele>706.23</ele>
        <time>2015-05-09T12:04:27Z</time>
      </trkpt>
      <trkpt lat="44.72255" lon="5.44317">
        <ele>708.63</ele>
        <time>2015-05-09T12:04:38Z</time>
      </trkpt>
      <trkpt lat="44.72258" lon="5.4432">
        <ele>709.59</ele>
        <time>2015-05-09T12:04:42Z</time>
      </trkpt>
      <trkpt lat="44.72263" lon="5.44325">
        <ele>711.51</ele>
        <time>2015-05-09T12:04:47Z</time>
      </trkpt>
      <trkpt lat="44.7227" lon="5.44329">
        <ele>710.55</ele>
        <time>2015-05-09T12:04:59Z</time>
      </trkpt>
      <trkpt lat="44.72283" lon="5.44333">
        <ele>712.47</ele>
        <time>2015-05-09T12:05:09Z</time>
      </trkpt>
      <trkpt lat="44.72293" lon="5.44333">
        <ele>714.4</ele>
        <time>2015-05-09T12:05:17Z</time>
      </trkpt>
      <trkpt lat="44.72301" lon="5.44329">
        <ele>715.84</ele>
        <time>2015-05-09T12:05:25Z</time>
      </trkpt>
      <trkpt lat="44.72307" lon="5.44314">
        <ele>717.76</ele>
        <time>2015-05-09T12:05:37Z</time>
      </trkpt>
      <trkpt lat="44.72308" lon="5.44313">
        <ele>718.72</ele>
        <time>2015-05-09T12:05:39Z</time>
      </trkpt>
      <trkpt lat="44.72317" lon="5.44296">
        <ele>719.68</ele>
        <time>2015-05-09T12:05:49Z</time>
      </trkpt>
      <trkpt lat="44.72321" lon="5.4429">
        <ele>721.61</ele>
        <time>2015-05-09T12:05:55Z</time>
      </trkpt>
      <trkpt lat="44.7233" lon="5.44282">
        <ele>723.53</ele>
        <time>2015-05-09T12:06:06Z</time>
      </trkpt>
      <trkpt lat="44.7234" lon="5.44273">
        <ele>724.97</ele>
        <time>2015-05-09T12:06:14Z</time>
      </trkpt>
      <trkpt lat="44.72342" lon="5.44271">
        <ele>725.93</ele>
        <time>2015-05-09T12:06:16Z</time>
      </trkpt>
      <trkpt lat="44.72344" lon="5.44269">
        <ele>725.93</ele>
        <time>2015-05-09T12:06:18Z</time>
      </trkpt>
      <trkpt lat="44.72353" lon="5.44264">
        <ele>727.37</ele>
        <time>2015-05-09T12:06:25Z</time>
      </trkpt>
      <trkpt lat="44.72358" lon="5.44257">
        <ele>728.82</ele>
        <time>2015-05-09T12:06:31Z</time>
      </trkpt>
      <trkpt lat="44.72366" lon="5.44255">
        <ele>730.26</ele>
        <time>2015-05-09T12:06:38Z</time>
      </trkpt>
      <trkpt lat="44.7238" lon="5.44249">
        <ele>732.66</ele>
        <time>2015-05-09T12:06:51Z</time>
      </trkpt>
      <trkpt lat="44.72381" lon="5.44249">
        <ele>733.62</ele>
        <time>2015-05-09T12:06:52Z</time>
      </trkpt>
      <trkpt lat="44.72388" lon="5.44245">
        <ele>734.58</ele>
        <time>2015-05-09T12:06:58Z</time>
      </trkpt>
      <trkpt lat="44.72389" lon="5.44243">
        <ele>735.55</ele>
        <time>2015-05-09T12:07:00Z</time>
      </trkpt>
      <trkpt lat="44.72395" lon="5.44237">
        <ele>736.51</ele>
        <time>2015-05-09T12:07:06Z</time>
      </trkpt>
      <trkpt lat="44.72399" lon="5.44231">
        <ele>738.43</ele>
        <time>2015-05-09T12:07:13Z</time>
      </trkpt>
      <trkpt lat="44.72407" lon="5.44221">
        <ele>740.35</ele>
        <time>2015-05-09T12:07:23Z</time>
      </trkpt>
      <trkpt lat="44.7241" lon="5.4422">
        <ele>740.83</ele>
        <time>2015-05-09T12:07:25Z</time>
      </trkpt>
      <trkpt lat="44.72418" lon="5.44218">
        <ele>740.35</ele>
        <time>2015-05-09T12:07:29Z</time>
      </trkpt>
      <trkpt lat="44.72422" lon="5.4422">
        <ele>739.87</ele>
        <time>2015-05-09T12:07:34Z</time>
      </trkpt>
      <trkpt lat="44.72438" lon="5.4422">
        <ele>740.35</ele>
        <time>2015-05-09T12:07:45Z</time>
      </trkpt>
      <trkpt lat="44.72442" lon="5.44221">
        <ele>740.35</ele>
        <time>2015-05-09T12:07:48Z</time>
      </trkpt>
      <trkpt lat="44.72451" lon="5.44219">
        <ele>741.31</ele>
        <time>2015-05-09T12:07:56Z</time>
      </trkpt>
      <trkpt lat="44.72461" lon="5.4422">
        <ele>741.31</ele>
        <time>2015-05-09T12:08:03Z</time>
      </trkpt>
      <trkpt lat="44.72477" lon="5.44224">
        <ele>742.28</ele>
        <time>2015-05-09T12:08:16Z</time>
      </trkpt>
      <trkpt lat="44.72487" lon="5.4422">
        <ele>742.76</ele>
        <time>2015-05-09T12:08:27Z</time>
      </trkpt>
      <trkpt lat="44.72488" lon="5.4422">
        <ele>743.24</ele>
        <time>2015-05-09T12:08:28Z</time>
      </trkpt>
      <trkpt lat="44.7249" lon="5.44219">
        <ele>743.24</ele>
        <time>2015-05-09T12:08:30Z</time>
      </trkpt>
      <trkpt lat="44.72493" lon="5.44216">
        <ele>743.72</ele>
        <time>2015-05-09T12:08:44Z</time>
      </trkpt>
      <trkpt lat="44.72493" lon="5.44216">
        <ele>742.76</ele>
        <time>2015-05-09T12:09:09Z</time>
      </trkpt>
      <trkpt lat="44.72502" lon="5.44212">
        <ele>743.72</ele>
        <time>2015-05-09T12:09:21Z</time>
      </trkpt>
      <trkpt lat="44.72517" lon="5.44202">
        <ele>745.16</ele>
        <time>2015-05-09T12:09:33Z</time>
      </trkpt>
      <trkpt lat="44.72519" lon="5.442">
        <ele>745.64</ele>
        <time>2015-05-09T12:09:36Z</time>
      </trkpt>
      <trkpt lat="44.72537" lon="5.44191">
        <ele>747.56</ele>
        <time>2015-05-09T12:09:49Z</time>
      </trkpt>
      <trkpt lat="44.7254" lon="5.44189">
        <ele>749</ele>
        <time>2015-05-09T12:09:52Z</time>
      </trkpt>
      <trkpt lat="44.72553" lon="5.44184">
        <ele>750.93</ele>
        <time>2015-05-09T12:10:04Z</time>
      </trkpt>
      <trkpt lat="44.72561" lon="5.44183">
        <ele>751.89</ele>
        <time>2015-05-09T12:10:10Z</time>
      </trkpt>
      <trkpt lat="44.72568" lon="5.44174">
        <ele>752.85</ele>
        <time>2015-05-09T12:10:23Z</time>
      </trkpt>
      <trkpt lat="44.72568" lon="5.44174">
        <ele>752.37</ele>
        <time>2015-05-09T12:10:51Z</time>
      </trkpt>
      <trkpt lat="44.72568" lon="5.44174">
        <ele>751.89</ele>
        <time>2015-05-09T12:11:23Z</time>
      </trkpt>
      <trkpt lat="44.72568" lon="5.44174">
        <ele>751.41</ele>
        <time>2015-05-09T12:11:58Z</time>
      </trkpt>
      <trkpt lat="44.72576" lon="5.44166">
        <ele>753.33</ele>
        <time>2015-05-09T12:12:07Z</time>
      </trkpt>
      <trkpt lat="44.72589" lon="5.44154">
        <ele>755.73</ele>
        <time>2015-05-09T12:12:20Z</time>
      </trkpt>
      <trkpt lat="44.726" lon="5.44145">
        <ele>757.66</ele>
        <time>2015-05-09T12:12:30Z</time>
      </trkpt>
      <trkpt lat="44.72613" lon="5.44139">
        <ele>759.1</ele>
        <time>2015-05-09T12:12:41Z</time>
      </trkpt>
      <trkpt lat="44.7262" lon="5.44132">
        <ele>759.1</ele>
        <time>2015-05-09T12:12:49Z</time>
      </trkpt>
      <trkpt lat="44.72627" lon="5.44126">
        <ele>760.06</ele>
        <time>2015-05-09T12:12:55Z</time>
      </trkpt>
      <trkpt lat="44.72635" lon="5.44116">
        <ele>763.42</ele>
        <time>2015-05-09T12:13:08Z</time>
      </trkpt>
      <trkpt lat="44.72644" lon="5.44105">
        <ele>766.31</ele>
        <time>2015-05-09T12:13:20Z</time>
      </trkpt>
      <trkpt lat="44.72645" lon="5.44103">
        <ele>766.31</ele>
        <time>2015-05-09T12:13:21Z</time>
      </trkpt>
      <trkpt lat="44.72652" lon="5.44099">
        <ele>768.71</ele>
        <time>2015-05-09T12:13:28Z</time>
      </trkpt>
      <trkpt lat="44.72663" lon="5.44087">
        <ele>770.63</ele>
        <time>2015-05-09T12:13:41Z</time>
      </trkpt>
      <trkpt lat="44.72671" lon="5.4408">
        <ele>773.04</ele>
        <time>2015-05-09T12:13:51Z</time>
      </trkpt>
      <trkpt lat="44.72678" lon="5.4408">
        <ele>774.48</ele>
        <time>2015-05-09T12:13:56Z</time>
      </trkpt>
      <trkpt lat="44.7269" lon="5.44076">
        <ele>776.4</ele>
        <time>2015-05-09T12:14:06Z</time>
      </trkpt>
      <trkpt lat="44.72696" lon="5.44072">
        <ele>776.4</ele>
        <time>2015-05-09T12:14:12Z</time>
      </trkpt>
      <trkpt lat="44.72699" lon="5.44069">
        <ele>777.36</ele>
        <time>2015-05-09T12:14:16Z</time>
      </trkpt>
      <trkpt lat="44.72704" lon="5.44063">
        <ele>777.84</ele>
        <time>2015-05-09T12:14:22Z</time>
      </trkpt>
      <trkpt lat="44.72718" lon="5.44055">
        <ele>780.25</ele>
        <time>2015-05-09T12:14:36Z</time>
      </trkpt>
      <trkpt lat="44.72723" lon="5.44052">
        <ele>781.21</ele>
        <time>2015-05-09T12:14:40Z</time>
      </trkpt>
      <trkpt lat="44.72735" lon="5.44045">
        <ele>784.57</ele>
        <time>2015-05-09T12:14:52Z</time>
      </trkpt>
      <trkpt lat="44.72743" lon="5.44039">
        <ele>785.05</ele>
        <time>2015-05-09T12:14:59Z</time>
      </trkpt>
      <trkpt lat="44.72753" lon="5.44028">
        <ele>786.5</ele>
        <time>2015-05-09T12:15:10Z</time>
      </trkpt>
      <trkpt lat="44.72766" lon="5.44017">
        <ele>787.94</ele>
        <time>2015-05-09T12:15:21Z</time>
      </trkpt>
      <trkpt lat="44.7277" lon="5.44015">
        <ele>788.42</ele>
        <time>2015-05-09T12:15:24Z</time>
      </trkpt>
      <trkpt lat="44.72783" lon="5.44012">
        <ele>789.86</ele>
        <time>2015-05-09T12:15:34Z</time>
      </trkpt>
      <trkpt lat="44.72794" lon="5.44006">
        <ele>791.78</ele>
        <time>2015-05-09T12:15:44Z</time>
      </trkpt>
      <trkpt lat="44.7281" lon="5.43999">
        <ele>793.71</ele>
        <time>2015-05-09T12:15:57Z</time>
      </trkpt>
      <trkpt lat="44.72823" lon="5.43984">
        <ele>796.11</ele>
        <time>2015-05-09T12:16:09Z</time>
      </trkpt>
      <trkpt lat="44.72835" lon="5.43968">
        <ele>798.03</ele>
        <time>2015-05-09T12:16:20Z</time>
      </trkpt>
      <trkpt lat="44.72845" lon="5.43951">
        <ele>800.44</ele>
        <time>2015-05-09T12:16:32Z</time>
      </trkpt>
      <trkpt lat="44.72853" lon="5.43936">
        <ele>802.84</ele>
        <time>2015-05-09T12:16:43Z</time>
      </trkpt>
      <trkpt lat="44.7286" lon="5.43924">
        <ele>804.76</ele>
        <time>2015-05-09T12:16:56Z</time>
      </trkpt>
      <trkpt lat="44.72864" lon="5.43918">
        <ele>806.2</ele>
        <time>2015-05-09T12:17:01Z</time>
      </trkpt>
      <trkpt lat="44.7287" lon="5.43899">
        <ele>808.13</ele>
        <time>2015-05-09T12:17:14Z</time>
      </trkpt>
      <trkpt lat="44.72874" lon="5.43889">
        <ele>808.61</ele>
        <time>2015-05-09T12:17:19Z</time>
      </trkpt>
      <trkpt lat="44.72875" lon="5.43887">
        <ele>809.09</ele>
        <time>2015-05-09T12:17:21Z</time>
      </trkpt>
      <trkpt lat="44.72878" lon="5.43877">
        <ele>811.01</ele>
        <time>2015-05-09T12:17:32Z</time>
      </trkpt>
      <trkpt lat="44.7288" lon="5.43866">
        <ele>811.97</ele>
        <time>2015-05-09T12:17:41Z</time>
      </trkpt>
      <trkpt lat="44.72887" lon="5.43838">
        <ele>814.37</ele>
        <time>2015-05-09T12:17:54Z</time>
      </trkpt>
      <trkpt lat="44.72889" lon="5.43824">
        <ele>816.3</ele>
        <time>2015-05-09T12:18:02Z</time>
      </trkpt>
      <trkpt lat="44.72889" lon="5.43819">
        <ele>817.74</ele>
        <time>2015-05-09T12:18:08Z</time>
      </trkpt>
      <trkpt lat="44.7289" lon="5.43815">
        <ele>817.74</ele>
        <time>2015-05-09T12:18:10Z</time>
      </trkpt>
      <trkpt lat="44.72894" lon="5.43803">
        <ele>820.62</ele>
        <time>2015-05-09T12:18:22Z</time>
      </trkpt>
      <trkpt lat="44.729" lon="5.43793">
        <ele>821.58</ele>
        <time>2015-05-09T12:18:31Z</time>
      </trkpt>
      <trkpt lat="44.72906" lon="5.43789">
        <ele>823.03</ele>
        <time>2015-05-09T12:18:36Z</time>
      </trkpt>
      <trkpt lat="44.7292" lon="5.43783">
        <ele>824.95</ele>
        <time>2015-05-09T12:18:47Z</time>
      </trkpt>
      <trkpt lat="44.72928" lon="5.4378">
        <ele>826.39</ele>
        <time>2015-05-09T12:18:55Z</time>
      </trkpt>
      <trkpt lat="44.7294" lon="5.4378">
        <ele>828.79</ele>
        <time>2015-05-09T12:19:07Z</time>
      </trkpt>
      <trkpt lat="44.72951" lon="5.43778">
        <ele>831.2</ele>
        <time>2015-05-09T12:19:18Z</time>
      </trkpt>
      <trkpt lat="44.72953" lon="5.43779">
        <ele>832.16</ele>
        <time>2015-05-09T12:19:20Z</time>
      </trkpt>
      <trkpt lat="44.72962" lon="5.43771">
        <ele>834.08</ele>
        <time>2015-05-09T12:19:31Z</time>
      </trkpt>
      <trkpt lat="44.72968" lon="5.43771">
        <ele>836.48</ele>
        <time>2015-05-09T12:19:40Z</time>
      </trkpt>
      <trkpt lat="44.7297" lon="5.43772">
        <ele>837.93</ele>
        <time>2015-05-09T12:19:43Z</time>
      </trkpt>
      <trkpt lat="44.72974" lon="5.43774">
        <ele>838.41</ele>
        <time>2015-05-09T12:19:47Z</time>
      </trkpt>
      <trkpt lat="44.72985" lon="5.43769">
        <ele>838.89</ele>
        <time>2015-05-09T12:19:55Z</time>
      </trkpt>
      <trkpt lat="44.72999" lon="5.43772">
        <ele>839.85</ele>
        <time>2015-05-09T12:20:06Z</time>
      </trkpt>
      <trkpt lat="44.73002" lon="5.43773">
        <ele>840.81</ele>
        <time>2015-05-09T12:20:10Z</time>
      </trkpt>
      <trkpt lat="44.73008" lon="5.43772">
        <ele>841.29</ele>
        <time>2015-05-09T12:20:15Z</time>
      </trkpt>
      <trkpt lat="44.73021" lon="5.43784">
        <ele>843.21</ele>
        <time>2015-05-09T12:20:26Z</time>
      </trkpt>
      <trkpt lat="44.73032" lon="5.43785">
        <ele>844.66</ele>
        <time>2015-05-09T12:20:37Z</time>
      </trkpt>
      <trkpt lat="44.73034" lon="5.43784">
        <ele>846.1</ele>
        <time>2015-05-09T12:20:40Z</time>
      </trkpt>
      <trkpt lat="44.7304" lon="5.43783">
        <ele>846.58</ele>
        <time>2015-05-09T12:20:45Z</time>
      </trkpt>
      <trkpt lat="44.73049" lon="5.43791">
        <ele>848.02</ele>
        <time>2015-05-09T12:20:57Z</time>
      </trkpt>
      <trkpt lat="44.73056" lon="5.43794">
        <ele>848.5</ele>
        <time>2015-05-09T12:21:04Z</time>
      </trkpt>
      <trkpt lat="44.7306" lon="5.43792">
        <ele>851.38</ele>
        <time>2015-05-09T12:21:17Z</time>
      </trkpt>
      <trkpt lat="44.7306" lon="5.43792">
        <ele>843.69</ele>
        <time>2015-05-09T12:21:18Z</time>
      </trkpt>
      <trkpt lat="44.7306" lon="5.43792">
        <ele>854.27</ele>
        <time>2015-05-09T12:21:19Z</time>
      </trkpt>
      <trkpt lat="44.7306" lon="5.43792">
        <ele>848.5</ele>
        <time>2015-05-09T12:21:20Z</time>
      </trkpt>
      <trkpt lat="44.7306" lon="5.43792">
        <ele>843.69</ele>
        <time>2015-05-09T12:21:22Z</time>
      </trkpt>
      <trkpt lat="44.7306" lon="5.43792">
        <ele>852.35</ele>
        <time>2015-05-09T12:21:23Z</time>
      </trkpt>
      <trkpt lat="44.7306" lon="5.43792">
        <ele>847.54</ele>
        <time>2015-05-09T12:21:24Z</time>
      </trkpt>
      <trkpt lat="44.7306" lon="5.43792">
        <ele>851.87</ele>
        <time>2015-05-09T12:21:32Z</time>
      </trkpt>
      <trkpt lat="44.7306" lon="5.43792">
        <ele>847.54</ele>
        <time>2015-05-09T12:21:33Z</time>
      </trkpt>
      <trkpt lat="44.7306" lon="5.43792">
        <ele>848.02</ele>
        <time>2015-05-09T12:21:49Z</time>
      </trkpt>
      <trkpt lat="44.73053" lon="5.43785">
        <ele>846.1</ele>
        <time>2015-05-09T12:25:48Z</time>
      </trkpt>
      <trkpt lat="44.7306" lon="5.4377">
        <ele>846.58</ele>
        <time>2015-05-09T12:26:01Z</time>
      </trkpt>
      <trkpt lat="44.73065" lon="5.43759">
        <ele>848.02</ele>
        <time>2015-05-09T12:26:14Z</time>
      </trkpt>
      <trkpt lat="44.73072" lon="5.43742">
        <ele>848.5</ele>
        <time>2015-05-09T12:26:27Z</time>
      </trkpt>
      <trkpt lat="44.73082" lon="5.43733">
        <ele>846.1</ele>
        <time>2015-05-09T12:26:43Z</time>
      </trkpt>
      <trkpt lat="44.73089" lon="5.43714">
        <ele>848.02</ele>
        <time>2015-05-09T12:26:57Z</time>
      </trkpt>
      <trkpt lat="44.73095" lon="5.43699">
        <ele>850.9</ele>
        <time>2015-05-09T12:27:14Z</time>
      </trkpt>
      <trkpt lat="44.73102" lon="5.43683">
        <ele>850.42</ele>
        <time>2015-05-09T12:27:29Z</time>
      </trkpt>
      <trkpt lat="44.73103" lon="5.4367">
        <ele>849.94</ele>
        <time>2015-05-09T12:27:44Z</time>
      </trkpt>
      <trkpt lat="44.73103" lon="5.43656">
        <ele>848.98</ele>
        <time>2015-05-09T12:27:55Z</time>
      </trkpt>
      <trkpt lat="44.73104" lon="5.43648">
        <ele>847.54</ele>
        <time>2015-05-09T12:28:09Z</time>
      </trkpt>
      <trkpt lat="44.73104" lon="5.43645">
        <ele>847.06</ele>
        <time>2015-05-09T12:28:11Z</time>
      </trkpt>
      <trkpt lat="44.73107" lon="5.43625">
        <ele>846.1</ele>
        <time>2015-05-09T12:28:26Z</time>
      </trkpt>
      <trkpt lat="44.73109" lon="5.43619">
        <ele>845.14</ele>
        <time>2015-05-09T12:28:44Z</time>
      </trkpt>
      <trkpt lat="44.73115" lon="5.43606">
        <ele>843.69</ele>
        <time>2015-05-09T12:28:58Z</time>
      </trkpt>
      <trkpt lat="44.73119" lon="5.43601">
        <ele>835.04</ele>
        <time>2015-05-09T12:29:06Z</time>
      </trkpt>
      <trkpt lat="44.73119" lon="5.43601">
        <ele>853.31</ele>
        <time>2015-05-09T12:29:07Z</time>
      </trkpt>
      <trkpt lat="44.73119" lon="5.43601">
        <ele>843.69</ele>
        <time>2015-05-09T12:29:08Z</time>
      </trkpt>
      <trkpt lat="44.73119" lon="5.43601">
        <ele>841.77</ele>
        <time>2015-05-09T12:29:11Z</time>
      </trkpt>
      <trkpt lat="44.73119" lon="5.43601">
        <ele>848.5</ele>
        <time>2015-05-09T12:29:12Z</time>
      </trkpt>
      <trkpt lat="44.73119" lon="5.43601">
        <ele>840.81</ele>
        <time>2015-05-09T12:29:13Z</time>
      </trkpt>
      <trkpt lat="44.73119" lon="5.43601">
        <ele>845.14</ele>
        <time>2015-05-09T12:29:14Z</time>
      </trkpt>
      <trkpt lat="44.73119" lon="5.43601">
        <ele>843.21</ele>
        <time>2015-05-09T12:29:17Z</time>
      </trkpt>
      <trkpt lat="44.73121" lon="5.43602">
        <ele>842.25</ele>
        <time>2015-05-09T12:29:29Z</time>
      </trkpt>
      <trkpt lat="44.73121" lon="5.43603">
        <ele>842.73</ele>
        <time>2015-05-09T12:29:38Z</time>
      </trkpt>
      <trkpt lat="44.73123" lon="5.43607">
        <ele>842.25</ele>
        <time>2015-05-09T12:29:41Z</time>
      </trkpt>
      <trkpt lat="44.73127" lon="5.43616">
        <ele>841.77</ele>
        <time>2015-05-09T12:29:45Z</time>
      </trkpt>
      <trkpt lat="44.73133" lon="5.43626">
        <ele>840.81</ele>
        <time>2015-05-09T12:29:53Z</time>
      </trkpt>
      <trkpt lat="44.7314" lon="5.43627">
        <ele>839.85</ele>
        <time>2015-05-09T12:29:57Z</time>
      </trkpt>
      <trkpt lat="44.73145" lon="5.43621">
        <ele>839.85</ele>
        <time>2015-05-09T12:29:59Z</time>
      </trkpt>
      <trkpt lat="44.73155" lon="5.43596">
        <ele>836.48</ele>
        <time>2015-05-09T12:30:13Z</time>
      </trkpt>
      <trkpt lat="44.7316" lon="5.43587">
        <ele>835.04</ele>
        <time>2015-05-09T12:30:21Z</time>
      </trkpt>
      <trkpt lat="44.73166" lon="5.43566">
        <ele>833.12</ele>
        <time>2015-05-09T12:30:33Z</time>
      </trkpt>
      <trkpt lat="44.73166" lon="5.43563">
        <ele>832.64</ele>
        <time>2015-05-09T12:30:35Z</time>
      </trkpt>
      <trkpt lat="44.73166" lon="5.43558">
        <ele>832.16</ele>
        <time>2015-05-09T12:30:38Z</time>
      </trkpt>
      <trkpt lat="44.73166" lon="5.43544">
        <ele>830.72</ele>
        <time>2015-05-09T12:30:46Z</time>
      </trkpt>
      <trkpt lat="44.73172" lon="5.43536">
        <ele>829.76</ele>
        <time>2015-05-09T12:30:49Z</time>
      </trkpt>
      <trkpt lat="44.73176" lon="5.43528">
        <ele>828.79</ele>
        <time>2015-05-09T12:30:53Z</time>
      </trkpt>
      <trkpt lat="44.73185" lon="5.43521">
        <ele>827.35</ele>
        <time>2015-05-09T12:31:03Z</time>
      </trkpt>
      <trkpt lat="44.73206" lon="5.43515">
        <ele>824.95</ele>
        <time>2015-05-09T12:31:19Z</time>
      </trkpt>
      <trkpt lat="44.73223" lon="5.43499">
        <ele>823.51</ele>
        <time>2015-05-09T12:31:32Z</time>
      </trkpt>
      <trkpt lat="44.73227" lon="5.43487">
        <ele>822.06</ele>
        <time>2015-05-09T12:31:40Z</time>
      </trkpt>
      <trkpt lat="44.73233" lon="5.43456">
        <ele>819.18</ele>
        <time>2015-05-09T12:31:53Z</time>
      </trkpt>
      <trkpt lat="44.73237" lon="5.43429">
        <ele>817.26</ele>
        <time>2015-05-09T12:32:05Z</time>
      </trkpt>
      <trkpt lat="44.73238" lon="5.43422">
        <ele>816.78</ele>
        <time>2015-05-09T12:32:17Z</time>
      </trkpt>
      <trkpt lat="44.73238" lon="5.43422">
        <ele>812.93</ele>
        <time>2015-05-09T12:32:20Z</time>
      </trkpt>
      <trkpt lat="44.73238" lon="5.43422">
        <ele>818.22</ele>
        <time>2015-05-09T12:32:21Z</time>
      </trkpt>
      <trkpt lat="44.73238" lon="5.43422">
        <ele>814.85</ele>
        <time>2015-05-09T12:32:22Z</time>
      </trkpt>
      <trkpt lat="44.73238" lon="5.43422">
        <ele>820.62</ele>
        <time>2015-05-09T12:32:23Z</time>
      </trkpt>
      <trkpt lat="44.73238" lon="5.43422">
        <ele>816.78</ele>
        <time>2015-05-09T12:32:24Z</time>
      </trkpt>
      <trkpt lat="44.73239" lon="5.43421">
        <ele>815.82</ele>
        <time>2015-05-09T12:32:42Z</time>
      </trkpt>
      <trkpt lat="44.73241" lon="5.43417">
        <ele>814.37</ele>
        <time>2015-05-09T12:32:54Z</time>
      </trkpt>
      <trkpt lat="44.73247" lon="5.43407">
        <ele>810.53</ele>
        <time>2015-05-09T12:33:01Z</time>
      </trkpt>
      <trkpt lat="44.7325" lon="5.43403">
        <ele>809.09</ele>
        <time>2015-05-09T12:33:05Z</time>
      </trkpt>
      <trkpt lat="44.73251" lon="5.43403">
        <ele>808.61</ele>
        <time>2015-05-09T12:33:06Z</time>
      </trkpt>
      <trkpt lat="44.73254" lon="5.43405">
        <ele>807.16</ele>
        <time>2015-05-09T12:33:09Z</time>
      </trkpt>
      <trkpt lat="44.73258" lon="5.43404">
        <ele>806.2</ele>
        <time>2015-05-09T12:33:11Z</time>
      </trkpt>
      <trkpt lat="44.73262" lon="5.43398">
        <ele>805.24</ele>
        <time>2015-05-09T12:33:14Z</time>
      </trkpt>
      <trkpt lat="44.73266" lon="5.43392">
        <ele>803.8</ele>
        <time>2015-05-09T12:33:18Z</time>
      </trkpt>
      <trkpt lat="44.73271" lon="5.43383">
        <ele>801.88</ele>
        <time>2015-05-09T12:33:24Z</time>
      </trkpt>
      <trkpt lat="44.73278" lon="5.43364">
        <ele>798.51</ele>
        <time>2015-05-09T12:33:36Z</time>
      </trkpt>
      <trkpt lat="44.73279" lon="5.43362">
        <ele>798.03</ele>
        <time>2015-05-09T12:33:37Z</time>
      </trkpt>
      <trkpt lat="44.73285" lon="5.43347">
        <ele>795.63</ele>
        <time>2015-05-09T12:33:47Z</time>
      </trkpt>
      <trkpt lat="44.7329" lon="5.43337">
        <ele>794.67</ele>
        <time>2015-05-09T12:33:52Z</time>
      </trkpt>
      <trkpt lat="44.733" lon="5.43307">
        <ele>791.78</ele>
        <time>2015-05-09T12:34:04Z</time>
      </trkpt>
      <trkpt lat="44.73301" lon="5.43298">
        <ele>789.86</ele>
        <time>2015-05-09T12:34:09Z</time>
      </trkpt>
      <trkpt lat="44.73303" lon="5.43292">
        <ele>788.42</ele>
        <time>2015-05-09T12:34:13Z</time>
      </trkpt>
      <trkpt lat="44.73308" lon="5.43276">
        <ele>785.05</ele>
        <time>2015-05-09T12:34:23Z</time>
      </trkpt>
      <trkpt lat="44.73313" lon="5.4327">
        <ele>783.13</ele>
        <time>2015-05-09T12:34:29Z</time>
      </trkpt>
      <trkpt lat="44.73319" lon="5.43263">
        <ele>781.21</ele>
        <time>2015-05-09T12:34:35Z</time>
      </trkpt>
      <trkpt lat="44.73327" lon="5.43248">
        <ele>777.36</ele>
        <time>2015-05-09T12:34:46Z</time>
      </trkpt>
      <trkpt lat="44.73341" lon="5.43236">
        <ele>774</ele>
        <time>2015-05-09T12:34:59Z</time>
      </trkpt>
      <trkpt lat="44.73348" lon="5.43234">
        <ele>771.11</ele>
        <time>2015-05-09T12:35:09Z</time>
      </trkpt>
      <trkpt lat="44.73357" lon="5.43227">
        <ele>767.75</ele>
        <time>2015-05-09T12:35:21Z</time>
      </trkpt>
      <trkpt lat="44.73366" lon="5.43221">
        <ele>765.35</ele>
        <time>2015-05-09T12:35:28Z</time>
      </trkpt>
      <trkpt lat="44.7337" lon="5.43223">
        <ele>765.35</ele>
        <time>2015-05-09T12:35:30Z</time>
      </trkpt>
      <trkpt lat="44.73376" lon="5.43227">
        <ele>764.39</ele>
        <time>2015-05-09T12:35:35Z</time>
      </trkpt>
      <trkpt lat="44.73382" lon="5.43229">
        <ele>767.75</ele>
        <time>2015-05-09T12:35:50Z</time>
      </trkpt>
      <trkpt lat="44.73382" lon="5.43229">
        <ele>757.18</ele>
        <time>2015-05-09T12:35:51Z</time>
      </trkpt>
      <trkpt lat="44.73382" lon="5.43229">
        <ele>763.9</ele>
        <time>2015-05-09T12:35:52Z</time>
      </trkpt>
      <trkpt lat="44.73382" lon="5.43229">
        <ele>770.63</ele>
        <time>2015-05-09T12:35:53Z</time>
      </trkpt>
      <trkpt lat="44.73382" lon="5.43229">
        <ele>761.5</ele>
        <time>2015-05-09T12:35:54Z</time>
      </trkpt>
      <trkpt lat="44.73382" lon="5.43229">
        <ele>765.35</ele>
        <time>2015-05-09T12:35:55Z</time>
      </trkpt>
      <trkpt lat="44.73382" lon="5.43229">
        <ele>762.46</ele>
        <time>2015-05-09T12:35:57Z</time>
      </trkpt>
      <trkpt lat="44.73382" lon="5.43229">
        <ele>763.42</ele>
        <time>2015-05-09T12:35:58Z</time>
      </trkpt>
      <trkpt lat="44.73382" lon="5.43229">
        <ele>767.27</ele>
        <time>2015-05-09T12:35:59Z</time>
      </trkpt>
      <trkpt lat="44.73382" lon="5.43229">
        <ele>762.94</ele>
        <time>2015-05-09T12:36:00Z</time>
      </trkpt>
      <trkpt lat="44.73384" lon="5.4323">
        <ele>762.46</ele>
        <time>2015-05-09T12:36:21Z</time>
      </trkpt>
      <trkpt lat="44.73387" lon="5.43232">
        <ele>762.46</ele>
        <time>2015-05-09T12:36:51Z</time>
      </trkpt>
      <trkpt lat="44.73394" lon="5.43264">
        <ele>759.58</ele>
        <time>2015-05-09T12:37:05Z</time>
      </trkpt>
      <trkpt lat="44.73402" lon="5.43273">
        <ele>758.62</ele>
        <time>2015-05-09T12:37:12Z</time>
      </trkpt>
      <trkpt lat="44.73413" lon="5.43256">
        <ele>757.18</ele>
        <time>2015-05-09T12:37:21Z</time>
      </trkpt>
      <trkpt lat="44.73417" lon="5.43249">
        <ele>756.69</ele>
        <time>2015-05-09T12:37:25Z</time>
      </trkpt>
      <trkpt lat="44.73428" lon="5.43242">
        <ele>753.33</ele>
        <time>2015-05-09T12:37:36Z</time>
      </trkpt>
      <trkpt lat="44.73438" lon="5.43242">
        <ele>749.97</ele>
        <time>2015-05-09T12:37:46Z</time>
      </trkpt>
      <trkpt lat="44.73443" lon="5.43239">
        <ele>748.04</ele>
        <time>2015-05-09T12:37:50Z</time>
      </trkpt>
      <trkpt lat="44.73447" lon="5.43238">
        <ele>747.08</ele>
        <time>2015-05-09T12:37:53Z</time>
      </trkpt>
      <trkpt lat="44.73454" lon="5.43237">
        <ele>744.2</ele>
        <time>2015-05-09T12:38:00Z</time>
      </trkpt>
      <trkpt lat="44.73469" lon="5.43238">
        <ele>740.83</ele>
        <time>2015-05-09T12:38:11Z</time>
      </trkpt>
      <trkpt lat="44.7347" lon="5.43237">
        <ele>740.35</ele>
        <time>2015-05-09T12:38:12Z</time>
      </trkpt>
      <trkpt lat="44.73481" lon="5.43233">
        <ele>736.99</ele>
        <time>2015-05-09T12:38:21Z</time>
      </trkpt>
      <trkpt lat="44.73488" lon="5.4323">
        <ele>735.55</ele>
        <time>2015-05-09T12:38:27Z</time>
      </trkpt>
      <trkpt lat="44.73491" lon="5.43229">
        <ele>734.58</ele>
        <time>2015-05-09T12:38:29Z</time>
      </trkpt>
      <trkpt lat="44.73495" lon="5.43227">
        <ele>733.62</ele>
        <time>2015-05-09T12:38:32Z</time>
      </trkpt>
      <trkpt lat="44.73519" lon="5.43216">
        <ele>730.74</ele>
        <time>2015-05-09T12:38:47Z</time>
      </trkpt>
      <trkpt lat="44.73528" lon="5.43203">
        <ele>728.34</ele>
        <time>2015-05-09T12:38:57Z</time>
      </trkpt>
      <trkpt lat="44.73548" lon="5.43186">
        <ele>725.93</ele>
        <time>2015-05-09T12:39:11Z</time>
      </trkpt>
      <trkpt lat="44.73566" lon="5.43172">
        <ele>723.05</ele>
        <time>2015-05-09T12:39:25Z</time>
      </trkpt>
      <trkpt lat="44.73575" lon="5.4316">
        <ele>722.09</ele>
        <time>2015-05-09T12:39:35Z</time>
      </trkpt>
      <trkpt lat="44.73589" lon="5.43145">
        <ele>720.65</ele>
        <time>2015-05-09T12:39:49Z</time>
      </trkpt>
      <trkpt lat="44.736" lon="5.43132">
        <ele>721.13</ele>
        <time>2015-05-09T12:39:58Z</time>
      </trkpt>
      <trkpt lat="44.73611" lon="5.43123">
        <ele>721.13</ele>
        <time>2015-05-09T12:40:05Z</time>
      </trkpt>
      <trkpt lat="44.73618" lon="5.43117">
        <ele>720.65</ele>
        <time>2015-05-09T12:40:10Z</time>
      </trkpt>
      <trkpt lat="44.73628" lon="5.43116">
        <ele>720.65</ele>
        <time>2015-05-09T12:40:18Z</time>
      </trkpt>
      <trkpt lat="44.73634" lon="5.43116">
        <ele>720.65</ele>
        <time>2015-05-09T12:40:22Z</time>
      </trkpt>
      <trkpt lat="44.73637" lon="5.43114">
        <ele>715.84</ele>
        <time>2015-05-09T12:40:30Z</time>
      </trkpt>
      <trkpt lat="44.73637" lon="5.43114">
        <ele>722.57</ele>
        <time>2015-05-09T12:40:31Z</time>
      </trkpt>
      <trkpt lat="44.73637" lon="5.43114">
        <ele>719.68</ele>
        <time>2015-05-09T12:40:32Z</time>
      </trkpt>
      <trkpt lat="44.73637" lon="5.43114">
        <ele>724.49</ele>
        <time>2015-05-09T12:40:33Z</time>
      </trkpt>
      <trkpt lat="44.73637" lon="5.43114">
        <ele>718.72</ele>
        <time>2015-05-09T12:40:34Z</time>
      </trkpt>
      <trkpt lat="44.73637" lon="5.43114">
        <ele>723.53</ele>
        <time>2015-05-09T12:40:35Z</time>
      </trkpt>
      <trkpt lat="44.73637" lon="5.43114">
        <ele>720.65</ele>
        <time>2015-05-09T12:40:37Z</time>
      </trkpt>
      <trkpt lat="44.73642" lon="5.4311">
        <ele>719.2</ele>
        <time>2015-05-09T12:40:50Z</time>
      </trkpt>
      <trkpt lat="44.73643" lon="5.43109">
        <ele>718.72</ele>
        <time>2015-05-09T12:41:13Z</time>
      </trkpt>
      <trkpt lat="44.73645" lon="5.43108">
        <ele>718.24</ele>
        <time>2015-05-09T12:41:20Z</time>
      </trkpt>
      <trkpt lat="44.73654" lon="5.431">
        <ele>714.88</ele>
        <time>2015-05-09T12:41:30Z</time>
      </trkpt>
      <trkpt lat="44.73662" lon="5.43096">
        <ele>713.92</ele>
        <time>2015-05-09T12:41:36Z</time>
      </trkpt>
      <trkpt lat="44.73677" lon="5.43092">
        <ele>710.07</ele>
        <time>2015-05-09T12:41:48Z</time>
      </trkpt>
      <trkpt lat="44.73689" lon="5.43096">
        <ele>708.15</ele>
        <time>2015-05-09T12:41:56Z</time>
      </trkpt>
      <trkpt lat="44.73704" lon="5.43099">
        <ele>704.78</ele>
        <time>2015-05-09T12:42:08Z</time>
      </trkpt>
      <trkpt lat="44.73708" lon="5.43099">
        <ele>703.82</ele>
        <time>2015-05-09T12:42:12Z</time>
      </trkpt>
      <trkpt lat="44.73715" lon="5.43099">
        <ele>702.38</ele>
        <time>2015-05-09T12:42:17Z</time>
      </trkpt>
      <trkpt lat="44.73732" lon="5.43097">
        <ele>698.53</ele>
        <time>2015-05-09T12:42:30Z</time>
      </trkpt>
      <trkpt lat="44.73739" lon="5.43093">
        <ele>695.65</ele>
        <time>2015-05-09T12:42:40Z</time>
      </trkpt>
      <trkpt lat="44.73743" lon="5.43092">
        <ele>694.21</ele>
        <time>2015-05-09T12:42:42Z</time>
      </trkpt>
      <trkpt lat="44.73763" lon="5.43087">
        <ele>690.84</ele>
        <time>2015-05-09T12:42:55Z</time>
      </trkpt>
      <trkpt lat="44.73773" lon="5.43084">
        <ele>688.92</ele>
        <time>2015-05-09T12:43:04Z</time>
      </trkpt>
      <trkpt lat="44.73783" lon="5.43082">
        <ele>687.48</ele>
        <time>2015-05-09T12:43:11Z</time>
      </trkpt>
      <trkpt lat="44.73805" lon="5.43077">
        <ele>685.56</ele>
        <time>2015-05-09T12:43:26Z</time>
      </trkpt>
      <trkpt lat="44.7382" lon="5.43074">
        <ele>683.15</ele>
        <time>2015-05-09T12:43:38Z</time>
      </trkpt>
      <trkpt lat="44.73823" lon="5.43073">
        <ele>682.67</ele>
        <time>2015-05-09T12:43:41Z</time>
      </trkpt>
      <trkpt lat="44.73845" lon="5.43071">
        <ele>680.27</ele>
        <time>2015-05-09T12:43:55Z</time>
      </trkpt>
      <trkpt lat="44.73868" lon="5.43058">
        <ele>677.39</ele>
        <time>2015-05-09T12:44:12Z</time>
      </trkpt>
      <trkpt lat="44.73872" lon="5.43053">
        <ele>676.91</ele>
        <time>2015-05-09T12:44:15Z</time>
      </trkpt>
      <trkpt lat="44.7388" lon="5.43048">
        <ele>675.46</ele>
        <time>2015-05-09T12:44:20Z</time>
      </trkpt>
      <trkpt lat="44.73883" lon="5.43038">
        <ele>674.5</ele>
        <time>2015-05-09T12:44:25Z</time>
      </trkpt>
      <trkpt lat="44.7389" lon="5.43021">
        <ele>672.58</ele>
        <time>2015-05-09T12:44:38Z</time>
      </trkpt>
      <trkpt lat="44.739" lon="5.4301">
        <ele>672.1</ele>
        <time>2015-05-09T12:44:46Z</time>
      </trkpt>
      <trkpt lat="44.73903" lon="5.43007">
        <ele>672.1</ele>
        <time>2015-05-09T12:44:48Z</time>
      </trkpt>
      <trkpt lat="44.73909" lon="5.42999">
        <ele>672.58</ele>
        <time>2015-05-09T12:44:52Z</time>
      </trkpt>
      <trkpt lat="44.73917" lon="5.42986">
        <ele>672.1</ele>
        <time>2015-05-09T12:44:58Z</time>
      </trkpt>
      <trkpt lat="44.73925" lon="5.42976">
        <ele>671.14</ele>
        <time>2015-05-09T12:45:09Z</time>
      </trkpt>
      <trkpt lat="44.73927" lon="5.42973">
        <ele>668.73</ele>
        <time>2015-05-09T12:45:21Z</time>
      </trkpt>
      <trkpt lat="44.73929" lon="5.42973">
        <ele>668.25</ele>
        <time>2015-05-09T12:45:23Z</time>
      </trkpt>
      <trkpt lat="44.7397" lon="5.42946">
        <ele>666.81</ele>
        <time>2015-05-09T12:45:38Z</time>
      </trkpt>
      <trkpt lat="44.73989" lon="5.42947">
        <ele>665.37</ele>
        <time>2015-05-09T12:45:51Z</time>
      </trkpt>
      <trkpt lat="44.7399" lon="5.42947">
        <ele>665.37</ele>
        <time>2015-05-09T12:45:52Z</time>
      </trkpt>
      <trkpt lat="44.73993" lon="5.42949">
        <ele>664.89</ele>
        <time>2015-05-09T12:45:54Z</time>
      </trkpt>
      <trkpt lat="44.73996" lon="5.42957">
        <ele>664.41</ele>
        <time>2015-05-09T12:45:58Z</time>
      </trkpt>
      <trkpt lat="44.73997" lon="5.42959">
        <ele>664.41</ele>
        <time>2015-05-09T12:46:00Z</time>
      </trkpt>
      <trkpt lat="44.74012" lon="5.42969">
        <ele>663.45</ele>
        <time>2015-05-09T12:46:14Z</time>
      </trkpt>
      <trkpt lat="44.74012" lon="5.42971">
        <ele>662.97</ele>
        <time>2015-05-09T12:46:25Z</time>
      </trkpt>
      <trkpt lat="44.7401" lon="5.42977">
        <ele>662.49</ele>
        <time>2015-05-09T12:46:38Z</time>
      </trkpt>
      <trkpt lat="44.7401" lon="5.42975">
        <ele>662.49</ele>
        <time>2015-05-09T12:46:39Z</time>
      </trkpt>
      <trkpt lat="44.74013" lon="5.42969">
        <ele>663.45</ele>
        <time>2015-05-09T12:46:50Z</time>
      </trkpt>
      <trkpt lat="44.74013" lon="5.42967">
        <ele>662.97</ele>
        <time>2015-05-09T12:47:13Z</time>
      </trkpt>
      <trkpt lat="44.74013" lon="5.42967">
        <ele>662.97</ele>
        <time>2015-05-09T12:47:41Z</time>
      </trkpt>
      <trkpt lat="44.74011" lon="5.4297">
        <ele>662.49</ele>
        <time>2015-05-09T12:47:53Z</time>
      </trkpt>
      <trkpt lat="44.74009" lon="5.42975">
        <ele>661.52</ele>
        <time>2015-05-09T12:47:57Z</time>
      </trkpt>
      <trkpt lat="44.74" lon="5.42985">
        <ele>658.16</ele>
        <time>2015-05-09T12:48:10Z</time>
      </trkpt>
      <trkpt lat="44.73991" lon="5.42999">
        <ele>655.28</ele>
        <time>2015-05-09T12:48:21Z</time>
      </trkpt>
      <trkpt lat="44.73991" lon="5.43">
        <ele>654.8</ele>
        <time>2015-05-09T12:48:24Z</time>
      </trkpt>
      <trkpt lat="44.73986" lon="5.43007">
        <ele>652.39</ele>
        <time>2015-05-09T12:48:30Z</time>
      </trkpt>
      <trkpt lat="44.73983" lon="5.43013">
        <ele>650.95</ele>
        <time>2015-05-09T12:48:34Z</time>
      </trkpt>
      <trkpt lat="44.73976" lon="5.43035">
        <ele>648.55</ele>
        <time>2015-05-09T12:48:48Z</time>
      </trkpt>
      <trkpt lat="44.73973" lon="5.43057">
        <ele>646.14</ele>
        <time>2015-05-09T12:49:02Z</time>
      </trkpt>
      <trkpt lat="44.73974" lon="5.4306">
        <ele>646.14</ele>
        <time>2015-05-09T12:49:17Z</time>
      </trkpt>
      <trkpt lat="44.73974" lon="5.4306">
        <ele>645.18</ele>
        <time>2015-05-09T12:49:38Z</time>
      </trkpt>
      <trkpt lat="44.73974" lon="5.4306">
        <ele>643.74</ele>
        <time>2015-05-09T12:49:49Z</time>
      </trkpt>
      <trkpt lat="44.73973" lon="5.4308">
        <ele>642.78</ele>
        <time>2015-05-09T12:50:00Z</time>
      </trkpt>
      <trkpt lat="44.73967" lon="5.4311">
        <ele>644.7</ele>
        <time>2015-05-09T12:50:18Z</time>
      </trkpt>
      <trkpt lat="44.73953" lon="5.43131">
        <ele>646.14</ele>
        <time>2015-05-09T12:50:33Z</time>
      </trkpt>
      <trkpt lat="44.73946" lon="5.43147">
        <ele>645.66</ele>
        <time>2015-05-09T12:50:47Z</time>
      </trkpt>
      <trkpt lat="44.73945" lon="5.4315">
        <ele>646.14</ele>
        <time>2015-05-09T12:51:04Z</time>
      </trkpt>
      <trkpt lat="44.73941" lon="5.43164">
        <ele>647.1</ele>
        <time>2015-05-09T12:51:19Z</time>
      </trkpt>
      <trkpt lat="44.73938" lon="5.43163">
        <ele>647.59</ele>
        <time>2015-05-09T12:51:22Z</time>
      </trkpt>
      <trkpt lat="44.73935" lon="5.43165">
        <ele>647.59</ele>
        <time>2015-05-09T12:51:26Z</time>
      </trkpt>
      <trkpt lat="44.73933" lon="5.43184">
        <ele>649.03</ele>
        <time>2015-05-09T12:51:38Z</time>
      </trkpt>
      <trkpt lat="44.73939" lon="5.43184">
        <ele>648.07</ele>
        <time>2015-05-09T12:51:51Z</time>
      </trkpt>
      <trkpt lat="44.73948" lon="5.43174">
        <ele>647.1</ele>
        <time>2015-05-09T12:52:09Z</time>
      </trkpt>
      <trkpt lat="44.73949" lon="5.43174">
        <ele>646.14</ele>
        <time>2015-05-09T12:52:18Z</time>
      </trkpt>
      <trkpt lat="44.73972" lon="5.4317">
        <ele>645.18</ele>
        <time>2015-05-09T12:52:33Z</time>
      </trkpt>
      <trkpt lat="44.73995" lon="5.43168">
        <ele>645.66</ele>
        <time>2015-05-09T12:52:47Z</time>
      </trkpt>
      <trkpt lat="44.74006" lon="5.43151">
        <ele>644.7</ele>
        <time>2015-05-09T12:53:02Z</time>
      </trkpt>
      <trkpt lat="44.74008" lon="5.43145">
        <ele>644.7</ele>
        <time>2015-05-09T12:53:05Z</time>
      </trkpt>
      <trkpt lat="44.74026" lon="5.43119">
        <ele>643.74</ele>
        <time>2015-05-09T12:53:21Z</time>
      </trkpt>
      <trkpt lat="44.74033" lon="5.43101">
        <ele>642.3</ele>
        <time>2015-05-09T12:53:31Z</time>
      </trkpt>
      <trkpt lat="44.74036" lon="5.43091">
        <ele>641.34</ele>
        <time>2015-05-09T12:53:37Z</time>
      </trkpt>
      <trkpt lat="44.74049" lon="5.43074">
        <ele>640.38</ele>
        <time>2015-05-09T12:53:50Z</time>
      </trkpt>
      <trkpt lat="44.74052" lon="5.43065">
        <ele>638.45</ele>
        <time>2015-05-09T12:54:03Z</time>
      </trkpt>
      <trkpt lat="44.74066" lon="5.43067">
        <ele>636.53</ele>
        <time>2015-05-09T12:54:19Z</time>
      </trkpt>
      <trkpt lat="44.74076" lon="5.43074">
        <ele>636.53</ele>
        <time>2015-05-09T12:54:33Z</time>
      </trkpt>
      <trkpt lat="44.7409" lon="5.43082">
        <ele>637.49</ele>
        <time>2015-05-09T12:54:47Z</time>
      </trkpt>
      <trkpt lat="44.74101" lon="5.43082">
        <ele>637.97</ele>
        <time>2015-05-09T12:55:01Z</time>
      </trkpt>
      <trkpt lat="44.74137" lon="5.43074">
        <ele>639.41</ele>
        <time>2015-05-09T12:55:15Z</time>
      </trkpt>
      <trkpt lat="44.74141" lon="5.43074">
        <ele>639.89</ele>
        <time>2015-05-09T12:55:31Z</time>
      </trkpt>
      <trkpt lat="44.74141" lon="5.43074">
        <ele>639.41</ele>
        <time>2015-05-09T12:55:54Z</time>
      </trkpt>
      <trkpt lat="44.74148" lon="5.43074">
        <ele>639.41</ele>
        <time>2015-05-09T12:56:09Z</time>
      </trkpt>
      <trkpt lat="44.74164" lon="5.43071">
        <ele>641.34</ele>
        <time>2015-05-09T12:56:22Z</time>
      </trkpt>
      <trkpt lat="44.74173" lon="5.43065">
        <ele>641.34</ele>
        <time>2015-05-09T12:56:31Z</time>
      </trkpt>
      <trkpt lat="44.7419" lon="5.43055">
        <ele>641.34</ele>
        <time>2015-05-09T12:56:45Z</time>
      </trkpt>
      <trkpt lat="44.74194" lon="5.43051">
        <ele>641.34</ele>
        <time>2015-05-09T12:56:49Z</time>
      </trkpt>
      <trkpt lat="44.742" lon="5.43046">
        <ele>640.38</ele>
        <time>2015-05-09T12:56:53Z</time>
      </trkpt>
      <trkpt lat="44.74211" lon="5.43038">
        <ele>639.41</ele>
        <time>2015-05-09T12:57:03Z</time>
      </trkpt>
      <trkpt lat="44.74216" lon="5.43034">
        <ele>639.41</ele>
        <time>2015-05-09T12:57:08Z</time>
      </trkpt>
      <trkpt lat="44.74222" lon="5.43023">
        <ele>638.45</ele>
        <time>2015-05-09T12:57:16Z</time>
      </trkpt>
      <trkpt lat="44.74226" lon="5.43015">
        <ele>638.45</ele>
        <time>2015-05-09T12:57:20Z</time>
      </trkpt>
      <trkpt lat="44.74233" lon="5.42998">
        <ele>636.53</ele>
        <time>2015-05-09T12:57:30Z</time>
      </trkpt>
      <trkpt lat="44.74238" lon="5.42989">
        <ele>636.05</ele>
        <time>2015-05-09T12:57:37Z</time>
      </trkpt>
      <trkpt lat="44.7424" lon="5.42982">
        <ele>634.13</ele>
        <time>2015-05-09T12:57:42Z</time>
      </trkpt>
      <trkpt lat="44.7424" lon="5.42967">
        <ele>632.2</ele>
        <time>2015-05-09T12:57:53Z</time>
      </trkpt>
      <trkpt lat="44.74255" lon="5.42962">
        <ele>632.2</ele>
        <time>2015-05-09T12:58:05Z</time>
      </trkpt>
      <trkpt lat="44.74263" lon="5.42961">
        <ele>632.68</ele>
        <time>2015-05-09T12:58:11Z</time>
      </trkpt>
      <trkpt lat="44.74278" lon="5.42956">
        <ele>633.65</ele>
        <time>2015-05-09T12:58:23Z</time>
      </trkpt>
      <trkpt lat="44.74287" lon="5.42956">
        <ele>633.65</ele>
        <time>2015-05-09T12:58:30Z</time>
      </trkpt>
      <trkpt lat="44.74304" lon="5.42956">
        <ele>633.65</ele>
        <time>2015-05-09T12:58:44Z</time>
      </trkpt>
      <trkpt lat="44.74305" lon="5.42956">
        <ele>634.13</ele>
        <time>2015-05-09T12:58:45Z</time>
      </trkpt>
      <trkpt lat="44.74311" lon="5.42956">
        <ele>634.61</ele>
        <time>2015-05-09T12:58:49Z</time>
      </trkpt>
      <trkpt lat="44.74328" lon="5.42958">
        <ele>636.53</ele>
        <time>2015-05-09T12:59:02Z</time>
      </trkpt>
      <trkpt lat="44.74346" lon="5.42954">
        <ele>637.97</ele>
        <time>2015-05-09T12:59:16Z</time>
      </trkpt>
      <trkpt lat="44.74357" lon="5.4295">
        <ele>638.93</ele>
        <time>2015-05-09T12:59:24Z</time>
      </trkpt>
      <trkpt lat="44.74363" lon="5.42948">
        <ele>639.41</ele>
        <time>2015-05-09T12:59:28Z</time>
      </trkpt>
      <trkpt lat="44.7438" lon="5.42935">
        <ele>640.38</ele>
        <time>2015-05-09T12:59:42Z</time>
      </trkpt>
      <trkpt lat="44.74398" lon="5.42925">
        <ele>641.82</ele>
        <time>2015-05-09T12:59:55Z</time>
      </trkpt>
      <trkpt lat="44.74415" lon="5.42918">
        <ele>642.78</ele>
        <time>2015-05-09T13:00:09Z</time>
      </trkpt>
      <trkpt lat="44.7442" lon="5.42918">
        <ele>643.26</ele>
        <time>2015-05-09T13:00:13Z</time>
      </trkpt>
      <trkpt lat="44.74428" lon="5.4292">
        <ele>643.74</ele>
        <time>2015-05-09T13:00:20Z</time>
      </trkpt>
      <trkpt lat="44.74439" lon="5.42938">
        <ele>645.18</ele>
        <time>2015-05-09T13:00:32Z</time>
      </trkpt>
      <trkpt lat="44.74448" lon="5.4296">
        <ele>645.66</ele>
        <time>2015-05-09T13:00:45Z</time>
      </trkpt>
      <trkpt lat="44.74456" lon="5.4298">
        <ele>646.62</ele>
        <time>2015-05-09T13:00:57Z</time>
      </trkpt>
      <trkpt lat="44.74465" lon="5.43004">
        <ele>648.07</ele>
        <time>2015-05-09T13:01:10Z</time>
      </trkpt>
      <trkpt lat="44.74472" lon="5.43026">
        <ele>648.55</ele>
        <time>2015-05-09T13:01:22Z</time>
      </trkpt>
      <trkpt lat="44.74482" lon="5.43051">
        <ele>649.03</ele>
        <time>2015-05-09T13:01:37Z</time>
      </trkpt>
      <trkpt lat="44.74484" lon="5.43058">
        <ele>649.51</ele>
        <time>2015-05-09T13:01:41Z</time>
      </trkpt>
      <trkpt lat="44.74489" lon="5.43076">
        <ele>650.47</ele>
        <time>2015-05-09T13:01:49Z</time>
      </trkpt>
      <trkpt lat="44.74499" lon="5.43099">
        <ele>650.95</ele>
        <time>2015-05-09T13:02:02Z</time>
      </trkpt>
      <trkpt lat="44.74503" lon="5.43116">
        <ele>651.43</ele>
        <time>2015-05-09T13:02:09Z</time>
      </trkpt>
      <trkpt lat="44.74514" lon="5.43145">
        <ele>652.39</ele>
        <time>2015-05-09T13:02:23Z</time>
      </trkpt>
      <trkpt lat="44.74521" lon="5.43164">
        <ele>653.35</ele>
        <time>2015-05-09T13:02:34Z</time>
      </trkpt>
      <trkpt lat="44.74522" lon="5.43167">
        <ele>653.35</ele>
        <time>2015-05-09T13:02:35Z</time>
      </trkpt>
      <trkpt lat="44.74524" lon="5.43171">
        <ele>653.83</ele>
        <time>2015-05-09T13:02:39Z</time>
      </trkpt>
      <trkpt lat="44.74526" lon="5.43184">
        <ele>654.8</ele>
        <time>2015-05-09T13:02:45Z</time>
      </trkpt>
      <trkpt lat="44.74529" lon="5.43197">
        <ele>655.28</ele>
        <time>2015-05-09T13:02:53Z</time>
      </trkpt>
      <trkpt lat="44.74529" lon="5.43203">
        <ele>655.76</ele>
        <time>2015-05-09T13:02:56Z</time>
      </trkpt>
      <trkpt lat="44.74533" lon="5.43212">
        <ele>656.72</ele>
        <time>2015-05-09T13:03:02Z</time>
      </trkpt>
      <trkpt lat="44.74542" lon="5.43234">
        <ele>658.16</ele>
        <time>2015-05-09T13:03:15Z</time>
      </trkpt>
      <trkpt lat="44.7455" lon="5.43248">
        <ele>660.08</ele>
        <time>2015-05-09T13:03:28Z</time>
      </trkpt>
      <trkpt lat="44.74551" lon="5.43256">
        <ele>660.56</ele>
        <time>2015-05-09T13:03:41Z</time>
      </trkpt>
      <trkpt lat="44.74551" lon="5.43256">
        <ele>660.08</ele>
        <time>2015-05-09T13:04:08Z</time>
      </trkpt>
      <trkpt lat="44.74551" lon="5.43256">
        <ele>660.56</ele>
        <time>2015-05-09T13:04:32Z</time>
      </trkpt>
      <trkpt lat="44.74551" lon="5.43256">
        <ele>660.08</ele>
        <time>2015-05-09T13:04:58Z</time>
      </trkpt>
      <trkpt lat="44.74551" lon="5.43256">
        <ele>660.08</ele>
        <time>2015-05-09T13:05:28Z</time>
      </trkpt>
      <trkpt lat="44.74553" lon="5.43263">
        <ele>660.56</ele>
        <time>2015-05-09T13:05:56Z</time>
      </trkpt>
      <trkpt lat="44.74553" lon="5.43265">
        <ele>660.56</ele>
        <time>2015-05-09T13:06:19Z</time>
      </trkpt>
    </trkseg>
  </trk>
</gpx>